[[{"header":{"parameterUnit":"m.s-1","parameterCategory":1,"la1":30.6,"la2":28.766,"lo1":-90.7593,"lo2":-88.6598,"dy":0.0162,"dx":0.0183,"nx":116,"ny":114,"refTime":"2023-05-31T12:00:00:Z","depth":0,"parameterNumber":2,"parameterNumberName":"U-component_of_WINDS"},"data":[0.0,0.0,0.0,0.0,0.0,0.0,0.0,0.0,0.0,0.0,0.0,0.0,0.0,0.0,0.0,0.0,0.0,0.0,0.0,0.0,0.0,0.0,0.0,0.0,0.0,0.0,0.0,0.0,0.0,0.0,0.0,0.0,0.0,0.0,0.0,0.0,0.0,0.0,0.0,0.0,0.0,0.0,0.0,0.0,0.0,0.0,0.0,0.0,0.0,0.0,0.0,0.0,0.0,0.0,0.0,0.0,0.0,0.0,0.0,0.0,0.0,0.0,0.0,0.0,0.0,0.0,0.0,0.0,0.0,0.0,0.0,0.0,0.0,0.0,0.0,0.0,0.0,0.0,0.0,0.0,0.0,0.0,0.0,0.0,0.0,0.0,0.0,0.0,0.0,0.0,0.0,0.0,0.0,0.0,0.0,0.0,0.0,0.0,0.0,0.0,0.0,0.0,0.0,0.0,0.0,0.0,0.0,0.0,0.0,0.0,0.0,0.0,0.0,0.0,0.0,0.0,0.0,0.0,0.0,0.0,0.0,0.0,0.0,0.0,0.0,0.0,0.0,0.0,0.0,0.0,0.0,0.0,0.0,0.0,0.0,0.0,0.0,0.0,0.0,0.0,0.0,0.0,0.0,0.0,0.0,0.0,0.0,0.0,0.0,0.0,0.0,0.0,0.0,0.0,0.0,0.0,0.0,0.0,0.0,0.0,0.0,0.0,0.0,0.0,0.0,0.0,0.0,0.0,0.0,0.0,0.0,0.0,0.0,0.0,0.0,0.0,0.0,0.0,0.0,0.0,0.0,0.0,0.0,0.0,0.0,0.0,0.0,0.0,0.0,0.0,0.0,0.0,0.0,0.0,0.0,0.0,0.0,0.0,0.0,0.0,0.0,0.0,0.0,0.0,0.0,0.0,0.0,0.0,0.0,0.0,0.0,0.0,0.0,0.0,0.0,0.0,0.0,0.0,0.0,0.0,0.0,0.0,0.0,0.0,0.0,0.0,0.0,0.0,0.0,0.0,0.0,0.0,0.0,0.0,0.0,0.0,0.0,0.0,0.0,0.0,0.0,0.0,0.0,0.0,0.0,0.0,0.0,0.0,0.0,0.0,0.0,0.0,0.0,0.0,0.0,0.0,0.0,0.0,0.0,0.0,0.0,0.0,0.0,0.0,0.0,0.0,0.0,0.0,0.0,0.0,0.0,0.0,0.0,0.0,0.0,0.0,0.0,0.0,0.0,0.0,0.0,0.0,0.0,0.0,0.0,0.0,0.0,0.0,0.0,0.0,0.0,0.0,0.0,0.0,0.0,0.0,0.0,0.0,0.0,0.0,0.0,0.0,0.0,0.0,0.0,0.0,0.0,0.0,0.0,0.0,0.0,0.0,0.0,0.0,0.0,0.0,0.0,0.0,0.0,0.0,0.0,0.0,0.0,0.0,0.0,0.0,0.0,0.0,0.0,0.0,0.0,0.0,0.0,0.0,0.0,0.0,0.0,0.0,0.0,0.0,0.0,0.0,0.0,0.0,0.0,0.0,0.0,0.0,0.0,0.0,0.0,0.0,0.0,0.0,0.0,0.0,0.0,0.0,0.0,0.0,0.0,0.0,0.0,0.0,0.0,0.0,0.0,0.0,0.0,0.0,0.0,0.0,0.0,0.0,0.0,0.0,0.0,0.0,0.0,0.0,0.0,0.0,0.0,0.0,0.0,0.0,0.0,0.0,0.0,0.0,0.0,0.0,0.0,0.0,0.0,0.0,0.0,0.0,0.0,0.0,0.0,0.0,0.0,0.0,0.0,0.0,0.0,0.0,0.0,0.0,0.0,0.0,0.0,0.0,0.0,0.0,0.0,0.0,0.0,0.0,0.0,0.0,0.0,0.0,0.0,0.0,0.0,0.0,0.0,0.0,0.0,0.0,0.0,0.0,0.0,0.0,0.0,0.0,0.0,0.0,0.0,0.0,0.0,0.0,0.0,0.0,0.0,0.0,0.0,0.0,0.0,0.0,0.0,0.0,0.0,0.0,0.0,0.0,0.0,0.0,0.0,0.0,0.0,0.0,0.0,0.0,0.0,0.0,0.0,0.0,0.0,0.0,0.0,0.0,0.0,0.0,0.0,0.0,0.0,0.0,0.0,0.0,0.0,0.0,0.0,0.0,0.0,0.0,0.0,0.0,0.0,0.0,0.0,0.0,0.0,0.0,0.0,0.0,0.0,0.0,0.0,0.0,0.0,0.0,0.0,0.0,0.0,0.0,0.0,0.0,0.0,0.0,0.0,0.0,0.0,0.0,0.0,0.0,0.0,0.0,0.0,0.0,0.0,0.0,0.0,0.0,0.0,0.0,0.0,0.0,0.0,0.0,0.0,0.0,0.0,0.0,0.0,0.0,0.0,0.0,0.0,0.0,0.0,0.0,0.0,0.0,0.0,0.0,0.0,0.0,0.0,0.0,0.0,0.0,0.0,0.0,0.0,0.0,0.0,0.0,0.0,0.0,0.0,0.0,0.0,0.0,0.0,0.0,0.0,0.0,0.0,0.0,0.0,0.0,0.0,0.0,0.0,0.0,0.0,0.0,0.0,0.0,0.0,0.0,0.0,0.0,0.0,0.0,0.0,0.0,0.0,0.0,0.0,0.0,0.0,0.0,0.0,0.0,0.0,0.0,0.0,0.0,0.0,0.0,0.0,0.0,0.0,0.0,0.0,0.0,0.0,0.0,0.0,0.0,0.0,0.0,0.0,0.0,0.0,0.0,0.0,0.0,0.0,0.0,0.0,0.0,0.0,0.0,0.0,0.0,0.0,0.0,0.0,0.0,0.0,0.0,0.0,0.0,0.0,0.0,0.0,0.0,0.0,0.0,0.0,0.0,0.0,0.0,0.0,0.0,0.0,0.0,0.0,0.0,0.0,0.0,0.0,0.0,0.0,0.0,0.0,0.0,0.0,0.0,0.0,0.0,0.0,0.0,0.0,0.0,0.0,0.0,0.0,0.0,0.0,0.0,0.0,0.0,0.0,0.0,0.0,0.0,0.0,0.0,0.0,0.0,0.0,0.0,0.0,0.0,0.0,0.0,0.0,0.0,0.0,0.0,0.0,0.0,0.0,0.0,0.0,0.0,0.0,0.0,0.0,0.0,0.0,0.0,0.0,0.0,0.0,0.0,0.0,0.0,0.0,0.0,0.0,0.0,0.0,0.0,0.0,0.0,0.0,0.0,0.0,0.0,0.0,0.0,0.0,0.0,0.0,0.0,0.0,0.0,0.0,0.0,0.0,0.0,0.0,0.0,0.0,0.0,0.0,0.0,0.0,0.0,0.0,0.0,0.0,0.0,0.0,0.0,0.0,0.0,0.0,0.0,0.0,0.0,0.0,0.0,0.0,0.0,0.0,0.0,0.0,0.0,0.0,0.0,0.0,0.0,0.0,0.0,0.0,0.0,0.0,0.0,0.0,0.0,0.0,0.0,0.0,0.0,0.0,0.0,0.0,0.0,0.0,0.0,0.0,0.0,0.0,0.0,0.0,0.0,0.0,0.0,0.0,0.0,0.0,0.0,0.0,0.0,0.0,0.0,0.0,0.0,0.0,0.0,0.0,0.0,0.0,0.0,0.0,0.0,0.0,0.0,0.0,0.0,0.0,0.0,0.0,0.0,0.0,0.0,0.0,0.0,0.0,0.0,0.0,0.0,0.0,0.0,0.0,0.0,0.0,0.0,0.0,0.0,0.0,0.0,0.0,0.0,0.0,0.0,0.0,0.0,0.0,0.0,0.0,0.0,0.0,0.0,0.0,0.0,0.0,0.0,0.0,0.0,0.0,0.0,0.0,0.0,0.0,0.0,0.0,0.0,0.0,0.0,0.0,0.0,0.0,0.0,0.0,0.0,0.0,0.0,0.0,0.0,0.0,0.0,0.0,0.0,0.0,0.0,0.0,0.0,0.0,0.0,0.0,0.0,0.0,0.0,0.0,0.0,0.0,0.0,0.0,0.0,0.0,0.0,0.0,0.0,0.0,0.0,0.0,0.0,0.0,0.0,0.0,0.0,0.0,0.0,0.0,0.0,0.0,0.0,0.0,0.0,0.0,0.0,0.0,0.0,0.0,0.0,0.0,0.0,0.0,0.0,0.0,0.0,0.0,0.0,0.0,0.0,0.0,0.0,0.0,0.0,0.0,0.0,0.0,0.0,0.0,0.0,0.0,0.0,0.0,0.0,0.0,0.0,0.0,0.0,0.0,0.0,0.0,0.0,0.0,0.0,0.0,0.0,0.0,0.0,0.0,0.0,0.0,0.0,0.0,0.0,0.0,0.0,0.0,0.0,0.0,0.0,0.0,0.0,0.0,0.0,0.0,0.0,0.0,0.0,0.0,0.0,0.0,0.0,0.0,0.0,0.0,0.0,0.0,0.0,0.0,0.0,0.0,0.0,0.0,0.0,0.0,0.0,0.0,0.0,0.0,0.0,0.0,0.0,0.0,0.0,0.0,0.0,0.0,0.0,0.0,0.0,0.0,0.0,0.0,0.0,0.0,0.0,0.0,0.0,0.0,0.0,0.0,0.0,0.0,0.0,0.0,0.0,0.0,0.0,0.0,0.0,0.0,0.0,0.0,0.0,0.0,0.0,0.0,0.0,0.0,0.0,0.0,0.0,0.0,0.0,0.0,0.0,0.0,0.0,0.0,0.0,0.0,0.0,0.0,0.0,0.0,0.0,0.0,0.0,0.0,0.0,0.0,0.0,0.0,0.0,0.0,0.0,0.0,0.0,0.0,0.0,0.0,0.0,0.0,0.0,0.0,0.0,0.0,0.0,0.0,0.0,0.0,0.0,0.0,0.0,0.0,0.0,0.0,0.0,0.0,0.0,0.0,0.0,0.0,0.0,0.0,0.0,0.0,0.0,0.0,0.0,0.0,0.0,0.0,0.0,0.0,0.0,0.0,0.0,0.0,0.0,0.0,0.0,0.0,0.0,0.0,0.0,0.0,0.0,0.0,0.0,0.0,0.0,0.0,0.0,0.0,0.0,0.0,0.0,0.0,0.0,0.0,0.0,0.0,0.0,0.0,0.0,0.0,0.0,0.0,0.0,0.0,0.0,0.0,0.0,0.0,0.0,0.0,0.0,0.0,0.0,0.0,0.0,0.0,0.0,0.0,0.0,0.0,0.0,0.0,0.0,0.0,0.0,0.0,0.0,0.0,0.0,0.0,0.0,0.0,0.0,0.0,0.0,0.0,0.0,0.0,0.0,0.0,0.0,0.0,0.0,0.0,0.0,0.0,0.0,0.0,0.0,0.0,0.0,0.0,0.0,0.0,0.0,0.0,0.0,0.0,0.0,0.0,0.0,0.0,0.0,0.0,0.0,0.0,0.0,0.0,0.0,0.0,0.0,0.0,0.0,0.0,0.0,0.0,0.0,0.0,0.0,0.0,0.0,0.0,0.0,0.0,0.0,0.0,0.0,0.0,0.0,0.0,0.0,0.0,0.0,0.0,0.0,0.0,0.0,0.0,0.0,0.0,0.0,0.0,0.0,0.0,0.0,0.0,0.0,0.0,0.0,0.0,0.0,0.0,0.0,0.0,0.0,0.0,0.0,0.0,0.0,0.0,0.0,0.0,0.0,0.0,0.0,0.0,0.0,0.0,0.0,0.0,0.0,0.0,0.0,0.0,0.0,0.0,0.0,0.0,0.0,0.0,0.0,0.0,0.0,0.0,0.0,0.0,0.0,0.0,0.0,0.0,0.0,0.0,0.0,0.0,0.0,0.0,0.0,0.0,0.0,0.0,0.0,0.0,0.0,0.0,0.0,0.0,0.0,0.0,0.0,0.0,0.0,0.0,0.0,0.0,0.0,0.0,0.0,0.0,0.0,0.0,0.0,0.0,0.0,0.0,0.0,0.0,0.0,0.0,0.0,0.0,0.0,0.0,0.0,0.0,0.0,0.0,0.0,0.0,0.0,0.0,0.0,0.0,0.0,0.0,0.0,0.0,0.0,0.0,0.0,0.0,0.0,0.0,0.0,0.0,0.0,0.0,0.0,0.0,0.0,0.0,0.0,0.0,0.0,0.0,0.0,0.0,0.0,0.0,0.0,0.0,0.0,0.0,0.0,0.0,0.0,0.0,0.0,0.0,0.0,3.3018,3.2893,0.0,0.0,0.0,0.0,0.0,0.0,0.0,0.0,0.0,0.0,0.0,0.0,0.0,0.0,0.0,0.0,0.0,0.0,0.0,0.0,0.0,0.0,0.0,0.0,0.0,0.0,0.0,0.0,0.0,0.0,0.0,0.0,0.0,0.0,0.0,0.0,0.0,0.0,0.0,0.0,0.0,0.0,0.0,0.0,0.0,0.0,0.0,0.0,0.0,0.0,0.0,0.0,0.0,0.0,0.0,0.0,0.0,0.0,0.0,0.0,0.0,0.0,0.0,0.0,0.0,0.0,0.0,0.0,0.0,0.0,0.0,0.0,0.0,0.0,0.0,0.0,0.0,0.0,0.0,0.0,0.0,0.0,0.0,0.0,0.0,0.0,0.0,0.0,0.0,0.0,0.0,0.0,0.0,0.0,0.0,0.0,0.0,0.0,0.0,0.0,0.0,0.0,0.0,0.0,0.0,0.0,0.0,0.0,0.0,0.0,0.0,0.0,0.0,0.0,3.4399,3.347,0.0,0.0,0.0,0.0,0.0,0.0,0.0,0.0,0.0,0.0,0.0,0.0,0.0,0.0,0.0,0.0,0.0,0.0,0.0,0.0,0.0,0.0,0.0,0.0,0.0,0.0,0.0,0.0,0.0,0.0,0.0,0.0,0.0,0.0,0.0,0.0,0.0,0.0,0.0,0.0,0.0,0.0,0.0,0.0,0.0,0.0,0.0,0.0,0.0,0.0,0.0,0.0,0.0,0.0,0.0,0.0,0.0,0.0,0.0,0.0,0.0,0.0,0.0,0.0,0.0,0.0,0.0,0.0,0.0,0.0,0.0,0.0,0.0,0.0,0.0,0.0,0.0,0.0,0.0,0.0,0.0,0.0,0.0,0.0,0.0,0.0,0.0,0.0,0.0,0.0,0.0,0.0,0.0,0.0,0.0,0.0,0.0,0.0,0.0,0.0,0.0,0.0,0.0,0.0,0.0,0.0,0.0,0.0,3.7437,3.8391,3.9295,3.9295,3.9544,3.9865,3.6563,3.4977,3.465,3.5002,0.0,0.0,0.0,0.0,0.0,0.0,0.0,0.0,0.0,0.0,0.0,0.0,0.0,0.0,0.0,0.0,0.0,0.0,0.0,0.0,0.0,0.0,1.8226,1.8226,1.8226,1.8266,0.0,0.0,0.0,0.0,0.0,0.0,0.0,0.0,0.0,0.0,0.0,2.5313,2.6213,2.6741,2.735,2.7949,2.5046,0.0,0.0,0.0,0.0,0.0,0.0,0.0,0.0,0.0,0.0,0.0,0.0,0.0,0.0,0.0,0.0,0.0,0.0,0.0,0.0,0.0,0.0,0.0,0.0,0.0,0.0,0.0,0.0,0.0,0.0,0.0,0.0,0.0,0.0,0.0,0.0,0.0,0.0,0.0,0.0,0.0,0.0,0.0,3.0583,3.111,0.0,0.0,0.0,0.0,0.0,0.0,0.0,0.0,0.0,0.0,0.0,0.0,0.0,3.7186,3.809,3.927,3.9848,3.9873,4.0501,4.0877,4.1003,4.1003,4.1255,4.1569,4.0682,0.0,3.7437,3.7036,0.0,0.0,0.0,0.0,0.0,0.0,0.0,0.0,0.0,0.0,0.0,0.0,0.0,0.0,0.0,0.0,0.0,0.0,0.0,0.0,0.0,1.8398,1.8549,1.8549,1.9181,1.939,1.9103,0.0,0.0,0.0,0.0,0.0,0.0,0.0,0.0,0.0,2.4468,2.5865,2.7039,2.7802,2.8383,2.8734,2.7284,2.6564,2.6347,2.6022,0.0,0.0,0.0,0.0,0.0,0.0,0.0,0.0,0.0,0.0,0.0,0.0,0.0,0.0,0.0,0.0,0.0,0.0,0.0,0.0,0.0,0.0,0.0,0.0,0.0,0.0,0.0,0.0,0.0,0.0,0.0,0.0,0.0,0.0,0.0,0.0,0.0,0.0,0.0,3.1637,3.2541,3.1512,3.3219,3.3997,0.0,0.0,0.0,0.0,0.0,0.0,0.0,0.0,0.0,3.8316,3.9396,3.999,4.0038,4.1888,4.2538,4.2037,4.3357,4.4072,4.4183,4.4183,4.4427,4.4841,4.462,4.3579,4.188,3.9619,3.7764,3.6433,0.0,0.0,0.0,0.0,3.8212,3.8815,0.0,0.0,0.0,0.0,0.0,0.0,0.0,0.0,0.0,0.0,0.0,0.0,1.814,1.8684,1.9119,1.9212,1.989,2.0223,2.0048,2.0133,0.0,0.0,0.0,0.0,0.0,0.0,0.0,2.4113,2.5483,2.6859,2.8168,2.8939,2.9516,2.987,2.987,2.8899,2.7181,2.7026,2.601,0.0,0.0,0.0,0.0,0.0,0.0,0.0,0.0,0.0,0.0,0.0,0.0,0.0,0.0,0.0,0.0,0.0,0.0,0.0,0.0,0.0,0.0,0.0,0.0,0.0,0.0,0.0,0.0,0.0,0.0,0.0,0.0,0.0,0.0,0.0,0.0,0.0,0.0,3.3119,3.3847,3.2039,3.4148,3.5052,0.0,0.0,0.0,0.0,0.0,0.0,3.7465,3.8891,4.0184,4.1429,4.2389,4.2741,4.2549,4.4368,4.5086,4.4529,4.593,4.6779,4.7173,4.7173,4.7173,4.7281,4.7399,4.6803,4.5396,4.2188,3.9965,3.8466,3.8216,3.8266,3.8391,3.9365,4.024,4.0856,0.0,0.0,0.0,0.0,0.0,0.0,0.0,0.0,0.0,0.0,0.0,1.814,1.8711,1.9266,1.9863,2.0359,2.0026,2.0079,2.0862,1.9921,1.9656,2.0542,2.0245,0.0,0.0,0.0,0.0,2.5022,2.7187,2.8965,3.039,3.1047,3.1682,3.2217,3.2217,3.1358,2.9748,2.7357,2.6788,2.7374,0.0,0.0,0.0,0.0,0.0,0.0,0.0,0.0,0.0,0.0,0.0,0.0,0.0,0.0,0.0,0.0,0.0,0.0,0.0,0.0,0.0,0.0,0.0,0.0,0.0,0.0,0.0,0.0,0.0,0.0,0.0,0.0,0.0,0.0,0.0,0.0,0.0,0.0,0.0,3.3068,3.4951,0.0,0.0,0.0,0.0,3.6935,3.8517,3.9819,4.0492,4.1274,4.2487,4.413,4.457,4.5357,4.6779,4.7075,4.7388,4.7916,4.7988,4.83,4.8827,4.8827,4.8553,4.7816,4.8028,4.7766,4.6893,4.496,4.3266,4.1654,4.1114,4.0918,4.1016,4.158,4.1825,4.1972,0.0,0.0,0.0,0.0,0.0,0.0,0.0,0.0,0.0,1.7828,1.8249,1.8738,1.9293,2.0243,2.103,2.1627,2.1871,2.1882,2.1611,2.1029,2.0653,2.0595,2.012,0.0,0.0,0.0,2.43,2.6425,2.8021,2.936,3.0443,3.1595,3.2111,3.2196,3.3425,3.3168,3.1772,2.9628,2.814,2.7086,2.6495,2.6394,0.0,0.0,0.0,0.0,0.0,0.0,0.0,0.0,0.0,0.0,0.0,0.0,0.0,0.0,0.0,0.0,0.0,0.0,0.0,0.0,0.0,0.0,0.0,0.0,0.0,0.0,0.0,0.0,0.0,0.0,0.0,0.0,0.0,0.0,0.0,0.0,0.0,3.6885,3.9069,0.0,3.804,3.8592,3.9168,3.9486,4.1081,4.2095,4.2471,4.3772,4.5113,4.6563,4.7021,4.7886,4.906,4.9336,4.9414,4.9264,4.9487,4.9605,4.9544,4.9544,4.9357,4.9031,4.9131,4.8399,4.7248,4.638,4.5255,4.4111,4.3211,4.3208,4.3717,4.3481,4.386,4.4356,0.0,0.0,0.0,0.0,0.0,0.0,0.0,0.0,0.0,1.7529,1.8452,1.932,1.9917,2.122,2.2278,2.2875,2.2929,2.2709,2.2358,2.1512,2.0907,2.0718,2.0529,0.0,0.0,2.4046,2.5651,2.759,2.867,2.9829,3.1048,3.2055,3.2581,3.283,3.424,3.4441,3.3561,3.2113,3.0171,2.7987,2.7144,2.7087,2.7331,0.0,0.0,0.0,0.0,0.0,0.0,0.0,0.0,0.0,0.0,0.0,0.0,0.0,0.0,0.0,0.0,0.0,0.0,0.0,0.0,0.0,0.0,0.0,0.0,0.0,0.0,0.0,0.0,0.0,0.0,0.0,0.0,0.0,0.0,3.8417,4.0375,4.0023,4.2409,4.3438,4.1781,4.1913,4.2314,4.2806,4.3649,4.4499,4.4926,4.5714,4.6479,4.7512,4.8168,4.8827,4.9638,5.0068,5.0256,4.9893,5.0142,5.0017,4.9916,4.9442,4.9237,4.9068,4.8598,4.7947,4.6994,4.6684,4.6404,4.5838,4.4617,4.4642,4.529,4.4937,4.536,4.5916,0.0,0.0,0.0,0.0,0.0,0.0,0.0,1.6607,1.6987,1.6987,1.8587,1.9944,2.0468,2.2119,2.3446,2.4069,2.3011,2.2549,2.3121,2.1198,2.0359,2.1023,2.1608,0.0,2.357,2.5375,2.7027,2.8558,2.9244,3.0522,3.2249,3.2407,3.3073,3.4175,3.4882,3.518,3.5226,3.4534,3.2904,3.0488,2.7959,2.7824,2.8909,0.0,0.0,0.0,0.0,0.0,0.0,0.0,0.0,0.0,0.0,0.0,0.0,0.0,0.0,0.0,0.0,0.0,0.0,0.0,0.0,0.0,0.0,0.0,0.0,0.0,0.0,0.0,0.0,0.0,0.0,0.0,0.0,0.0,3.7262,4.0174,4.2283,4.2384,4.4794,4.5849,4.4242,4.4833,4.5722,4.6773,4.654,4.6793,4.7995,4.706,4.6637,4.7115,4.7794,4.8253,4.8535,4.9488,4.9962,4.9962,4.9962,4.9985,4.9811,4.8557,4.7947,4.7947,4.6695,4.6075,4.6075,4.6075,4.6519,4.7094,4.5494,4.5178,4.5596,4.6033,4.6179,4.6023,0.0,0.0,0.0,0.0,0.0,0.0,0.0,1.6254,1.6498,1.6932,1.894,2.0468,2.1063,2.2793,2.3933,2.4123,2.3011,2.2285,2.2242,2.0739,2.0486,2.1931,2.2507,0.0,2.6038,2.7259,2.8518,2.9832,3.057,3.1095,3.163,3.2094,3.2751,3.3638,3.4612,3.5447,3.5798,3.563,3.518,3.4281,3.1387,3.0154,2.9954,0.0,0.0,0.0,0.0,0.0,0.0,0.0,0.0,0.0,0.0,0.0,0.0,0.0,0.0,0.0,0.0,0.0,0.0,0.0,0.0,0.0,0.0,0.0,0.0,0.0,0.0,0.0,0.0,0.0,0.0,0.0,3.8216,4.0174,4.0701,4.2961,4.5321,4.7305,4.8426,4.9232,4.9843,4.9328,4.9487,5.0572,4.9759,4.905,4.8627,4.7379,4.6712,4.7028,4.8188,4.9003,4.9583,5.0902,5.1362,5.1018,5.041,5.0076,4.9919,4.8656,4.8178,4.8157,4.7496,4.6711,4.5731,4.574,4.5643,4.5308,4.6309,4.6981,4.7542,4.6789,4.5836,4.4673,0.0,0.0,0.0,0.0,0.0,0.0,0.0,1.5793,1.6254,1.658,1.8913,2.0711,2.1355,2.2821,2.3689,2.3689,2.2771,2.1944,2.1552,2.0727,2.0862,2.2159,2.3373,2.5091,2.7274,2.8595,2.991,3.1102,3.1266,3.1637,3.2089,3.2495,3.2982,3.3646,3.4952,3.5806,3.642,3.676,3.7007,3.7063,3.5012,3.3479,3.2254,3.0483,3.0185,3.0631,2.9923,3.0243,3.0981,3.0436,0.0,0.0,0.0,0.0,0.0,0.0,0.0,0.0,0.0,0.0,0.0,0.0,0.0,0.0,0.0,0.0,0.0,0.0,0.0,0.0,0.0,0.0,0.0,0.0,4.1204,4.3765,4.5698,4.6878,4.841,5.0431,5.1333,5.2115,5.2755,5.185,5.1597,5.2577,5.1194,4.9829,4.8995,4.7546,4.6698,4.6145,4.7485,4.8662,4.9707,5.1014,5.1854,5.2051,5.088,5.0512,5.0351,4.8571,4.7587,4.7567,4.6804,4.6044,4.5363,4.5433,4.5229,4.5062,0.0,0.0,0.0,0.0,4.5712,4.4774,0.0,0.0,0.0,0.0,0.0,0.0,0.0,1.5366,1.6118,1.6118,1.8654,2.0657,2.1192,2.2309,2.304,2.2986,2.2213,2.1475,2.0924,2.1121,2.1553,2.224,2.4361,2.633,2.7972,2.9655,3.1077,3.2215,3.1788,3.2089,3.3068,3.3129,3.3488,3.4173,3.5358,3.6252,3.6962,3.7641,3.8302,3.8917,3.8355,3.7084,3.517,3.2861,3.2715,3.3796,3.2992,3.2582,3.2511,3.2733,0.0,0.0,0.0,0.0,0.0,0.0,0.0,0.0,0.0,0.0,0.0,0.0,0.0,0.0,0.0,0.0,0.0,0.0,0.0,0.0,0.0,0.0,0.0,0.0,4.4493,4.733,5.1021,5.1139,5.133,5.2387,5.3418,5.3912,5.3811,5.3044,5.2774,5.3288,5.1402,4.9816,4.8937,4.7629,0.0,0.0,0.0,4.7942,4.906,5.0436,5.155,5.2742,5.1227,5.0599,5.0393,4.788,4.673,4.673,4.5529,4.5019,4.5,4.5055,4.5377,4.5795,4.5412,4.5351,4.5881,4.5711,4.5685,4.5623,0.0,0.0,0.0,0.0,0.0,0.0,0.0,1.5408,1.6164,1.6118,1.8654,2.0359,2.008,2.1491,2.2305,2.1817,2.0952,2.0426,2.0346,2.1219,2.2598,2.4577,2.633,2.8023,2.9781,3.1124,3.1971,3.2215,3.2566,3.2867,3.3068,3.3139,3.3479,3.4089,3.4809,3.5805,3.6907,3.7593,3.8505,3.9592,3.9479,3.846,3.6855,3.5378,3.4853,3.4721,3.4052,3.4755,3.5967,3.4951,3.5473,3.6215,3.445,3.3082,0.0,0.0,0.0,0.0,0.0,0.0,0.0,0.0,0.0,0.0,0.0,0.0,0.0,0.0,0.0,0.0,0.0,0.0,0.0,4.4367,4.7208,4.9818,5.2466,5.3148,5.3741,5.4328,5.3759,5.3856,5.4968,5.4106,5.3429,5.3053,5.1454,4.9849,4.8578,4.7227,4.6383,4.6055,4.8428,4.9596,4.9528,5.1245,5.1893,5.13,4.9574,0.0,4.8189,4.6706,4.5871,4.5851,4.5346,4.5019,4.5,4.539,4.6041,4.666,4.6268,4.633,4.6639,4.5995,4.5685,4.5623,0.0,0.0,0.0,0.0,0.0,0.0,0.0,1.5703,1.6391,1.6905,1.8832,2.0216,2.0541,2.1328,2.1735,2.1437,2.0487,2.0231,2.1041,2.1975,2.3475,2.5653,2.7373,2.8999,3.039,3.1593,3.2365,3.2641,3.2943,3.3068,3.3068,3.3068,3.3391,3.4015,3.4641,3.5574,3.6817,3.7752,3.8695,3.9645,4.0327,3.9885,3.8748,3.7867,3.747,3.7214,3.6693,3.6972,3.7526,3.699,3.6962,3.6967,3.6228,3.4836,3.3406,0.0,0.0,0.0,0.0,0.0,0.0,0.0,0.0,0.0,0.0,0.0,0.0,0.0,0.0,3.7668,3.8674,0.0,4.531,4.8083,5.0206,5.1877,5.2986,5.3354,5.3704,5.466,5.4358,5.3889,5.3818,5.3356,5.2645,5.1849,5.0886,4.9721,4.8331,4.7661,4.6987,4.6308,4.7661,4.8572,4.9005,4.9913,5.0481,5.0696,4.8981,4.8229,4.7833,4.667,4.5996,4.5976,4.5762,4.5664,4.5625,4.6216,4.6878,4.7651,4.7196,4.703,4.6947,4.5941,4.5694,4.5512,0.0,0.0,0.0,0.0,0.0,0.0,0.0,0.0,1.6555,1.7596,1.8777,1.9863,2.0813,2.1003,2.109,2.1075,2.0426,2.068,2.2227,2.3103,2.4532,2.6755,2.8619,3.0055,3.106,3.2139,3.2867,3.3244,3.3244,3.3244,3.3244,3.3244,3.3596,3.4223,3.4729,3.5697,3.6962,3.7952,3.8925,3.9801,4.1071,4.118,4.0707,4.0118,3.9825,3.9563,3.9132,3.8559,3.7994,3.845,3.7601,3.6542,3.7262,3.6171,3.4651,3.4554,3.4233,0.0,0.0,0.0,0.0,0.0,0.0,0.0,0.0,3.4654,3.4878,3.6137,3.8056,4.0231,4.2608,4.5722,4.8936,5.1495,5.2661,5.3249,5.2951,5.2502,5.2507,5.3646,5.3901,5.3474,5.1915,5.1983,5.139,5.004,5.004,4.9359,4.8007,4.7834,4.7528,4.6426,4.6503,4.7181,4.8474,4.8372,4.8846,5.0061,4.8523,4.7834,4.7834,4.6813,4.6308,4.6308,4.6308,4.625,4.6327,4.6935,4.761,4.8165,4.7962,4.761,4.7072,4.6311,4.5963,4.5636,0.0,0.0,0.0,0.0,0.0,0.0,0.0,0.0,0.0,1.7052,1.8126,1.8956,1.9092,1.9564,1.9898,1.9908,2.0753,2.1927,2.3386,2.4684,2.6468,2.901,3.0896,3.2139,3.2792,3.3872,3.4223,3.3796,3.3796,3.3796,3.3796,3.3796,3.4349,3.5353,3.5353,3.6421,3.8126,3.8272,3.9302,4.093,4.1612,4.2172,4.2525,4.169,4.0893,4.0014,3.9508,3.8692,3.7811,3.8318,3.8051,3.7624,3.8132,3.7723,3.6864,3.5885,3.4527,3.3167,3.3111,3.3218,3.3752,3.5354,3.502,3.4977,0.0,3.8157,3.8441,3.8577,4.1282,4.4207,4.5566,4.8112,5.0925,5.3187,5.3418,5.3129,5.2651,5.1693,5.0972,5.0643,5.0752,5.066,5.061,5.0527,5.004,4.8675,4.8503,4.8007,4.6638,4.6464,4.664,4.6855,4.7688,4.8362,4.8943,4.8535,4.8331,4.8503,4.7161,4.6464,4.6464,4.6308,4.6308,4.6308,4.6308,4.6248,4.6452,4.7307,4.7743,4.7888,4.8165,4.8104,4.7515,4.7066,4.6548,4.6212,0.0,0.0,0.0,0.0,0.0,0.0,0.0,0.0,0.0,0.0,1.8686,1.932,1.932,1.9674,2.0034,2.0205,2.055,2.174,2.3996,2.5355,2.743,3.0292,3.218,3.3144,3.3068,3.4148,3.4449,3.3897,3.3897,3.4073,3.4374,3.4374,3.4977,3.6031,3.6358,3.7127,3.8151,3.8507,3.929,4.0359,4.1331,4.1801,4.1956,4.1389,4.0279,3.8891,3.8324,3.7603,0.0,0.0,3.6831,3.7103,3.8109,3.7456,3.6384,3.6432,3.511,3.3807,3.4126,3.4538,3.5098,3.6044,3.7051,3.7938,3.8936,3.9807,4.0505,4.0769,4.3525,4.6192,4.7075,4.9421,5.2047,5.4023,5.3475,5.2399,5.2025,5.0709,4.9216,4.7311,4.7101,4.7725,4.9126,4.9188,4.8675,4.7314,4.738,4.7188,4.666,4.6914,4.7129,4.7305,4.7662,4.7997,4.8176,4.7997,4.7917,4.7897,4.713,4.6797,4.7031,4.6777,4.666,4.666,4.6406,4.6366,4.6749,4.7448,4.7773,4.7764,4.8257,4.7915,4.7167,4.6804,4.6373,4.5867,0.0,0.0,0.0,0.0,0.0,0.0,0.0,0.0,0.0,0.0,0.0,1.9541,1.9663,1.9917,2.0207,2.0554,2.0575,2.1635,2.4245,2.5547,2.7657,3.0778,3.2659,3.3621,3.352,3.46,3.4901,3.4349,3.4349,3.465,3.5177,3.5177,3.5855,3.7061,3.7312,3.7814,3.8492,3.8919,3.932,3.9851,4.1078,4.1304,4.0752,4.0236,3.8914,3.7262,3.6709,3.5855,0.0,3.4726,3.4776,3.5219,3.6724,3.6353,3.548,3.594,3.4868,3.3819,3.4659,3.5454,3.6351,3.7245,3.8957,4.0571,4.0592,4.1761,4.2844,4.3175,4.5602,4.7795,4.8351,5.0184,5.2263,5.4433,5.3543,5.2377,5.2105,5.0134,4.7775,4.5361,4.4621,4.5025,4.7017,4.7511,4.7195,4.6289,4.6699,4.6933,4.6933,4.7344,4.7637,4.7754,4.7637,4.7637,4.7754,4.7637,4.7578,4.7578,4.7266,4.7266,4.7558,4.7129,4.6992,4.707,4.6543,4.6542,4.699,4.7394,4.7528,4.7528,4.8027,4.7681,4.6927,4.6635,4.6245,4.5884,0.0,0.0,0.0,0.0,0.0,0.0,0.0,0.0,0.0,0.0,0.0,0.0,0.0,0.0,2.0202,2.0552,2.1106,2.2243,2.3995,2.509,2.7075,3.0266,3.2162,3.3596,3.465,3.5755,3.6031,3.5504,3.5504,3.578,3.6307,3.6307,3.7186,3.8768,3.8216,3.8592,3.9647,3.9672,3.9672,3.9798,4.0877,4.0676,3.9622,3.8492,3.7036,3.5554,3.5002,0.0,3.1612,3.2139,3.1964,3.1838,3.347,3.4324,3.4625,3.4161,3.3058,3.246,3.4195,3.5387,3.6648,3.89,4.0453,4.1684,4.2583,4.455,4.6081,4.5948,4.7613,4.9272,4.9941,5.0224,5.1366,5.4504,5.384,5.2974,5.2849,4.999,4.7129,4.5739,4.3798,4.3027,4.4336,4.5195,4.5859,4.6269,4.6699,4.6933,4.6933,4.7344,4.7773,4.8164,4.7793,4.7773,4.8183,4.7793,4.7578,4.7578,4.7578,4.7578,4.7558,4.7129,4.7168,4.7519,4.666,4.6543,4.6875,4.699,4.7007,4.7007,4.7528,4.7354,4.7007,4.6967,4.6619,4.6269,0.0,0.0,0.0,0.0,0.0,0.0,0.0,0.0,0.0,0.0,0.0,0.0,0.0,0.0,0.0,0.0,2.0882,2.1642,2.3083,2.4709,2.6584,2.8796,3.1568,3.3244,3.3621,3.47,3.5353,3.5554,3.5177,3.5655,3.691,3.691,3.7613,3.8868,3.9044,3.9346,3.9697,3.9697,4.0124,4.0727,3.9998,4.0149,4.0501,3.7889,3.5881,3.4248,0.0,0.0,3.0357,3.0557,3.0733,3.111,3.2365,3.2667,3.2381,3.1674,3.2674,3.4265,3.5817,3.744,3.936,4.2174,4.3798,4.4823,4.5246,4.6547,4.7332,4.5875,4.6245,4.657,4.6387,4.7181,4.8919,5.194,5.2104,5.2254,5.2898,5.1167,4.8712,4.5283,4.4704,4.4079,4.2876,4.3984,4.5351,4.6621,4.7109,4.7617,4.8183,4.8633,4.8945,4.9082,4.8945,4.8789,4.8633,4.8496,4.8418,4.8418,4.8125,4.7988,4.7969,4.7558,4.7441,4.7558,4.6973,4.6641,4.6504,4.6892,4.6832,4.6658,4.7007,4.7185,4.6856,4.6581,4.6836,4.7109,0.0,0.0,0.0,0.0,0.0,0.0,0.0,0.0,0.0,0.0,0.0,0.0,0.0,0.0,0.0,0.0,0.0,2.1064,2.2231,2.3466,2.4958,2.6841,2.9151,3.0683,3.1286,3.219,3.2918,3.3495,3.3319,3.4098,3.573,3.5906,3.6609,3.7713,3.8266,3.8617,3.8793,3.8793,3.9094,3.9446,3.8191,3.7965,3.809,3.5353,3.3395,0.0,0.0,0.0,2.8624,2.8825,2.9252,2.988,3.0758,3.1173,3.1373,3.1772,3.3308,3.5443,3.8089,3.9873,4.1746,4.4589,4.6101,4.6928,4.7047,4.744,4.7498,4.6085,4.5335,4.4858,4.4135,4.4529,4.61,4.9421,5.0178,5.0811,5.2855,5.0992,4.8583,4.5857,4.4739,4.366,4.266,4.3633,4.4922,4.6152,4.707,4.7891,4.8594,4.9355,4.9687,4.9531,4.9531,4.9316,4.8867,4.8867,4.8867,4.8848,4.8574,4.8437,4.8418,4.8008,4.7891,4.8008,4.7422,4.7012,4.6738,4.6953,4.6621,4.6308,4.6658,4.664,4.6699,4.6562,4.6777,4.7109,0.0,0.0,0.0,0.0,0.0,0.0,0.0,0.0,0.0,0.0,0.0,0.0,0.0,0.0,0.0,0.0,0.0,0.0,2.1406,2.1524,2.2506,2.4556,2.5234,2.6314,2.7946,2.8524,2.9101,2.9704,3.0231,3.1311,3.2918,3.347,3.4299,3.5353,3.5881,3.6408,3.6935,3.6935,3.6659,3.6182,3.5579,3.4424,3.2893,3.121,0.0,0.0,0.0,2.7037,2.6659,2.7168,2.7821,2.8448,2.8925,3.0096,3.1734,3.4115,3.4956,3.6196,4.0854,4.2739,4.3962,4.6262,4.7569,4.8276,4.7684,4.7247,4.6724,4.629,4.4936,4.3938,4.3421,4.2594,4.3308,4.7351,4.8048,4.9352,5.2905,4.9774,4.7247,4.7581,4.4051,4.2151,4.3555,4.4141,4.4629,4.5078,4.666,4.7812,4.8281,4.9512,5.0019,4.9609,4.959,4.9375,4.8887,4.8867,4.8867,4.8867,4.8828,4.8828,4.8848,4.8398,4.8437,4.8769,4.7949,4.7578,4.7519,4.709,4.668,4.6308,4.6328,4.6348,4.6406,4.6758,4.668,4.6445,0.0,0.0,0.0,0.0,0.0,0.0,0.0,0.0,0.0,0.0,0.0,0.0,0.0,0.0,0.0,0.0,0.0,0.0,2.0874,2.1667,2.2334,2.2611,2.4179,2.541,2.6214,2.6791,2.757,2.8524,2.8674,2.9402,3.0633,3.1185,3.1813,3.2466,3.2591,3.2968,3.347,3.347,3.3897,3.4399,0.0,3.2692,3.2842,0.0,0.0,0.0,0.0,2.783,2.778,2.8318,2.998,3.1805,3.1651,3.2665,3.4174,3.5025,3.6926,3.9295,4.2683,4.4706,4.633,4.8561,4.8669,4.8212,4.8297,4.7099,4.5523,4.4071,4.1991,4.0056,3.9505,4.0546,4.2678,4.6594,4.9297,5.1257,5.2423,5.1962,5.0161,4.655,4.5821,4.5062,4.3896,4.4414,4.5312,4.6367,4.7441,4.8516,4.9609,5.0293,5.0586,5.0488,5.0488,5.0117,4.9355,4.9023,4.8867,4.8848,4.8535,4.8535,4.8848,4.8398,4.8262,4.834,4.7812,4.7402,4.709,4.6973,4.668,4.6328,4.6641,4.6973,4.7187,4.666,4.6992,4.7695,0.0,0.0,0.0,0.0,0.0,0.0,0.0,0.0,0.0,0.0,0.0,0.0,0.0,0.0,0.0,0.0,0.0,0.0,0.0,2.1675,2.2058,2.2009,2.2695,2.3288,2.373,2.3876,2.433,2.5209,2.5633,2.6409,2.7525,2.8528,2.9266,2.9804,3.0317,3.0855,3.1368,3.1111,0.0,0.0,0.0,0.0,0.0,0.0,0.0,0.0,2.8036,2.8243,2.9149,3.0343,3.1638,3.2926,3.3672,3.4933,3.6494,3.8206,4.0028,4.2304,4.5112,4.7002,4.8277,4.9429,4.9407,4.8653,4.718,4.5721,4.4006,4.1536,3.9476,3.7884,3.7239,3.8594,4.1154,4.4701,4.7695,5.0002,5.1378,5.1205,4.9838,4.7174,4.6602,4.6066,4.5137,4.5918,4.6797,4.7715,4.8223,4.9004,5.0117,5.0762,5.0996,5.082,5.0625,5.0117,4.9238,4.8984,4.8867,4.8867,4.8613,4.8613,4.8848,4.8613,4.8496,4.8476,4.8047,4.7715,4.7461,4.709,4.6797,4.6582,4.6641,4.6797,4.7012,4.6894,4.7187,4.7695,0.0,0.0,0.0,0.0,0.0,0.0,0.0,0.0,0.0,0.0,0.0,0.0,0.0,0.0,0.0,0.0,0.0,0.0,0.0,0.0,0.0,0.0,2.1309,2.0959,2.1225,2.091,2.0952,2.1433,2.2326,2.3269,0.0,0.0,0.0,0.0,0.0,0.0,0.0,0.0,0.0,0.0,0.0,0.0,0.0,0.0,0.0,0.0,2.768,2.8524,3.0194,3.2476,3.3219,3.3529,3.5782,3.7315,3.907,4.2189,4.3736,4.4792,4.7619,4.9007,4.9694,4.9723,4.9649,4.8758,4.5572,4.3985,4.2312,3.8894,3.7496,3.6503,3.5829,3.7062,3.9391,4.2926,4.5014,4.7138,5.0186,4.909,4.7975,4.8057,4.6729,4.6191,4.709,4.7851,4.8516,4.9082,4.9141,4.9473,5.0215,5.0996,5.1269,5.0898,5.043,4.9844,4.9121,4.8945,4.8887,4.8945,4.8887,4.8867,4.8867,4.8867,4.8867,4.8828,4.8398,4.8164,4.8066,4.7383,4.6992,4.6816,4.6562,4.6465,4.6562,4.7246,4.7324,4.7266,0.0,0.0,0.0,0.0,0.0,0.0,0.0,0.0,0.0,0.0,1.9739,2.0108,0.0,0.0,0.0,0.0,0.0,0.0,0.0,0.0,0.0,0.0,2.1291,2.0997,2.1053,2.1004,2.1007,2.1112,2.1693,2.2062,2.23,2.3572,2.4239,0.0,0.0,0.0,0.0,0.0,0.0,0.0,0.0,0.0,0.0,0.0,0.0,0.0,2.9118,2.8864,2.8972,3.2818,3.5806,3.8013,3.9408,4.1099,4.3062,4.4848,4.5882,4.6658,4.8759,4.9811,5.0161,5.0028,4.8695,4.7175,4.5734,4.2613,3.9569,3.7822,3.6074,3.4786,3.4389,3.6095,3.9057,4.3636,4.4846,4.6404,5.0041,4.8945,4.7549,4.7208,4.6934,4.7187,4.8398,4.8652,4.9219,5.0391,5.0469,5.0547,5.0683,5.1172,5.1406,5.1328,5.0586,5.0273,5.0469,4.9394,4.9043,4.9414,4.9043,4.8867,4.8867,4.8867,4.8867,4.8828,4.8398,4.8008,4.7715,4.791,4.7363,4.6484,4.7109,4.7363,4.7344,4.7129,4.7441,4.8008,0.0,0.0,0.0,0.0,0.0,0.0,0.0,0.0,1.887,1.9688,1.9456,1.9512,2.0362,2.0607,0.0,0.0,0.0,0.0,0.0,0.0,0.0,0.0,0.0,0.0,2.1313,2.1091,2.0993,2.0993,0.0,2.215,2.2556,2.3616,2.4302,2.4688,2.5299,2.5577,2.5654,2.5854,2.599,2.6062,2.6362,2.6914,0.0,0.0,0.0,0.0,0.0,2.9622,2.9845,3.2347,3.5603,3.9021,4.0946,4.2901,4.4892,4.6655,4.7488,4.823,4.9912,5.072,5.095,5.0838,4.917,4.6939,4.429,4.1283,3.819,3.5325,3.4462,3.4078,3.3552,3.5632,3.8419,4.1442,4.2518,4.4184,4.7798,4.7041,4.6532,4.7208,4.7699,4.8262,4.9121,4.9609,5.0215,5.1074,5.1133,5.1133,5.1133,5.1328,5.1328,5.1113,5.0723,5.0488,5.0488,4.9629,4.9316,4.9531,4.9062,4.8867,4.8867,4.8867,4.8984,4.916,4.8496,4.8359,4.8535,4.7832,4.7324,4.6973,4.6933,4.7051,4.7246,4.7266,4.7656,4.8242,0.0,0.0,0.0,0.0,0.0,0.0,0.0,1.7559,1.8466,1.9957,1.9632,1.9541,2.0342,2.0686,2.0842,0.0,0.0,0.0,0.0,0.0,0.0,0.0,0.0,0.0,0.0,0.0,0.0,2.15,2.2067,0.0,0.0,0.0,0.0,0.0,2.6335,2.6443,2.6204,2.6496,2.6472,0.0,0.0,2.7286,0.0,0.0,0.0,0.0,0.0,3.0177,3.0869,3.2122,3.4693,3.7898,4.0644,4.3214,4.5609,4.7116,4.8274,4.9344,5.0699,5.1419,5.1752,5.1424,4.9442,4.6609,4.2862,4.0057,3.706,3.3167,3.3143,3.3671,3.3076,3.5194,3.7631,3.951,4.0472,4.2186,4.5791,4.5532,4.5616,4.7423,4.8307,4.9082,4.9609,5.0351,5.0976,5.1406,5.1426,5.1426,5.1426,5.1426,5.1289,5.0957,5.0859,5.0683,5.0449,4.9922,4.9668,4.9668,4.9219,4.8945,4.8867,4.8965,4.9141,4.9355,4.875,4.8769,4.9141,4.7773,4.7305,4.7383,4.6797,4.6777,4.7129,4.7558,4.7988,4.8398,0.0,0.0,0.0,0.0,0.0,0.0,0.0,1.7737,1.9076,2.0119,2.0173,2.0083,2.0134,1.9372,1.9029,0.0,0.0,0.0,0.0,0.0,0.0,0.0,0.0,0.0,0.0,0.0,0.0,2.3083,2.3231,0.0,0.0,0.0,0.0,0.0,0.0,2.7019,2.6967,2.7019,0.0,0.0,0.0,0.0,0.0,0.0,0.0,0.0,0.0,3.0104,3.0173,3.2867,3.3863,3.4624,3.7404,4.1463,4.5347,4.5522,4.7466,4.9781,5.0808,5.1419,5.1664,5.131,4.8543,4.5209,4.2663,3.8864,3.5158,3.2647,3.2763,3.3332,3.326,3.4655,3.6988,4.0588,4.041,4.1444,4.5966,4.5995,4.5901,4.7504,4.832,4.9199,5.0039,5.0527,5.0976,5.1406,5.1426,5.1426,5.1426,5.1426,5.1406,5.1367,5.0996,5.0976,5.1308,5.0527,5.0117,5.0117,4.9687,4.9258,4.8867,4.9277,4.9258,4.8945,4.9258,4.9004,4.832,4.8164,4.7656,4.7012,4.7344,4.748,4.7578,4.7988,4.8418,4.8808,0.0,0.0,0.0,0.0,0.0,0.0,0.0,1.7459,1.8928,2.0789,2.1043,2.1007,2.0952,2.0081,1.9514,0.0,0.0,0.0,0.0,0.0,0.0,0.0,0.0,0.0,0.0,0.0,2.3623,2.3537,2.3696,0.0,0.0,0.0,0.0,0.0,0.0,2.7357,2.7122,2.7408,0.0,0.0,0.0,0.0,0.0,0.0,0.0,0.0,0.0,0.0,3.0755,3.0813,3.2239,3.3837,3.2948,3.6024,4.0356,4.3214,4.5456,4.7707,5.0921,5.1945,5.2249,5.255,4.8847,4.4463,4.2303,3.8056,3.415,3.2256,3.2328,3.2803,3.2803,3.3666,3.509,3.7297,3.6787,3.7627,4.2032,4.1572,4.2431,4.6414,4.7386,4.8457,5.0371,5.0937,5.125,5.1426,5.1426,5.1426,5.1426,5.1426,5.1426,5.1426,5.1269,5.1269,5.1426,5.0859,5.043,5.0176,5.0,4.9687,4.9277,4.9707,4.9824,4.9648,4.957,4.9316,4.8945,4.8144,4.7773,4.7676,4.7324,4.75,4.7969,4.8144,4.8476,4.8867,0.0,0.0,0.0,0.0,0.0,1.5706,1.6438,1.7467,1.8995,2.1297,2.1571,2.1571,2.1515,2.0444,1.961,1.9391,0.0,0.0,0.0,0.0,0.0,0.0,0.0,0.0,0.0,0.0,2.4225,2.409,2.4245,2.4564,0.0,0.0,2.6062,2.6731,0.0,0.0,0.0,0.0,0.0,0.0,0.0,0.0,0.0,0.0,0.0,0.0,0.0,0.0,0.0,0.0,0.0,3.2685,3.0568,3.223,3.5808,3.9974,4.2776,4.545,4.9625,5.1131,5.1695,5.2622,4.8613,4.382,4.1794,3.7581,3.3503,3.1896,3.2106,3.2491,3.2581,3.332,3.4352,3.5353,3.5381,3.6367,3.9767,3.9511,4.0591,4.5062,4.5847,4.6953,4.9414,5.0742,5.1426,5.1426,5.1426,5.1426,5.1426,5.1426,5.1426,5.1426,5.1426,5.1426,5.1426,5.1133,5.0781,5.0371,5.0371,5.0078,4.9551,4.998,5.0039,4.9785,4.9609,4.9375,4.9062,4.8144,4.7871,4.7969,4.75,4.7676,4.8223,4.8359,4.8594,4.8867,0.0,0.0,0.0,0.0,0.0,0.0,0.0,1.7851,1.9506,2.1512,2.1625,2.1515,2.1515,1.9902,1.8788,1.8823,0.0,0.0,0.0,0.0,0.0,0.0,0.0,0.0,0.0,0.0,2.5551,2.4966,2.5084,2.5084,2.4997,2.5477,2.6037,2.6723,0.0,0.0,0.0,0.0,0.0,0.0,0.0,0.0,0.0,0.0,0.0,0.0,0.0,0.0,0.0,0.0,0.0,0.0,0.0,3.1551,3.2568,3.5426,3.9286,4.3154,4.6547,4.8361,4.9786,5.0746,4.742,4.3153,4.0894,3.7108,3.3503,3.1717,3.1926,3.2581,3.2804,3.3863,3.5169,3.6188,3.7764,3.9373,4.1015,4.1566,4.2279,4.329,4.3597,4.459,4.6758,4.9668,5.1426,5.1426,5.1426,5.1426,5.1426,5.1426,5.1426,5.1426,5.1426,5.1426,5.1426,5.1426,5.1211,5.0801,5.0801,5.0351,4.9551,4.998,4.9707,4.8906,4.9336,4.9023,4.8223,4.8203,4.7949,4.7617,4.8027,4.8203,4.8262,4.8691,4.8848,4.8867,0.0,0.0,0.0,0.0,0.0,0.0,0.0,1.7607,1.9464,2.0641,2.1771,2.2227,2.1551,2.0462,1.9525,1.8984,0.0,0.0,0.0,0.0,0.0,0.0,0.0,0.0,0.0,0.0,2.603,2.5621,2.5476,2.5253,2.5084,2.5652,2.601,2.6262,2.7337,2.7919,0.0,0.0,0.0,0.0,0.0,0.0,2.9837,0.0,0.0,0.0,0.0,0.0,0.0,0.0,0.0,0.0,0.0,0.0,0.0,3.284,3.6264,4.0273,4.3927,4.5459,4.6253,4.6559,4.3626,4.0234,3.8355,3.533,3.2851,3.2412,3.2236,3.2422,3.3241,3.3612,3.4619,3.687,3.7841,3.9009,4.0998,4.1331,4.2435,4.5137,4.7581,4.9258,4.9941,5.0879,5.162,5.2008,5.162,5.162,5.2008,5.1345,5.1133,5.1426,5.1152,5.1133,5.1426,5.0859,5.0644,5.0801,5.0508,5.0234,4.998,5.0117,4.9863,4.9316,4.9473,4.9023,4.8203,4.8203,4.8125,4.8027,4.8164,4.8398,4.8672,4.8808,4.8867,4.8867,0.0,0.0,0.0,0.0,0.0,0.0,0.0,1.7255,1.8968,1.9802,2.1078,2.1717,2.1116,2.0228,1.9524,1.9034,0.0,0.0,0.0,0.0,0.0,0.0,0.0,0.0,0.0,2.6891,2.6521,2.6137,2.6261,2.6003,2.547,2.6022,2.6222,2.6154,2.7189,2.7822,0.0,0.0,0.0,0.0,0.0,0.0,2.9577,0.0,0.0,0.0,0.0,0.0,0.0,0.0,0.0,0.0,0.0,0.0,0.0,0.0,3.3542,3.7092,4.0763,4.2377,4.2946,4.3403,4.0964,3.8251,3.684,3.4508,3.2599,3.2674,3.2357,3.2421,3.3081,3.3612,3.4413,3.6318,3.7169,3.846,4.0525,4.1138,4.2469,4.5539,4.8365,5.0039,5.0195,5.0957,5.162,5.1814,5.162,5.162,5.1814,5.1228,5.0918,5.1191,5.0781,5.0703,5.0957,5.0449,5.0312,5.0566,5.0312,5.0098,4.9922,4.9766,4.9433,4.9023,4.9023,4.8633,0.0,4.832,4.8359,4.8223,4.8379,4.8613,4.8867,4.8867,4.8965,4.9082,0.0,0.0,0.0,0.0,0.0,0.0,0.0,0.0,0.0,1.9072,1.9839,2.0335,2.0299,1.9487,1.8947,1.9048,0.0,0.0,0.0,0.0,0.0,0.0,0.0,0.0,0.0,2.7276,2.6987,2.6522,2.7332,2.7155,2.6125,2.6634,2.6691,2.6366,2.6904,2.7732,0.0,0.0,0.0,0.0,0.0,0.0,0.0,0.0,0.0,0.0,0.0,0.0,0.0,0.0,0.0,0.0,0.0,0.0,0.0,0.0,0.0,0.0,0.0,3.888,3.9864,4.0773,3.9126,3.7035,3.5965,3.419,0.0,3.2548,3.2425,3.2512,3.2835,3.3742,3.4554,3.4936,3.6354,3.8014,3.9978,4.1322,4.282,4.5195,4.6882,4.7988,4.832,5.0215,5.1426,5.1426,5.1406,5.1387,5.1387,5.0957,5.0723,5.0723,5.0312,5.0117,5.0176,5.0117,5.0117,5.0176,5.0078,4.9844,4.9473,4.8984,4.8555,4.8203,4.8203,4.7988,4.7695,4.8516,4.8594,4.8242,4.8691,4.8867,4.8867,4.8867,4.9121,4.9433,0.0,0.0,0.0,0.0,0.0,0.0,0.0,0.0,0.0,0.0,1.9607,2.047,2.0503,1.979,1.9323,0.0,0.0,0.0,0.0,0.0,0.0,0.0,0.0,0.0,0.0,2.7642,2.7307,2.6956,2.7607,2.767,2.725,2.7651,2.7531,2.6995,2.8232,2.9346,3.0294,0.0,0.0,0.0,0.0,0.0,0.0,0.0,0.0,0.0,2.8931,2.9402,0.0,0.0,0.0,0.0,0.0,0.0,0.0,0.0,3.0457,3.1455,3.2748,0.0,3.5864,3.547,3.4878,3.4329,0.0,3.2941,3.2671,3.3118,3.2934,3.3157,3.4935,3.4944,3.5369,3.7593,3.8576,3.9658,4.1359,4.4437,4.6962,4.8339,4.9787,5.0312,4.9766,5.0762,5.162,5.2008,5.1326,5.1149,5.1514,5.0424,4.9824,4.9824,4.9394,4.9492,5.0176,4.9512,4.9512,5.0176,4.916,4.8808,4.9023,4.8242,4.8008,4.8203,4.8203,4.8144,4.8105,4.8633,4.8594,4.8242,4.8691,4.8867,4.8867,4.8867,4.8926,4.9043,0.0,0.0,0.0,0.0,0.0,0.0,0.0,0.0,0.0,0.0,0.0,0.0,0.0,0.0,0.0,0.0,0.0,0.0,0.0,0.0,0.0,0.0,0.0,0.0,2.8192,2.7961,2.7672,2.743,2.8318,2.8356,2.77,2.8665,2.85,2.7447,2.888,3.0016,3.0804,3.0965,3.0845,0.0,3.0477,0.0,0.0,0.0,0.0,0.0,2.8824,2.9241,0.0,2.9597,2.9718,3.0023,0.0,0.0,0.0,0.0,3.0368,3.1108,3.1731,3.2905,3.3929,3.3366,3.3639,3.3913,3.329,3.33,3.3401,3.3358,3.3356,3.3669,3.4794,3.4861,3.5386,3.737,3.8319,3.9786,4.258,4.5464,4.7848,4.9507,5.006,5.0527,5.0469,5.0879,5.1345,5.1519,5.0953,5.0698,5.0889,5.0071,4.9531,4.9531,4.9101,4.9082,4.957,4.9101,4.9101,4.957,4.8848,4.8535,4.8574,4.8086,4.8071,4.8291,4.8488,4.8867,4.9247,4.9138,4.9315,4.9452,4.911,4.8984,4.916,4.916,4.9297,4.9492,0.0,0.0,0.0,0.0,0.0,0.0,0.0,0.0,0.0,0.0,0.0,0.0,0.0,0.0,0.0,0.0,0.0,0.0,0.0,0.0,0.0,0.0,0.0,2.6993,2.8412,2.821,2.7989,2.7818,2.9057,2.9076,2.7978,2.9576,2.9504,2.8046,2.927,3.018,3.0796,3.1206,3.1162,3.0885,3.0885,0.0,0.0,0.0,0.0,0.0,0.0,0.0,0.0,2.9981,2.9813,2.9638,2.96,0.0,0.0,0.0,0.0,0.0,3.2323,3.3093,3.3532,3.3152,3.3953,3.462,3.4037,3.4288,3.4397,3.3411,3.3743,3.4059,3.4022,3.4585,3.5386,3.6468,3.7709,3.9941,4.4464,4.5898,4.7421,4.9331,4.9688,4.9863,5.0449,5.0625,5.0703,5.0703,5.0312,5.0078,5.0078,4.9668,4.9433,4.9433,4.9062,4.8828,4.875,4.8828,4.8867,4.8867,4.873,4.8476,4.8105,4.7969,4.7973,4.8315,4.8692,4.9511,5.0317,4.9787,5.006,5.0714,4.9346,4.9141,4.9512,4.9453,4.9707,5.0098,0.0,0.0,0.0,0.0,0.0,0.0,0.0,0.0,0.0,0.0,0.0,0.0,0.0,0.0,0.0,0.0,0.0,0.0,0.0,0.0,0.0,0.0,2.6223,2.7244,2.8688,2.8396,2.8164,2.7968,2.9312,2.9622,2.9075,3.0357,3.0393,2.9409,2.9699,3.0142,3.0761,3.145,3.1542,3.1201,3.1346,0.0,0.0,0.0,0.0,0.0,0.0,0.0,0.0,2.9103,2.9228,2.9491,2.9104,0.0,0.0,0.0,0.0,0.0,3.2818,3.4416,3.5358,3.4206,3.4444,3.495,3.4786,3.4481,3.4173,3.4004,3.3964,3.4073,3.4552,3.5849,3.702,3.777,3.9826,4.3148,4.8074,4.7792,4.7691,4.9474,4.9967,4.9844,4.9219,4.9844,5.0273,5.0273,4.9883,4.9629,4.9629,4.9199,4.8965,4.8965,4.8887,4.8672,4.8301,4.8672,4.8867,4.8848,4.8125,4.7734,4.7656,4.6933,4.713,4.8315,4.8375,4.9212,5.0337,4.9787,4.9881,5.0278,4.9228,4.9141,4.9492,4.9101,4.9238,4.9726,0.0,0.0,0.0,0.0,0.0,0.0,0.0,0.0,0.0,0.0,0.0,0.0,0.0,0.0,0.0,0.0,0.0,0.0,0.0,0.0,0.0,2.5752,2.6319,2.7288,2.8761,2.8515,2.8533,2.8785,2.946,2.9799,2.9792,3.0262,3.0275,2.9964,2.9811,2.9875,3.0075,3.042,3.0728,3.0959,0.0,0.0,0.0,0.0,0.0,0.0,0.0,0.0,0.0,0.0,2.9364,2.9582,2.9728,0.0,0.0,0.0,0.0,0.0,3.2937,3.4444,3.5543,3.5087,3.6034,3.6707,3.5755,3.5526,3.5391,3.4944,3.5111,3.5542,3.6418,3.7842,3.9674,4.1591,4.3739,4.5714,4.7523,4.707,4.7127,4.8413,4.8842,4.9141,4.9219,4.959,4.9824,4.9824,4.9414,4.916,4.916,4.8965,4.8867,4.8867,4.8633,4.8418,4.8203,4.8183,4.8164,4.8164,4.8008,4.7676,4.7226,4.7662,4.8137,4.8673,4.9512,5.0459,5.1433,5.0699,5.059,5.0929,4.9767,4.9336,4.9531,4.9551,4.9844,5.0312,0.0,0.0,0.0,0.0,0.0,0.0,0.0,0.0,0.0,0.0,0.0,0.0,0.0,0.0,0.0,0.0,0.0,0.0,0.0,0.0,2.3611,2.6085,2.6449,2.731,2.8761,2.8615,2.8756,2.9283,2.9569,2.9937,3.0357,2.9922,2.9758,2.9841,2.9618,2.9437,2.9248,2.9351,2.9799,3.0385,0.0,0.0,0.0,0.0,0.0,0.0,0.0,0.0,0.0,0.0,0.0,0.0,0.0,0.0,0.0,3.1338,3.1777,3.2262,3.3744,3.4983,3.5899,3.6248,3.7262,3.7966,3.709,3.6928,3.7022,3.6803,3.6955,3.7457,3.8216,4.029,4.2725,4.5526,4.7282,4.8021,4.725,4.6756,4.6935,4.7856,4.8066,4.8516,4.9297,4.9277,4.9258,4.9355,4.9043,4.8867,4.8867,4.8867,4.8867,4.8867,4.8437,4.8164,4.8066,4.7734,4.7578,4.7578,4.7812,4.7558,4.6953,4.8057,4.8772,4.9009,5.0254,5.1429,5.2329,5.1413,5.1307,5.1484,5.0092,4.9375,4.9414,4.9863,5.0293,5.0723,0.0,0.0,0.0,0.0,0.0,0.0,0.0,0.0,0.0,0.0,0.0,0.0,0.0,0.0,0.0,0.0,0.0,0.0,0.0,0.0,2.4436,2.7001,2.6859,2.7368,2.8761,2.8601,2.8658,2.8946,2.9691,3.0352,3.0796,2.9748,2.9079,2.8728,2.8955,2.8834,2.849,2.8938,2.9315,2.9627,2.977,0.0,0.0,0.0,0.0,0.0,0.0,0.0,0.0,0.0,0.0,0.0,0.0,0.0,3.0704,3.1977,3.2694,3.3676,3.6079,3.7203,3.769,3.7703,3.7262,3.7392,3.9282,3.8841,3.8497,4.005,3.988,3.9469,3.9569,4.3078,4.6459,4.8092,4.9262,5.0125,5.0485,4.9141,4.8326,4.8691,4.8437,4.8398,4.8867,4.8535,4.8476,4.8867,4.8867,4.8867,4.8867,4.8867,4.8867,4.8867,4.8437,4.8027,4.7637,4.7598,4.7578,4.7578,4.7207,4.6992,4.6914,4.7109,4.7914,4.8989,4.9582,5.0648,5.1853,5.1289,5.1006,5.1001,5.0006,4.9275,4.8965,4.9414,4.9844,5.0273,0.0,0.0,0.0,0.0,0.0,0.0,0.0,0.0,0.0,0.0,0.0,0.0,0.0,0.0,0.0,0.0,0.0,0.0,0.0,0.0,2.4832,2.6224,2.6884,2.7619,2.8402,2.7969,2.838,2.9656,2.9868,2.9912,2.9781,2.8893,2.8285,2.7922,2.8178,2.8118,2.773,2.7908,2.8219,2.8596,2.8912,2.9025,0.0,0.0,0.0,0.0,0.0,0.0,0.0,0.0,2.9679,2.9673,3.0066,3.0881,3.1864,3.2736,3.341,3.4169,3.5489,3.6526,3.7126,3.7057,3.7342,3.8031,3.9555,3.9796,4.0134,4.1808,4.2503,4.3025,4.4161,4.7159,4.9387,4.9438,5.058,5.106,5.0214,4.8831,4.7969,4.8398,4.8301,4.8164,4.8066,4.791,4.7891,4.8047,4.8301,4.8457,4.8457,4.8457,4.8457,4.8457,4.7773,4.7344,4.7187,4.6914,4.6777,4.6777,4.6875,4.6973,4.6894,4.7539,4.8446,4.9542,5.0183,5.1033,5.1833,5.1534,5.123,5.0965,5.033,4.9452,4.8984,4.9961,5.0254,5.0273,0.0,0.0,0.0,0.0,0.0,0.0,0.0,0.0,0.0,0.0,0.0,0.0,0.0,0.0,0.0,0.0,0.0,0.0,0.0,2.4308,2.541,2.6041,2.708,2.784,2.8281,2.7753,2.823,2.9854,2.9782,2.9536,2.9091,2.8267,2.7902,2.7821,2.7742,2.7502,2.7154,2.7023,2.7198,2.7502,2.7844,2.8227,0.0,0.0,0.0,0.0,0.0,0.0,0.0,0.0,3.0058,3.001,3.0628,3.1696,3.282,3.3438,3.4056,3.4702,3.5517,3.6069,3.6469,3.6577,3.7403,3.8711,4.0619,4.1448,4.2434,4.4618,4.5285,4.5793,4.6936,4.896,5.0156,4.9444,5.0658,5.1217,5.0011,4.8553,4.7856,4.8331,4.8071,4.7754,4.7598,4.7461,4.7441,4.7578,4.7851,4.8066,4.8203,4.8086,4.8066,4.8203,4.7383,4.6933,4.6933,4.6504,4.6308,4.6308,4.6934,4.7089,4.7181,4.8493,4.929,4.9896,5.0736,5.1411,5.1812,5.1594,5.1209,5.0722,5.029,4.9492,4.8965,4.9863,5.0195,5.0254,0.0,0.0,0.0,0.0,0.0,0.0,0.0,0.0,0.0,0.0,0.0,0.0,0.0,0.0,0.0,0.0,0.0,0.0,2.3651,2.5234,2.636,2.6879,2.7458,2.8041,2.8474,2.8053,2.8289,2.9316,2.9437,2.9329,2.9059,2.8002,2.7888,2.8557,2.7673,2.7122,2.6791,2.6521,2.6383,2.6415,2.6624,2.7264,2.8141,0.0,0.0,0.0,0.0,0.0,0.0,0.0,3.1185,3.0628,3.1302,3.2342,3.3466,3.4056,3.4674,3.5508,3.6641,3.648,3.6035,3.6556,3.7494,3.9257,4.2922,4.4242,4.5573,4.8912,4.8392,4.7223,4.7223,4.8004,4.8469,4.7746,4.9475,5.0824,5.0523,4.8727,4.7937,4.8831,4.7721,4.709,4.7519,4.7187,4.7109,4.7539,4.7578,4.7754,4.8164,4.7793,4.7773,4.8183,4.7363,4.6914,4.6914,4.6504,4.6308,4.6308,4.7314,4.7661,4.7854,4.9687,5.0513,5.0425,5.0931,5.1277,5.1771,5.1315,5.0838,5.0337,4.9787,4.9236,4.8867,4.8867,4.9433,5.0176,0.0,0.0,0.0,0.0,0.0,0.0,0.0,0.0,0.0,0.0,0.0,0.0,0.0,0.0,0.0,0.0,0.0,0.0,2.4561,2.6065,2.6906,2.6841,2.7932,2.8433,2.8147,2.8045,2.8288,2.889,2.8786,2.8497,2.8135,2.7504,2.759,2.8219,2.766,2.7668,2.7998,2.6853,2.6878,2.7585,2.7662,2.7867,2.8329,0.0,0.0,0.0,0.0,0.0,0.0,0.0,0.0,0.0,3.1914,3.3269,3.4562,3.4309,3.4983,3.5695,3.526,3.5437,3.5911,3.6472,3.8159,4.0686,4.4141,4.4794,4.5535,4.8846,4.8435,4.762,4.7974,4.8874,4.9537,4.908,5.0003,5.0905,5.0953,4.9845,4.8878,4.8546,4.8073,4.7582,4.6699,4.6562,4.6543,4.668,4.6953,4.7168,4.7305,4.7187,4.7187,4.7305,4.6777,4.6484,4.6484,4.6367,4.6638,4.7314,4.8179,4.8523,4.8199,4.9859,5.0839,5.1281,5.1106,5.1631,5.2312,5.1827,5.1125,5.0377,5.0495,4.9862,4.8965,4.9883,5.0019,4.9844,0.0,0.0,0.0,0.0,0.0,0.0,0.0,0.0,0.0,0.0,0.0,0.0,0.0,0.0,0.0,0.0,0.0,0.0,0.0,0.0,2.686,2.6842,2.759,2.7973,2.7897,2.7914,2.8116,2.845,2.8081,2.7662,2.73,2.7158,2.7438,2.8096,2.7973,2.8115,2.8334,2.7437,2.742,2.7931,2.7931,2.8151,2.8606,0.0,0.0,0.0,0.0,0.0,0.0,0.0,0.0,0.0,3.2642,3.3833,3.4877,3.4192,3.451,3.4974,3.4399,3.4847,3.5712,3.6858,3.9168,4.1973,4.5027,4.6612,4.8182,5.0527,4.9415,4.8205,4.8922,4.9112,4.9133,4.9361,4.9949,5.0609,5.1208,5.0312,4.9279,4.8606,4.8258,4.7634,4.6328,4.6308,4.6308,4.6308,4.6543,4.6758,4.6914,4.6777,4.6758,4.6914,4.6523,4.6308,4.6308,4.6638,4.7161,4.7661,4.9038,4.938,4.923,5.0719,5.1445,5.1722,5.1545,5.1492,5.1715,5.1735,5.1162,5.0297,5.0558,5.0026,4.9315,4.9746,4.9824,4.9629,0.0,0.0,0.0,0.0,0.0,0.0,0.0,0.0,0.0,0.0,0.0,0.0,0.0,0.0,0.0,0.0,0.0,0.0,0.0,0.0,2.6412,2.6915,2.682,2.7063,2.7683,2.7601,2.7709,2.8015,2.7453,2.7038,2.6821,2.706,2.7569,2.8254,2.8495,2.8495,2.8254,2.8122,2.7996,2.7883,2.7818,2.8239,2.8984,2.9374,0.0,0.0,0.0,0.0,0.0,0.0,0.0,0.0,3.326,3.4072,3.4512,3.3751,3.3587,3.3696,3.3938,3.4454,3.5388,3.7706,4.0464,4.3258,4.5784,4.9077,5.1849,5.2612,5.0618,4.8892,4.9751,4.8697,4.7968,4.882,4.9415,5.0096,5.1427,5.0146,4.9147,4.8976,4.8331,4.7488,4.6483,4.6308,4.6308,4.6308,4.6308,4.6465,4.6855,4.6504,4.6484,4.6855,4.6504,4.6308,4.6308,4.7141,4.7661,4.7834,4.9551,5.04,5.0591,5.1911,5.232,5.183,5.1786,5.1376,5.0519,5.14,5.1224,5.0352,5.0237,4.9851,4.9301,4.8973,4.9023,4.9375,0.0,0.0,0.0,0.0,0.0,0.0,0.0,0.0,0.0,0.0,0.0,0.0,0.0,0.0,0.0,0.0,0.0,0.0,0.0,0.0,2.6465,2.7006,2.7211,2.7236,2.6944,2.6708,2.6788,2.7161,2.7538,2.7754,2.782,2.7859,2.8469,2.9502,2.8958,2.9023,2.9436,2.8257,2.8452,2.9416,2.879,2.8984,2.9761,3.0965,3.1643,0.0,0.0,0.0,0.0,0.0,0.0,0.0,3.2777,3.3326,3.3723,3.3251,3.334,3.3526,3.3093,3.4178,3.5994,3.8231,4.2375,4.6342,4.7709,4.8984,4.9571,4.8908,4.9026,4.9245,4.9249,4.9131,4.9235,4.9432,4.9576,4.9947,5.0568,5.0631,5.0036,4.8669,4.864,4.8007,4.6483,4.6308,4.6308,4.6308,4.6308,4.6348,4.6426,4.6348,4.6348,4.6426,4.6348,4.6308,4.6308,4.7141,4.8007,4.8695,4.9891,5.076,5.1477,5.2271,5.232,5.1852,5.2153,5.1744,5.0994,5.1218,5.0746,4.9862,4.9429,4.8773,4.8071,4.8223,4.8203,4.8144,0.0,0.0,0.0,0.0,0.0,0.0,0.0,0.0,0.0,0.0,0.0,0.0,0.0,0.0,0.0,0.0,0.0,0.0,0.0,0.0,0.0,2.6339,2.6827,2.6667,2.5764,2.5868,2.6377,2.7272,2.7906,2.7977,0.0,0.0,2.8928,2.9383,2.9351,2.9545,2.987,2.9049,2.9178,2.987,2.9513,2.9578,3.0032,3.1089,3.1704,3.2063,3.2577,0.0,0.0,0.0,0.0,0.0,0.0,0.0,3.3334,3.2858,3.2636,3.2608,3.2536,3.411,3.6718,4.0631,4.3986,4.6537,4.7581,4.7927,4.7938,4.7498,4.8388,4.9279,4.9257,4.9454,4.9628,4.9628,5.0285,5.101,5.1255,5.1522,5.1189,4.9646,4.907,4.8196,4.6862,4.6346,4.6308,4.6308,4.6308,4.6308,4.6308,4.6308,4.6308,4.6308,4.6308,4.6464,4.6987,4.7834,4.8867,4.9721,5.0569,5.1287,5.1813,5.2053,5.1993,5.1846,5.2085,5.1701,5.1167,5.1294,5.0791,4.9764,4.944,4.8951,4.8252,4.8091,4.7891,4.7949,0.0,0.0,0.0,0.0,0.0,0.0,0.0,0.0,0.0,0.0,0.0,0.0,0.0,0.0,0.0,0.0,0.0,0.0,0.0,0.0,0.0,0.0,2.624,2.6066,2.4754,2.51,2.6134,2.7736,2.8262,0.0,0.0,0.0,0.0,2.8984,2.9686,2.9989,2.9989,2.9989,2.9989,2.9989,3.0032,3.0053,3.015,3.0992,3.1625,3.2144,3.2323,3.2646,3.2928,3.2765,0.0,0.0,0.0,0.0,3.3129,3.2632,3.2036,3.1796,3.2342,3.4476,3.7808,4.31,4.4908,4.5552,4.6398,4.6645,4.6723,4.7138,4.8187,4.9126,4.9454,4.9563,4.9606,4.9817,5.0858,5.1855,5.2013,5.2172,5.1673,5.0512,4.9411,4.8107,4.6796,4.659,4.6327,4.6094,4.6211,4.6269,4.6191,4.6269,4.6269,4.6191,4.6191,4.6674,4.744,4.836,4.9383,5.0166,5.1028,5.1594,5.1682,5.1682,5.1725,5.1791,5.1791,5.1623,5.1309,5.1528,5.0825,4.9638,4.9507,4.9167,4.8393,4.7679,4.7578,4.7832,0.0,0.0,0.0,0.0,0.0,0.0,0.0,0.0,0.0,0.0,0.0,0.0,0.0,0.0,0.0,0.0,0.0,0.0,0.0,0.0,0.0,2.556,2.616,2.5921,2.473,2.4594,2.565,2.794,0.0,0.0,0.0,0.0,0.0,2.9772,0.0,3.0267,3.0267,3.0267,3.0267,3.029,3.0595,3.0797,3.0927,3.2287,3.2692,0.0,0.0,3.2509,3.1655,3.1989,3.1893,0.0,0.0,0.0,3.2988,3.2704,3.2481,3.2323,3.2356,3.5774,4.0102,4.2634,4.441,4.5326,4.5165,4.5577,4.6111,4.6177,4.7968,4.9432,4.906,4.9344,4.9795,5.0434,5.0362,5.0574,5.1641,5.1792,5.101,4.8985,4.9328,4.8747,4.6037,4.6466,4.6444,4.5215,4.5879,4.6152,4.5781,4.6113,4.6133,4.5781,4.5762,4.6082,4.6534,4.7766,4.8777,4.9209,5.0033,5.0742,5.1179,5.1179,5.1398,5.1791,5.1791,5.1791,5.1623,5.1352,5.0337,4.9142,4.8687,4.7708,4.6738,4.6504,4.6504,4.6601,0.0,0.0,0.0,0.0,0.0,0.0,0.0,0.0,0.0,0.0,0.0,0.0,0.0,0.0,0.0,0.0,0.0,0.0,0.0,0.0,0.0,2.6414,2.6884,2.6461,2.4836,2.5415,2.6694,2.8605,0.0,0.0,0.0,3.1725,3.1495,0.0,0.0,0.0,0.0,3.0336,3.014,3.0333,3.0738,3.07,3.0474,0.0,0.0,0.0,0.0,0.0,3.2257,3.2375,3.2378,3.24,3.3207,0.0,0.0,0.0,3.2681,3.2425,3.4063,3.6973,4.0027,4.1785,4.2997,4.3764,4.3822,4.4442,4.5165,4.6691,4.811,4.9006,4.9495,4.9964,5.0524,5.167,5.1816,5.2088,5.2708,5.2421,5.1615,5.0122,4.9538,4.8525,4.6758,4.6389,4.6245,4.6206,4.5851,4.5605,4.5683,4.5625,4.5508,4.5312,4.5312,4.5896,4.7025,4.7712,4.8546,4.9674,5.0164,5.0762,5.1796,5.2064,5.1972,5.1791,5.1791,5.1791,5.1791,5.1623,5.0591,4.9038,4.8867,4.7822,4.666,4.666,4.666,4.668,0.0,0.0,0.0,0.0,0.0,0.0,0.0,0.0,0.0,0.0,0.0,0.0,0.0,0.0,0.0,0.0,0.0,0.0,0.0,0.0,0.0,2.7045,2.752,2.6929,2.4951,2.604,2.737,0.0,0.0,0.0,3.2218,3.2818,3.2905,0.0,3.17,3.1459,0.0,0.0,0.0,0.0,3.0892,3.0648,0.0,0.0,0.0,0.0,0.0,0.0,3.2659,3.2792,3.2864,3.2942,3.3686,3.3646,0.0,0.0,0.0,3.2452,3.4873,3.7006,3.9045,4.0367,4.1609,4.248,4.289,4.3601,4.4648,4.6826,4.7912,4.8667,4.9996,5.0536,5.1148,5.2632,5.3029,5.34,5.3838,5.2961,5.1947,5.076,4.9397,4.8079,4.7209,4.6492,4.6122,4.6474,4.5758,4.5287,4.5332,4.5137,4.498,4.4863,4.5033,4.5797,4.7341,4.7836,4.872,5.0131,5.0021,5.0506,5.1603,5.2397,5.2428,5.1616,5.2059,5.2125,5.1791,5.1791,5.076,4.938,4.9038,4.8209,4.7111,4.6758,4.6777,4.6777,0.0,0.0,0.0,0.0,0.0,0.0,0.0,0.0,0.0,0.0,0.0,0.0,0.0,0.0,2.647,2.7304,0.0,0.0,0.0,0.0,0.0,2.7083,2.7577,0.0,2.4951,2.5708,0.0,0.0,0.0,0.0,3.2286,3.2497,3.3074,3.3939,3.2878,3.2438,3.2418,0.0,0.0,0.0,0.0,0.0,0.0,0.0,0.0,0.0,0.0,3.2413,3.1892,3.2608,3.2801,3.2844,3.3618,3.4088,3.4196,0.0,0.0,0.0,3.3367,3.5366,3.7445,3.8215,4.0512,4.2514,4.2508,4.3589,4.4883,4.6177,4.7071,4.838,5.0717,5.1007,5.142,5.3276,5.2599,5.2543,5.4252,5.2675,5.0861,4.9675,4.8983,4.7871,4.6407,4.6966,4.6691,4.527,4.5724,4.5688,4.4492,4.4824,4.4844,4.4433,4.5231,4.5838,4.6389,4.7997,4.9054,4.965,4.9191,4.9213,4.9832,5.158,5.1913,5.1301,5.2876,5.2913,5.1791,5.1791,5.1265,5.0231,4.938,4.8372,4.7528,4.6678,4.6328,4.6503,0.0,0.0,0.0,0.0,0.0,0.0,0.0,0.0,0.0,0.0,0.0,0.0,0.0,2.6205,2.6546,2.7418,2.7494,0.0,0.0,0.0,0.0,2.7189,2.81,2.7809,2.603,2.7729,0.0,0.0,0.0,3.0759,3.3059,3.2793,3.3129,3.4068,3.3242,3.3008,3.3096,3.2315,0.0,0.0,0.0,0.0,0.0,0.0,0.0,3.1924,3.2881,3.3059,3.2901,3.3634,3.3832,3.3854,3.4138,3.4293,3.4264,3.3618,3.3467,3.3584,3.3866,3.4879,3.5966,3.6502,3.8243,3.9768,3.9776,4.1485,4.3631,4.5462,4.6645,4.8101,5.0295,5.0798,5.1752,5.3829,5.3346,5.27,5.3482,5.2182,5.0644,4.9157,4.8407,4.7611,4.6637,4.6391,4.6194,4.6149,4.5373,4.4982,4.4773,4.4434,4.4434,4.4773,4.5082,4.5821,4.7111,4.8251,4.8995,4.917,4.8995,5.0075,5.212,5.3075,5.3925,5.4756,5.5753,5.4998,5.2913,5.2125,5.1769,5.1368,4.97,4.8523,4.7701,4.6953,4.6874,4.7394,0.0,0.0,0.0,0.0,0.0,0.0,0.0,0.0,0.0,0.0,0.0,0.0,0.0,0.0,2.6887,2.7456,2.7494,2.7949,2.9033,2.8416,2.7749,2.7203,2.8217,2.8233,2.7043,0.0,0.0,0.0,0.0,0.0,0.0,3.2958,3.3161,3.4068,3.3615,3.3535,0.0,0.0,0.0,3.2714,0.0,0.0,3.2077,0.0,3.3074,3.2532,3.3441,3.3602,3.3454,3.3802,3.4125,3.4243,0.0,0.0,0.0,0.0,3.3706,3.4208,3.4018,3.4562,3.5481,3.6173,3.7122,3.8074,3.9128,4.0511,4.2327,4.4695,4.5994,4.728,4.921,4.981,5.0801,5.3318,5.298,5.2452,5.2628,5.1215,4.9671,4.8474,4.747,4.6757,4.6221,4.5944,4.5834,4.6145,4.4927,4.444,4.4866,4.4096,4.4259,4.5369,4.5369,4.617,4.7619,4.8715,4.9273,4.9273,4.9897,5.1213,5.3235,5.4229,5.5219,5.5938,5.7109,5.631,5.4207,5.2913,5.2581,5.2514,5.004,4.8949,4.8942,4.7874,4.8049,4.9076,0.0,0.0,0.0,0.0,0.0,0.0,0.0,0.0,0.0,0.0,0.0,0.0,0.0,0.0,0.0,2.757,2.757,2.757,2.757,2.7398,2.7261,2.7261,0.0,0.0,0.0,0.0,0.0,0.0,0.0,0.0,0.0,0.0,3.3107,3.4101,3.4101,3.4101,3.4036,0.0,3.3353,3.3145,0.0,3.2657,3.2844,3.3684,3.3886,3.379,3.4271,3.402,3.3416,3.3296,3.3594,3.3944,0.0,0.0,0.0,0.0,0.0,0.0,0.0,0.0,0.0,3.7053,3.7217,3.7738,4.0505,4.0802,4.1229,4.3915,4.497,4.5924,4.7531,4.7857,4.8761,5.1523,5.1548,5.1423,5.1975,4.9624,4.791,4.7886,4.6397,4.5303,4.5303,4.5696,4.5661,4.4741,4.4426,4.4422,4.4877,4.4152,4.4488,4.623,4.623,4.6695,4.7488,4.9135,4.9995,5.0017,5.1698,5.2541,5.2764,5.5009,5.5337,5.4343,5.6625,5.6949,5.5691,5.437,5.3715,5.3528,5.0379,5.0165,5.1595,4.9374,4.9641,5.1498,0.0,0.0,0.0,0.0,0.0,0.0,0.0,0.0,0.0,0.0,0.0,0.0,0.0,0.0,2.926,2.926,2.926,2.926,2.926,2.9146,2.9059,2.8988,2.9605,0.0,0.0,0.0,0.0,0.0,0.0,0.0,0.0,0.0,0.0,0.0,3.4101,3.4101,3.4068,3.3973,0.0,3.4586,3.4493,3.4374,3.4258,3.4642,3.4445,3.4117,3.5115,3.5404,3.537,3.6022,3.5866,3.5355,3.4718,0.0,0.0,0.0,0.0,0.0,3.5024,0.0,0.0,0.0,0.0,0.0,3.6427,3.799,3.9647,4.0827,4.2459,4.4192,4.5849,4.6476,4.7255,4.8812,4.9615,5.0268,5.0795,4.9842,4.8619,4.7416,4.6584,4.5622,4.4946,4.491,4.483,4.4684,4.4231,4.41,4.4226,4.4726,4.5405,4.6209,4.685,4.7334,4.7488,4.8799,4.9655,4.9995,5.1327,5.2854,5.4527,5.5121,5.6162,5.7383,5.8166,5.8359,5.8237,5.599,5.5668,5.6126,5.3176,5.2491,5.3078,5.106,5.1033,5.2259,0.0,0.0,0.0,0.0,0.0,0.0,0.0,0.0,0.0,0.0,0.0,0.0,0.0,0.0,0.0,2.9207,2.932,2.9396,2.9396,2.9633,2.9923,3.019,3.0542,3.0852,0.0,0.0,0.0,0.0,0.0,0.0,0.0,0.0,0.0,0.0,0.0,0.0,0.0,0.0,0.0,3.4813,3.5326,3.5403,3.5305,3.5478,3.5493,3.5469,3.6028,3.6238,3.6281,3.6593,3.6447,3.5996,3.5536,0.0,0.0,0.0,0.0,0.0,0.0,0.0,0.0,3.5478,0.0,0.0,3.5663,3.6659,3.7839,3.9094,4.0551,4.2057,4.3489,4.4392,4.5347,4.6677,4.7456,4.8234,4.9238,4.8731,4.7859,4.6884,4.6234,4.546,4.4369,4.4967,4.4961,4.4135,4.412,4.4031,4.3826,4.4827,4.5427,4.5513,4.6182,4.6633,4.701,4.876,5.0109,5.0857,5.2469,5.4032,5.5633,5.5854,5.6748,5.8403,5.8629,5.9006,5.9328,5.7922,5.7424,5.7266,5.4627,5.4101,5.4758,5.3049,5.3339,5.4454,0.0,0.0,0.0,0.0,0.0,0.0,0.0,0.0,0.0,0.0,0.0,0.0,0.0,0.0,0.0,0.0,2.8903,2.9055,2.9077,2.9708,3.0413,3.1109,3.1104,3.1374,3.2001,0.0,0.0,0.0,0.0,0.0,0.0,0.0,0.0,0.0,0.0,0.0,0.0,0.0,0.0,3.4201,3.5467,3.5969,3.6048,3.6075,3.6523,3.7061,3.6803,3.6704,3.6662,3.6173,3.6071,3.6187,3.6273,3.6244,3.6101,3.5402,3.5602,0.0,0.0,0.0,0.0,0.0,3.5606,0.0,3.637,3.6107,3.6107,3.809,3.9044,3.9848,4.0953,4.2057,4.3288,4.4794,4.5171,4.5899,4.7581,4.6932,4.6299,4.6172,4.5834,4.5093,4.4073,4.5314,4.548,4.3565,4.3963,4.4145,4.381,4.4786,4.5332,4.5036,4.5477,4.5934,4.6393,4.8868,5.0747,5.1892,5.4091,5.5516,5.6143,5.6696,5.7248,5.7826,5.8403,5.893,5.9408,5.9483,5.8862,5.7582,5.5597,5.5579,5.6508,5.5267,5.5608,5.6649,0.0,0.0,0.0,0.0,0.0,0.0,0.0,0.0,0.0,0.0,0.0,0.0,0.0,0.0,0.0,0.0,3.1269,3.1197,3.1562,3.1732,3.2089,3.2708,3.2723,3.2962,3.3474,3.3607,0.0,0.0,0.0,0.0,0.0,0.0,0.0,0.0,0.0,0.0,0.0,0.0,3.4682,3.4302,3.5131,3.5775,3.6292,3.63,3.6357,3.6553,3.7097,3.7463,3.7572,3.7126,3.7026,3.6939,3.6489,3.5956,3.5605,3.5939,3.5787,0.0,0.0,0.0,0.0,3.5243,3.4978,0.0,3.4022,3.4751,3.568,3.6107,3.7337,3.8693,3.9798,4.0927,4.1756,4.2108,4.3263,4.4869,4.6979,4.7034,4.6662,4.5764,4.5972,4.5773,4.4603,4.5178,4.5318,4.4526,4.4164,4.4528,4.569,4.5912,4.6484,4.7097,4.7723,4.7746,4.7516,4.8911,5.0205,5.1357,5.3147,5.4561,5.5566,5.6118,5.6671,5.7223,5.7801,5.8378,5.8905,5.9332,5.9328,5.9018,5.7873,5.7493,5.7448,5.6468,5.6122,5.6233,0.0,0.0,0.0,0.0,0.0,0.0,0.0,0.0,0.0,0.0,0.0,0.0,0.0,0.0,0.0,0.0,0.0,0.0,0.0,3.3081,3.3321,3.3724,3.356,3.3548,3.3753,3.3606,3.3531,0.0,0.0,0.0,0.0,0.0,0.0,0.0,0.0,0.0,0.0,0.0,3.4754,3.4842,3.5365,3.5829,3.6154,3.5663,3.595,3.6591,3.6806,3.7325,3.8023,3.7779,3.7767,3.7606,3.6991,3.6607,3.6287,3.5953,3.5644,3.5489,3.5789,3.5521,3.5114,3.4786,3.4842,0.0,0.0,3.4751,3.5629,3.5906,3.6609,3.7437,3.8291,3.912,3.9948,4.0802,4.163,4.266,4.4041,4.5196,4.5635,4.513,4.5502,4.555,4.4816,4.57,4.6142,4.5477,4.4804,4.4781,4.5826,4.5936,4.6331,4.7134,4.7651,4.7813,4.7838,4.8908,5.0269,5.1679,5.2779,5.4034,5.539,5.5666,5.6244,5.7072,5.765,5.8202,5.8755,5.9282,5.9483,5.9328,5.8525,5.7923,5.7605,5.6817,5.6322,5.6029,0.0,0.0,0.0,0.0,0.0,0.0,0.0,0.0,0.0,0.0,0.0,0.0,0.0,0.0,0.0,0.0,0.0,0.0,0.0,3.3994,3.4068,3.4154,3.3839,3.3671,3.3749,3.3544,3.3728,0.0,0.0,0.0,0.0,0.0,0.0,0.0,0.0,0.0,0.0,0.0,3.4628,3.5154,3.5453,3.5836,3.5996,3.5295,3.5739,3.6802,3.6552,3.7225,3.8231,3.8347,3.8318,3.8127,3.7519,3.7211,3.69,3.571,3.5304,3.5223,3.5223,3.4974,3.4695,3.4507,3.4743,3.4981,0.0,0.0,0.0,3.6225,3.6377,3.6578,3.6935,3.7487,3.8266,3.9521,3.9998,4.0325,4.0651,4.2409,4.379,4.4116,4.4644,4.4892,4.467,4.5892,4.6512,4.6162,4.527,4.4971,4.5657,4.5704,4.6191,4.686,4.7274,4.7882,4.824,4.912,5.0259,5.1774,5.2352,5.3406,5.4913,5.5139,5.5767,5.6746,5.7449,5.8052,5.8604,5.9131,5.9408,5.9483,5.8706,5.8008,5.7461,5.6838,5.6185,5.5839,2.6576,2.5384,0.0,0.0,0.0,0.0,0.0,0.0,0.0,0.0,0.0,0.0,0.0,0.0,0.0,0.0,0.0,3.4507,3.424,3.4246,0.0,3.3698,3.3643,3.3829,3.4315,3.4285,3.4458,3.4871,0.0,0.0,0.0,0.0,0.0,0.0,3.4883,0.0,0.0,0.0,3.475,3.4442,3.4872,3.557,3.632,3.6403,3.651,3.6664,3.7388,3.789,3.8289,3.8899,3.8696,3.8127,3.7519,3.6872,3.6322,3.5629,3.4977,3.4481,3.4481,3.4536,3.4452,3.3938,3.4641,3.5219,3.449,0.0,3.6413,3.6075,0.0,3.664,3.6528,0.0,0.0,3.6885,3.809,3.8894,3.8442,3.9471,4.0802,4.2258,4.2911,4.3664,4.4461,4.4753,4.5028,4.5604,4.5086,4.5134,4.6213,4.6675,4.7482,4.848,4.9003,4.9382,4.9461,4.9586,4.9937,5.0619,5.1197,5.2076,5.3231,5.421,5.4988,5.5641,5.6671,5.7449,5.8027,5.8579,5.9081,5.9508,5.9328,5.8418,5.7069,5.6909,5.63,5.5311,2.6481,2.5695,0.0,0.0,0.0,0.0,0.0,0.0,0.0,0.0,0.0,0.0,0.0,3.5628,0.0,0.0,3.6076,3.6113,3.5218,3.5266,0.0,3.4462,3.4521,3.4627,3.4888,3.4888,3.5182,3.583,3.615,0.0,0.0,0.0,0.0,0.0,3.5446,0.0,3.5294,3.5229,3.5309,3.5538,3.6065,3.6641,3.6963,3.5386,3.53,3.6147,3.7461,3.8289,3.8812,3.9102,3.9015,3.846,3.7175,3.6463,3.6035,3.5057,3.4647,3.4397,3.4397,3.4562,3.4719,3.4289,3.5341,3.6294,3.539,3.6345,3.7253,3.6667,0.0,0.0,0.0,0.0,0.0,0.0,3.7437,3.7814,3.7563,3.8216,3.922,4.0576,4.1204,4.2108,4.3539,4.3966,4.4392,4.4945,4.4699,4.5122,4.6276,4.6885,4.7582,4.8761,4.9314,4.959,4.959,4.959,4.9866,5.0419,5.067,5.1523,5.2955,5.3406,5.426,5.544,5.6219,5.6872,5.7474,5.8353,5.8855,5.9081,5.9382,5.8706,5.7582,5.6654,5.5994,5.5556,2.6402,0.0,0.0,0.0,0.0,0.0,0.0,0.0,0.0,0.0,3.5325,3.722,3.9624,3.775,3.6836,3.8238,3.8717,3.8149,3.6397,3.6374,3.6036,3.5162,3.5172,3.5293,3.5543,3.5543,3.5935,3.672,3.6684,0.0,0.0,0.0,0.0,0.0,0.0,3.5646,3.5817,3.5278,3.5446,3.6064,3.6373,3.6589,3.6447,3.4694,3.4817,3.6031,3.7174,3.811,3.8957,3.89,3.8818,3.8319,3.6598,3.6062,3.5758,3.4669,3.4528,3.4633,3.4633,3.5011,3.527,3.5028,3.6199,3.7236,3.6529,3.739,3.8152,3.7561,3.7245,0.0,0.0,0.0,3.6578,3.7172,0.0,3.7056,3.7248,3.7383,3.7965,3.9094,3.9998,4.0927,4.1982,4.271,4.3288,4.3689,4.3991,4.4593,4.5573,4.6451,4.7405,4.851,4.9088,4.9311,4.9332,4.9332,4.9506,4.9906,4.9906,5.0863,5.2477,5.2628,5.3607,5.5189,5.5742,5.6394,5.7097,5.7926,5.8353,5.8529,5.8905,5.8823,5.8196,5.69,5.6334,5.6037,2.6381,2.5868,0.0,0.0,0.0,0.0,0.0,3.3809,3.7182,4.3587,4.1692,3.9775,3.9889,3.9775,4.1063,4.4335,4.3098,4.0864,3.7757,3.7542,3.6827,3.5257,3.5186,3.5578,3.6328,3.6363,3.6756,3.7541,3.7431,3.7319,0.0,0.0,0.0,0.0,3.5837,3.542,3.5308,3.4633,3.4633,3.5107,3.4711,3.4463,3.4286,3.5197,3.6001,3.6536,3.6661,3.7326,3.8243,3.8204,3.7799,3.7113,3.5817,3.5413,3.5249,3.4564,3.4816,3.526,3.526,3.5895,3.6418,3.5875,3.6882,3.7895,3.7557,3.8334,3.9006,3.8437,3.8144,3.768,3.681,3.6546,3.664,0.0,3.6854,0.0,0.0,3.6854,3.6835,3.7939,3.9521,4.0325,3.9848,4.0777,4.143,4.143,4.2434,4.3288,4.384,4.5447,4.6828,4.7908,4.8485,4.8782,4.8502,4.8502,4.8526,4.8526,4.8526,4.9537,5.1348,5.19,5.303,5.4637,5.5164,5.6018,5.7022,5.7072,5.7424,5.7926,5.7951,5.8278,5.8652,5.8196,5.7582,5.7045,0.0,0.0,0.0,0.0,0.0,3.1784,3.3772,3.5476,3.775,4.1162,4.0571,3.9889,3.9889,4.0844,4.2776,4.5988,4.575,4.3179,3.7933,3.8255,3.8076,3.6827,3.7791,3.8219,3.8005,3.8469,3.8861,3.9111,3.827,3.8073,0.0,0.0,0.0,0.0,0.0,3.5966,3.6014,3.5584,3.5595,3.5941,3.6413,3.6142,3.5546,3.5737,3.5896,3.6031,3.6416,3.731,3.8147,3.7714,3.7453,3.6989,3.5818,3.5352,3.5173,3.4585,3.4816,3.5286,3.5286,3.6035,3.6753,3.6392,3.7442,3.8298,3.7635,3.848,3.9146,3.7997,3.7912,3.7705,3.6836,3.6896,0.0,0.0,0.0,0.0,0.0,3.6922,3.6634,3.7387,3.7965,3.8391,3.8567,3.9597,4.04,4.0752,4.1806,4.2836,4.374,4.5045,4.6426,4.7857,4.846,4.8757,4.8502,4.8502,4.8264,4.787,4.824,4.9224,5.0578,5.0481,5.1304,5.2853,5.3394,5.4058,5.4942,5.6425,5.7148,5.7374,5.775,5.8227,5.8577,5.7932,5.7761,5.7935,2.7954,0.0,0.0,0.0,3.1945,3.4353,3.5647,3.8925,4.084,3.9602,4.2172,4.4077,4.4077,4.4986,4.5998,4.6926,4.6998,4.5285,4.1181,4.0538,3.9718,3.8469,3.8826,3.9111,3.9218,3.986,4.0143,4.0103,3.8994,3.8601,0.0,0.0,0.0,0.0,0.0,3.6167,3.5913,3.5585,3.5642,3.6071,3.7035,3.6809,3.5897,3.5845,3.5737,3.5736,3.6007,3.6713,3.7461,3.6849,3.6633,3.6381,3.5381,3.4993,3.4946,3.4763,3.5129,3.5626,3.5835,3.6593,3.7325,3.7144,3.7912,3.8512,3.8054,3.8825,3.9337,3.837,3.8262,3.8152,3.7557,3.773,0.0,0.0,0.0,0.0,0.0,3.6922,3.6483,3.6835,3.7061,3.7487,3.8241,3.8793,3.9421,4.0174,4.1053,4.2057,4.3162,4.4669,4.615,4.7581,4.8308,4.854,4.8401,4.8137,4.7871,4.7361,4.7967,4.8596,4.9315,4.9315,4.989,5.1153,5.2114,5.3059,5.3815,5.5904,5.6746,5.6771,5.7148,5.775,5.8301,5.7992,5.8483,5.9267,2.9944,3.131,3.1946,3.0878,3.4344,3.7347,3.7527,4.3504,4.5956,4.0093,4.6542,5.1708,5.1708,5.1708,5.0495,4.7497,4.7069,4.6998,4.6998,4.4036,4.168,4.0324,3.8683,3.8433,3.9753,4.0392,4.0669,4.0547,3.9491,3.8868,3.8639,0.0,0.0,0.0,3.6773,0.0,3.5044,3.4631,3.4765,3.5543,3.6578,3.6377,3.5521,3.5413,3.5653,3.5915,3.5328,3.5575,3.6136,3.5548,3.5304,3.5223,3.4564,3.4424,3.4554,3.5129,3.5704,3.6279,3.6854,3.7456,3.79,3.79,3.8292,3.8684,3.8684,3.9128,3.9485,3.9323,3.9217,3.9057,3.8926,3.8702,3.8604,0.0,0.0,0.0,3.7546,3.6922,3.6452,3.6502,3.693,3.7563,3.8642,3.8291,3.8442,3.9521,4.0199,4.1028,4.2108,4.4242,4.5949,4.7054,4.7922,4.8353,4.8171,4.7566,4.7181,4.7181,4.7361,4.7676,4.7909,4.8584,4.9157,4.9818,5.1344,5.2742,5.3741,5.548,5.6194,5.6219,5.6219,5.6897,5.7976,5.8579,5.9809,6.119,3.1888,3.2827,3.3697,3.4596,3.53,3.6282,3.8058,4.1809,4.5399,4.8003,5.0319,5.1708,5.1708,5.1708,5.1351,5.0566,4.8354,4.6998,4.6998,4.4036,4.3144,4.5071,4.2537,4.0182,3.8219,4.001,4.0981,4.1104,3.9525,3.9016,3.9427,0.0,0.0,0.0,0.0,3.5657,3.5073,3.4824,3.5138,3.5986,3.6669,3.7023,3.6796,3.571,3.6008,3.6661,3.5024,3.4895,3.5548,3.4895,3.4647,3.4647,3.4481,3.4711,3.5103,3.526,3.5992,3.6802,3.6959,3.7456,3.79,3.79,3.8004,3.8109,3.8109,3.8527,3.8856,3.8556,3.8859,3.8965,3.8629,3.897,3.936,0.0,0.0,0.0,3.7546,3.6922,3.6792,3.7672,3.7115,3.6684,3.6985,3.7613,3.8115,3.8417,4.0099,4.143,4.2108,4.3865,4.5372,4.6476,4.7354,4.7597,4.7112,4.7211,4.7181,4.7181,4.7877,4.8826,5.0133,4.9996,5.0295,5.0813,5.1604,5.2354,5.3156,5.4907,5.5842,5.6219,5.6219,5.6897,5.8052,5.9408,6.0437,6.124,3.358,3.5012,3.5789,3.5275,3.689,3.8034,3.7447,4.0591,4.3604,4.5301,4.9139,5.1708,5.1708,5.1708,5.1708,5.1708,5.0066,4.9032,4.9032,4.6105,4.5142,4.6926,4.5285,4.2858,3.9718,4.0912,4.1094,4.0002,3.953,3.9463,3.9765,0.0,0.0,0.0,0.0,3.5514,3.5242,3.5439,3.5804,3.6439,3.6831,3.7046,0.0,3.6168,3.625,3.6577,3.5493,3.5359,3.5763,3.5359,3.5196,3.5196,3.5196,3.5707,3.6243,3.6485,3.6977,3.751,3.7748,3.7885,3.79,3.79,3.79,3.79,3.79,3.8385,3.8792,3.8719,3.9177,3.9555,3.9469,3.9793,4.0055,4.0055,3.8932,3.805,3.7952,3.7083,3.6836,3.7987,3.7542,3.7243,3.7612,3.7972,3.8329,3.8812,4.0491,4.1524,4.1781,4.3589,4.502,4.5924,4.7478,4.8167,4.7797,4.8164,4.8415,4.8415,4.8643,4.9242,4.9907,5.0044,5.018,5.0506,5.1362,5.2063,5.2937,5.4459,5.5365,5.5942,5.6922,5.77,5.8478,6.0362,6.1115,6.1266,3.5186,3.7489,3.835,3.5681,3.9482,4.1765,3.8328,4.0817,4.1933,3.865,4.607,5.1708,5.1708,5.1708,5.1708,5.1708,5.1708,5.1479,5.0815,4.8402,4.6998,4.6998,4.6998,4.5499,4.2358,4.2246,4.0967,3.8408,3.9348,0.0,0.0,0.0,0.0,0.0,0.0,0.0,3.5444,3.6139,3.6532,3.6664,3.6908,3.685,3.6536,3.6665,3.6508,3.627,3.6401,3.6373,3.6322,3.6405,3.6377,3.6322,3.6405,3.6792,3.7344,3.7841,3.8027,3.8162,3.8639,3.8326,3.7808,3.7874,3.7939,3.7978,3.7965,3.8575,3.9087,3.938,3.9881,4.0402,4.0688,4.0688,4.0688,4.0688,3.8978,3.7963,3.8549,3.7371,3.6861,3.7938,3.8018,0.0,3.9454,3.8951,3.9007,3.9881,4.0948,4.1595,4.1518,4.3363,4.4794,4.5347,4.7824,4.9239,4.9239,4.9713,5.0041,5.009,4.978,4.9425,4.9253,4.9801,5.0035,5.0056,5.1071,5.2079,5.3057,5.411,5.4988,5.5817,5.7901,5.8755,5.9081,6.114,6.1642,6.1366,3.6613,3.9582,4.188,4.2593,4.4621,4.6793,4.8626,4.6266,4.362,4.1757,4.7426,5.1708,5.1708,5.1708,5.1708,5.1708,5.1708,5.0028,4.6083,4.6583,4.6998,4.6998,4.6998,4.5499,4.2358,4.1909,4.0625,3.8408,3.86,3.8821,0.0,0.0,0.0,0.0,0.0,0.0,3.5444,3.6139,3.6457,3.6514,3.6803,3.7056,3.7084,3.6822,3.7056,3.7548,3.7211,3.6794,3.6377,3.6902,3.6736,3.6405,3.693,3.7151,3.7261,3.7372,3.7648,3.8084,3.8108,3.7745,3.7377,3.7756,3.7986,3.8167,3.8622,3.9264,3.9908,4.0055,4.0229,4.0402,4.0688,4.0688,4.0688,4.0688,3.9332,3.8575,3.9188,3.7964,3.7667,3.937,3.8626,3.8804,4.1096,4.035,3.9918,4.0428,4.0749,4.1389,4.2211,4.3321,4.4192,4.4744,4.7255,4.8674,4.8649,4.9519,5.0374,5.1485,5.0985,5.1234,5.2216,5.2216,5.2316,5.2352,5.2491,5.3253,5.4277,5.4561,5.544,5.6872,5.8202,5.8981,5.9508,6.0839,6.1542,6.1943,4.2002,4.1038,4.061,4.3001,4.4036,4.6177,5.0959,4.9745,4.8032,4.7247,4.9817,5.1708,5.1708,5.1708,5.1315,5.0418,5.0307,4.9343,4.7014,4.6981,4.6998,4.6998,4.6998,4.6284,4.4749,4.1881,3.9901,3.8876,3.8576,3.8464,0.0,0.0,0.0,3.7121,0.0,3.6615,3.6716,3.6917,3.7092,3.7168,3.7021,3.7056,3.7134,3.7134,3.7394,3.7777,3.7749,3.7596,3.7289,3.7707,3.7593,3.7317,3.7707,3.8019,3.8353,3.8303,3.8488,3.8615,3.8139,3.7605,3.7117,3.74,3.7758,3.8209,3.8774,3.9706,4.0488,4.0315,4.0574,4.0859,4.0688,4.0688,4.0688,4.0688,3.9414,3.8709,3.9348,3.8402,3.842,4.0455,4.048,4.0932,4.2651,4.2564,4.1903,4.0775,4.1261,4.1698,4.1919,4.3108,4.4066,4.4593,4.7483,4.8923,4.8625,5.0023,5.1111,5.193,5.1383,5.1829,5.2929,5.2929,5.308,5.3306,5.3442,5.3948,5.487,5.5761,5.6471,5.7359,5.9084,6.0202,6.0967,6.1666,6.2904,6.408,4.6177,4.3108,4.061,4.2323,4.3179,4.4999,4.9067,5.0852,5.1708,5.1708,5.1708,5.1521,5.1175,5.1123,5.0585,4.9107,4.9018,4.8748,4.8105,4.7073,4.6495,4.6495,4.6824,4.6778,4.6315,4.2257,3.9885,3.9288,3.8688,3.8408,3.8408,3.7178,3.6969,3.7755,3.7744,3.7765,3.7709,3.7641,3.7672,3.7749,3.7211,3.6978,3.7056,3.7471,3.7625,3.7625,3.8052,3.8202,3.8202,3.8202,3.8202,3.8231,3.8452,3.8818,3.9291,3.9062,3.9102,3.9031,3.828,3.751,3.6972,3.7307,3.7792,3.8282,3.9027,4.0204,4.1057,4.0491,4.0859,4.1142,4.0773,4.0688,4.0688,4.0688,3.9414,3.8762,3.96,3.8867,3.9102,4.1458,4.2195,4.2842,4.3682,4.4174,4.3541,4.1394,4.1914,4.2158,4.1715,4.2831,4.3815,4.4593,4.7531,4.9038,4.8937,5.0494,5.1624,5.2277,5.185,5.2076,5.2929,5.3067,5.3406,5.3785,5.4168,5.4791,5.5663,5.7082,5.7738,5.8088,5.9942,6.1376,6.2429,6.2998,6.4351,6.5896,4.4571,4.6998,4.7283,4.425,4.6105,4.689,4.3643,4.8032,5.1708,5.1708,5.1708,5.107,4.9436,4.9229,4.9168,4.8984,4.9018,4.7868,4.5162,4.489,4.4831,4.4831,4.6253,4.6035,4.3948,4.3448,4.1939,3.9288,3.8688,3.8408,3.8351,3.6538,3.628,3.7443,3.7604,3.7458,3.7012,3.7433,3.7548,3.7289,3.7056,3.6978,3.7056,3.7471,3.7625,3.7625,3.8052,3.8202,3.8202,3.8202,3.8202,3.8318,3.9127,3.9028,3.8618,3.8543,3.8573,3.8522,3.8189,3.7302,3.6821,3.8361,3.853,3.8533,3.9704,4.0996,4.167,4.0624,4.0632,4.0773,4.0688,4.0688,4.0688,4.0688,3.9414,3.9104,4.0626,3.9659,3.9764,4.2658,4.2614,4.2814,4.3967,4.3598,4.3275,4.3026,4.2356,4.2231,4.3164,4.2677,4.3011,4.4568,4.6401,4.8058,4.9515,5.0695,5.18,5.2854,5.2804,5.2829,5.2929,5.3589,5.3887,5.4099,5.5216,5.621,5.6984,5.7932,5.8743,5.9437,6.0401,6.1554,6.2888,6.4478,6.509,6.5653,4.8389,4.7497,4.6569,4.8282,4.4928,4.3322,4.7319,5.0066,5.1315,5.025,5.008,4.9791,4.9046,4.9018,4.9018,4.9018,4.9018,4.7733,4.4756,4.4587,4.4384,4.4039,4.4652,4.4507,4.3628,4.3628,4.203,3.8766,3.852,3.9282,4.0841,3.7215,3.6327,3.7886,3.8207,3.8048,3.7486,3.7558,3.7548,3.7471,3.7289,3.7289,3.7394,3.7701,3.7777,3.7911,3.8514,3.8626,3.841,3.8438,3.8141,3.7882,3.8217,3.833,3.8277,3.8005,3.8277,3.8618,3.8232,3.7585,3.7242,3.8671,3.8922,3.914,4.0322,4.1392,4.1922,4.1136,4.0859,4.0773,4.1057,4.0887,4.0914,4.1539,4.0845,4.0639,4.203,4.1824,4.2312,4.4265,4.4549,4.4838,4.5346,4.5169,4.4877,4.4529,4.2647,4.2065,4.3189,4.2849,4.3263,4.4593,4.6552,4.7908,4.8586,4.9715,5.082,5.195,5.195,5.2548,5.3589,5.3861,5.4511,5.5365,5.6284,5.7151,5.7765,5.8937,5.9817,6.0501,6.1158,6.2437,6.407,6.5328,6.6249,6.7175,4.9888,4.8068,4.7354,5.1066,4.6177,4.3835,4.9943,5.091,5.0474,4.9168,4.8832,4.8736,4.9018,4.9018,4.9018,4.9018,4.9018,4.8044,4.5715,4.4774,4.4097,4.3628,4.4121,4.4373,4.4373,4.3831,4.2308,3.9638,3.9638,4.0675,4.2522,3.8044,3.6633,3.7825,3.8127,3.8023,3.7672,3.7596,3.7548,3.7471,3.7471,3.7548,3.7701,3.7853,3.7853,3.8016,3.8957,3.8859,3.8318,3.8572,3.8139,3.7548,3.7701,3.8045,3.8417,3.8341,3.8835,3.9325,3.8995,3.8403,3.8116,3.9367,3.9643,3.9804,4.0853,4.1724,4.2146,4.1647,4.1227,4.1057,4.1311,4.1142,4.1171,4.2052,4.1736,4.1691,4.2739,4.311,4.3721,4.5133,4.5725,4.602,4.6267,4.6322,4.6112,4.5633,4.3545,4.2668,4.3472,4.3248,4.3512,4.4593,4.6451,4.7705,4.8131,4.9165,5.0403,5.191,5.1823,5.2648,5.4241,5.4241,5.5017,5.6425,5.6735,5.7328,5.8166,5.9279,6.012,6.0988,6.1711,6.2782,6.4426,6.6285,6.7368,6.7847,4.7033,4.9495,5.1637,5.1672,5.1601,5.0929,4.9256,4.8984,4.8984,4.8984,4.8453,4.8261,4.8956,4.9018,4.9018,4.9018,4.9018,4.8673,4.8,4.5218,4.3628,4.3628,4.5249,4.6189,4.6189,4.4485,4.3235,4.2585,4.2585,4.2585,4.2492,3.8723,3.695,3.6978,3.6978,3.6978,3.7056,3.7471,3.7394,3.7056,3.7471,3.7701,3.7777,3.7777,3.7853,3.8016,3.911,3.8678,3.771,3.8601,3.8216,3.7366,3.7976,3.8533,3.9054,3.9815,4.0394,4.0742,4.0539,3.9801,3.9434,4.077,4.0752,4.0641,4.1237,4.2056,4.2526,4.1868,4.1535,4.1396,4.1396,4.1396,4.1564,4.1922,4.1596,4.1559,4.2482,4.2562,4.3158,4.4967,4.523,4.5491,4.6237,4.6322,4.6322,4.6322,4.5252,4.4471,4.4193,4.3674,4.3746,4.4568,4.5748,4.7192,4.8871,4.9394,5.0791,5.3321,5.3082,5.3782,5.502,5.502,5.5735,5.7011,5.6399,5.6892,5.7862,5.8289,5.9255,6.0567,6.1562,6.2369,6.3687,6.803,6.8171,6.6857,4.9781,4.9281,4.9174,5.1315,5.0694,4.9674,4.9046,4.8644,4.8325,4.8325,4.8131,4.8066,4.8325,4.8325,4.8325,4.8325,4.8325,4.8261,4.8001,4.5251,4.4121,4.5302,4.4763,4.4597,4.4947,4.4088,4.3235,4.2618,4.1158,3.9889,3.8752,3.7539,3.6978,3.6978,3.6978,3.6978,3.6978,3.7134,3.7289,3.7443,3.7825,3.8052,3.8052,3.8052,3.8127,3.8364,3.9232,3.883,3.8063,3.831,3.7926,3.7394,3.8159,3.8832,3.9401,3.9993,4.0518,4.086,4.1067,4.0625,4.0408,4.1645,4.1668,4.1514,4.2115,4.2379,4.2474,4.2228,4.1951,4.1951,4.2199,4.1814,4.1906,4.3504,4.3023,4.2941,4.4442,4.4496,4.4755,4.5776,4.5951,4.6215,4.695,4.6591,4.6501,4.695,4.5962,4.5344,4.542,4.4838,4.4745,4.5171,4.711,4.8268,4.8871,5.0275,5.1791,5.3295,5.3218,5.4079,5.571,5.6236,5.695,5.7701,5.7462,5.819,5.9552,5.9617,6.0649,6.2281,6.2614,6.3259,6.4246,6.7321,6.7918,6.7578,5.1066,5.0102,4.9159,5.0452,4.9555,4.861,4.861,4.9193,4.926,4.8166,4.8001,4.8001,4.8001,4.8001,4.8001,4.8001,4.8001,4.8001,4.8001,4.6278,4.5202,4.523,4.4818,4.4316,4.3764,4.3856,4.3262,4.2013,3.999,3.8277,3.6978,3.6978,3.6978,3.6978,3.6978,3.6978,3.6978,3.7289,3.7596,3.7825,3.8127,3.8202,3.8202,3.8202,3.8277,3.8589,3.911,3.8678,3.7835,3.7811,3.7585,3.75,3.8232,3.9228,4.0317,4.0547,4.0919,4.1292,4.1597,4.1263,4.1234,4.2291,4.2313,4.2347,4.2841,4.2895,4.2908,4.2908,4.2714,4.2714,4.3042,4.2456,4.2466,4.4157,4.3843,4.3705,4.4951,4.5019,4.5185,4.5843,4.6172,4.6681,4.7578,4.7309,4.7219,4.7638,4.7081,4.6553,4.6328,4.5953,4.5957,4.6127,4.8146,4.9489,4.9941,5.1126,5.2318,5.3747,5.4198,5.5306,5.6846,5.6977,5.7694,5.8658,5.8429,5.9147,6.0615,6.08,6.1609,6.2667,6.2815,6.3286,6.3927,6.5843,6.6815,6.7468,5.0916,5.1521,5.0964,4.9229,4.862,4.8299,4.8299,5.0618,5.1313,4.8398,4.8001,4.8001,4.8001,4.8001,4.8001,4.8001,4.8001,4.8001,4.8001,4.8001,4.6775,4.4059,4.5245,4.5001,4.2805,4.3672,4.307,4.0857,3.9175,3.7976,3.7056,3.7056,3.6978,3.6978,3.6978,3.7056,3.7134,3.7901,3.8202,3.8202,3.8202,3.8202,3.8202,3.8202,3.841,3.8602,3.8775,3.8216,3.7353,3.7334,3.7428,3.7682,3.8154,3.9722,4.1384,4.1384,4.1709,4.206,4.203,4.1903,4.1922,4.2541,4.285,4.309,4.331,4.3515,4.3685,4.3714,4.3714,4.3685,4.3714,4.3242,4.3146,4.4265,4.405,4.3826,4.4295,4.4347,4.4556,4.5214,4.5903,4.683,4.8147,4.8297,4.8297,4.8356,4.8474,4.8108,4.7038,4.705,4.7215,4.7398,4.9008,5.0522,5.183,5.1804,5.2633,5.4487,5.5708,5.6902,5.8015,5.7383,5.7971,5.9468,5.9211,5.9854,6.1038,6.1575,6.1794,6.2018,6.2614,6.2762,6.291,6.3846,6.5264,6.7014,4.9286,4.9615,4.9316,4.8356,4.9991,5.1347,5.1347,5.1943,5.1313,4.8398,4.8001,4.8001,4.8001,4.8001,4.8001,4.8001,4.8001,4.8001,4.8001,4.8001,4.7703,4.7007,4.521,4.4145,4.3997,4.2798,4.1428,3.9737,4.013,3.9535,3.7901,3.7289,3.6978,3.6978,3.6978,3.7366,3.7901,3.8127,3.8202,3.8202,3.8202,3.8202,3.8202,3.8575,3.8911,3.9131,3.838,3.7996,3.7676,3.731,3.7268,3.75,3.8775,4.0212,4.1384,4.1384,4.2037,4.2654,4.2149,4.2308,4.2723,4.2871,4.309,4.3369,4.3958,4.3728,4.3558,4.4035,4.3737,4.3558,4.4065,4.379,4.3974,4.558,4.4644,4.4004,4.4893,4.4616,4.4556,4.5214,4.5903,4.683,4.8147,4.8297,4.8506,4.8985,4.9074,4.8975,4.8557,4.8382,4.8254,4.8027,4.9693,5.1003,5.183,5.2688,5.3646,5.4487,5.5708,5.6685,5.7418,5.7721,5.8506,5.9777,5.9073,6.0039,6.2107,6.1246,6.1666,6.3027,6.3037,6.2983,6.3037,6.3948,6.5264,6.679,4.8591,4.8736,4.8854,4.9824,5.022,5.0817,5.2175,5.2086,5.0818,4.7898,4.7803,4.8001,4.8001,4.8001,4.8001,4.8001,4.8001,4.8001,4.8001,4.8001,4.8001,4.8001,4.6124,4.4644,4.3621,4.2553,4.1292,3.9879,3.9849,3.9349,3.8352,3.7672,3.7596,3.8127,3.8127,3.8352,3.8723,3.8352,3.8202,3.8202,3.8202,3.8202,3.8335,3.9325,3.9471,3.9051,3.8543,3.813,3.7792,3.7268,3.7557,3.8227,3.8772,4.0258,4.1713,4.1115,4.1786,4.2634,4.2276,4.2455,4.2783,4.3081,4.3489,4.3868,4.4227,4.4526,4.4796,4.5155,4.4945,4.4796,4.5155,4.481,4.4757,4.5639,4.481,4.4191,4.4796,4.4526,4.4556,4.5214,4.6441,4.7608,4.8626,4.9015,4.9314,4.9673,4.9703,4.9486,4.9157,4.9161,4.921,4.9158,5.0282,5.1331,5.2218,5.3443,5.4297,5.4921,5.5871,5.6902,5.8015,5.834,5.9394,6.0917,6.0484,6.133,6.2783,6.2011,6.2166,6.298,6.2682,6.279,6.3367,6.5131,6.6286,6.7107,4.7936,4.8119,4.8928,5.1877,5.0251,4.9356,5.1867,5.1721,5.044,4.7864,4.7732,4.7869,4.8001,4.7935,4.7704,4.7337,4.727,4.727,4.727,4.7638,4.7671,4.7209,4.6582,4.5111,4.2682,4.2302,4.1557,4.0339,3.9235,3.8679,3.8679,3.8231,3.8456,3.9192,3.9337,3.9409,3.9337,3.8501,3.8202,3.8202,3.8202,3.8202,3.8393,3.9806,3.9765,3.8927,3.8746,3.8419,3.794,3.7402,3.8053,3.915,3.8789,4.0377,4.2132,4.1025,4.1564,4.2491,4.2372,4.2521,4.2821,4.3479,4.4047,4.4496,4.4586,4.5424,4.6202,4.6292,4.6232,4.6202,4.6292,4.5843,4.5484,4.5574,4.4945,4.4466,4.4466,4.4466,4.4676,4.5214,4.707,4.8536,4.9194,4.9853,5.0272,5.0361,5.0391,5.0084,4.9427,4.9647,4.9962,5.0388,5.0709,5.1557,5.2968,5.3972,5.4786,5.5437,5.6007,5.7146,5.872,5.8829,5.996,6.178,6.1864,6.2197,6.2724,6.2807,6.2619,6.2248,6.1868,6.2307,6.341,6.6254,6.7536,6.7976,4.5669,4.6748,4.8928,5.1877,5.1474,5.0904,5.1359,5.1868,5.1849,5.0658,4.8524,4.7302,4.7935,4.7437,4.6269,4.4205,4.4051,4.4051,4.4051,4.5913,4.5992,4.3522,4.3361,4.3071,4.2587,4.082,3.9839,3.9553,3.9337,3.9265,3.9265,3.9192,3.89,3.8427,3.9119,3.9409,3.9337,3.8501,3.8202,3.8202,3.8202,3.8202,3.8231,3.851,3.9379,4.0253,3.8467,3.8073,3.8445,3.8523,3.8813,3.9343,4.0529,4.1577,4.2312,4.2102,4.2581,4.306,4.2521,4.318,4.4167,4.4825,4.5065,4.5304,4.5873,4.5723,4.5633,4.6202,4.5873,4.5633,4.6232,4.6232,4.6352,4.689,4.5963,4.5155,4.5155,4.5155,4.5185,4.5274,4.707,4.8536,4.9194,4.9853,5.0481,5.102,5.1079,5.0956,5.0862,5.0279,5.0231,5.0759,5.0823,5.1964,5.4189,5.4406,5.4786,5.5437,5.6007,5.6712,5.7472,5.7988,5.8717,5.9557,6.0048,6.0321,6.0457,6.0975,6.1083,6.1027,6.0972,6.1794,6.3124,6.4909,6.7151,6.9179,4.4307,4.4903,4.6576,4.9525,5.0674,5.1199,5.1199,5.1499,5.1647,5.1275,5.0034,4.9336,4.9725,4.8009,4.6548,4.5582,4.5484,4.5484,4.5484,4.4912,4.469,4.4917,4.346,4.2045,4.0888,3.9879,3.9409,3.9409,3.9409,3.9337,3.9265,3.9119,3.887,3.8575,3.8943,3.9192,3.9337,3.9046,3.8575,3.8202,3.8202,3.8202,3.8202,3.8202,3.8731,3.9379,3.9156,3.8859,3.8562,3.8865,3.956,4.0271,4.0696,4.1773,4.2821,4.2462,4.306,4.3808,4.3509,4.4107,4.4915,4.5214,4.5574,4.5933,4.6262,4.6352,4.6471,4.677,4.6591,4.6471,4.68,4.686,4.683,4.68,4.6262,4.5723,4.5334,4.5603,4.5843,4.5843,4.7608,4.8925,4.9224,5.0182,5.09,5.1199,5.1229,5.1229,5.1229,5.0442,5.0417,5.1229,5.1473,5.2349,5.3999,5.465,5.5138,5.5437,5.6332,5.7092,5.7662,5.7933,5.8422,5.9019,5.9643,5.9697,5.9453,6.005,6.0104,5.9968,6.0807,6.1558,6.2417,6.5365,6.7218,6.8466,4.3628,4.3509,4.4278,4.721,4.9094,5.0422,5.107,5.1199,5.1199,5.1199,5.1199,5.094,5.026,4.822,4.6802,4.6425,4.695,4.7538,4.8187,4.5959,4.5305,4.6828,4.4787,4.2287,3.9439,3.9409,3.9409,3.9409,3.9738,3.9636,3.9192,3.9224,3.9121,3.8943,3.8943,3.909,3.9409,3.9409,3.9046,3.8501,3.8501,3.8352,3.8202,3.8202,3.8277,3.8514,3.9563,3.9357,3.8708,3.9372,4.0189,4.1007,4.104,4.2102,4.3269,4.291,4.3748,4.4766,4.4766,4.5155,4.5574,4.5723,4.6172,4.6561,4.6561,4.695,4.7309,4.7309,4.7309,4.7309,4.7309,4.7309,4.713,4.6621,4.6411,4.6142,4.5603,4.6112,4.6561,4.6561,4.8297,4.9494,4.9494,5.0541,5.1229,5.1229,5.1229,5.1229,5.1323,5.0698,5.1017,5.2226,5.2231,5.2789,5.3926,5.4936,5.5491,5.5627,5.6685,5.7418,5.7852,5.7852,5.8123,5.8612,5.9371,5.9263,5.8639,5.9669,5.9587,5.9121,6.0837,6.1641,6.236,6.5925,6.7372,6.7706,4.3628,4.3113,4.3588,4.6475,4.7123,4.8091,5.0778,5.1199,5.1199,5.1199,5.1199,5.0163,4.7508,4.7022,4.6008,4.3758,4.5873,4.8355,5.0788,5.0704,4.9451,4.6989,4.6698,4.4351,3.9469,3.9409,3.9409,3.9409,4.0636,4.0606,3.9367,4.0173,4.0114,3.9337,3.9337,3.9337,3.9409,3.9409,3.9337,3.9337,3.9337,3.89,3.8202,3.8202,3.8427,3.8723,3.8737,3.8782,3.9151,4.0515,4.0799,4.098,4.2611,4.321,4.3449,4.4018,4.5125,4.6172,4.6172,4.6202,4.6381,4.701,4.7189,4.7249,4.7249,4.7279,4.7309,4.7309,4.7309,4.7309,4.7309,4.7309,4.7279,4.7249,4.6711,4.6292,4.6262,4.68,4.7249,4.7249,4.8985,5.0152,5.0152,5.081,5.1229,5.1229,5.1229,5.1323,5.1572,5.1665,5.248,5.4029,5.3242,5.3388,5.4852,5.5156,5.5681,5.6251,5.6875,5.7201,5.7255,5.7255,5.7282,5.7391,5.8557,5.8395,5.7445,5.9581,5.9714,5.8886,6.1063,6.2422,6.3619,6.5688,6.7107,6.8101,4.3992,4.4491,4.5597,4.6698,4.6892,4.7864,5.0746,5.1199,5.1199,5.1199,5.1199,5.0778,4.9677,4.9548,4.9222,4.8288,4.7536,4.8263,5.0995,5.1199,4.9904,4.7022,4.6892,4.5294,4.1863,4.1863,4.1863,4.1863,4.2342,4.2043,4.1025,4.0247,3.9738,3.9409,3.9409,3.9409,3.9409,3.9409,3.9409,3.9409,3.9409,3.89,3.8277,3.8723,3.9046,3.9192,3.9119,3.9372,3.9936,4.0964,4.1458,4.1833,4.2372,4.288,4.3539,4.4616,4.5603,4.6411,4.683,4.692,4.698,4.7249,4.7309,4.7309,4.7309,4.7309,4.7429,4.7818,4.7908,4.8027,4.8446,4.8506,4.8506,4.8506,4.8327,4.8147,4.8147,4.8356,4.8506,4.8506,4.9523,5.0242,5.0242,5.084,5.1229,5.1229,5.1229,5.1323,5.1572,5.2215,5.3009,5.3924,5.3757,5.4093,5.4793,5.5182,5.5545,5.5762,5.6712,5.7391,5.7743,5.7743,5.7933,5.834,5.8802,5.8662,5.8161,5.9002,5.8914,5.8668,6.15,6.2744,6.3323,6.6524,6.7832,6.8166,4.5072,4.5864,4.6892,4.6892,4.6892,4.754,4.9548,4.9839,5.0163,5.107,5.1199,5.1199,5.1199,5.1199,5.0811,4.9904,4.8026,4.7734,4.971,4.9138,4.8169,4.6957,4.6127,4.4962,4.3329,4.3329,4.3329,4.3329,4.3329,4.303,4.2402,4.0935,4.0367,4.0606,3.9798,3.9409,3.9409,3.9409,3.9409,3.9409,3.9409,3.9046,3.8649,3.9192,3.9409,3.9469,3.9888,4.0248,4.0739,4.1368,4.2073,4.2641,4.2491,4.312,4.4137,4.5035,4.5933,4.6741,4.7189,4.7309,4.7309,4.7309,4.7309,4.7369,4.7578,4.7608,4.7788,4.8446,4.8596,4.8716,4.9194,4.9254,4.9254,4.9254,4.9254,4.9254,4.9254,4.9434,4.9583,4.9583,5.0152,5.0541,5.0541,5.096,5.1229,5.1323,5.1323,5.1479,5.2033,5.2846,5.3543,5.4137,5.4177,5.448,5.4931,5.5335,5.5535,5.5562,5.6604,5.7499,5.8069,5.8069,5.8422,5.8992,5.8992,5.8903,5.8591,5.8721,5.8622,5.8689,6.2006,6.3146,6.3349,6.6969,6.815,6.8178,4.703,4.6892,4.6892,4.6892,4.6892,4.6892,4.6892,4.6892,4.7929,5.0811,5.1199,5.1199,5.1199,5.1199,5.0034,4.7119,4.6892,4.6892,4.6892,4.4662,4.4358,4.6754,4.4586,4.3329,4.3329,4.3329,4.3329,4.3329,4.3329,4.3329,4.3299,4.2432,4.2491,4.321,4.0606,3.9439,3.9409,3.9409,3.9409,3.9409,3.9439,3.9439,3.9409,3.9439,3.9439,3.9619,4.0935,4.1384,4.1474,4.1893,4.2611,4.3329,4.3329,4.4227,4.5304,4.5304,4.6262,4.7309,4.7309,4.7309,4.7309,4.7309,4.7309,4.7489,4.8147,4.8297,4.8476,4.9134,4.9284,4.9284,4.9284,4.9284,4.9284,4.9284,4.9284,4.9284,4.9284,4.9853,5.0242,5.0242,5.084,5.1229,5.1229,5.1229,5.1323,5.1572,5.1572,5.2033,5.2935,5.3496,5.419,5.5114,5.436,5.4503,5.5338,5.5721,5.5881,5.5936,5.6731,5.7499,5.8069,5.8069,5.8422,5.9019,5.9019,5.8903,5.8591,5.8953,5.9006,5.9067,6.2253,6.3637,6.3906,6.6974,6.797,6.797,4.6961,4.6892,4.6892,4.6892,4.6892,4.6892,4.6892,4.6892,4.7929,5.0811,5.1199,5.1199,5.1199,5.1199,5.0034,4.7119,4.6892,4.623,4.451,4.3693,4.3615,4.4358,4.3693,4.3329,4.3329,4.3329,4.3329,4.3329,4.3329,4.3329,4.3329,4.306,4.309,4.3299,4.2521,4.1145,3.9409,3.9409,3.9409,3.9589,4.1414,4.1055,3.9619,4.1474,4.2162,4.2222,4.2611,4.2761,4.2761,4.291,4.312,4.3329,4.3329,4.4047,4.4915,4.5214,4.6262,4.7309,4.7309,4.7309,4.7309,4.7309,4.7309,4.7489,4.8147,4.8297,4.8596,4.9733,4.9942,5.0092,5.0541,5.0631,5.0631,5.0631,5.0631,5.0631,5.0631,5.081,5.093,5.093,5.1109,5.1229,5.1229,5.1229,5.1229,5.1323,5.1757,5.2306,5.2757,5.3845,5.4442,5.4419,5.5318,5.5311,5.4339,5.4963,5.5528,5.5908,5.6576,5.7595,5.872,5.872,5.929,6.0185,5.9639,5.9413,5.9532,5.909,5.8871,5.9289,6.2128,6.3319,6.397,6.667,6.7478,6.7302,4.6892,4.6892,4.6892,4.6892,4.6892,4.6892,4.6892,4.6892,4.7508,4.9256,5.0487,5.1199,5.1199,5.1199,5.0034,4.7119,4.5985,4.4887,4.3409,4.3329,4.3329,4.3329,4.3329,4.3329,4.3329,4.3329,4.3329,4.3329,4.3329,4.3329,4.3329,4.3329,4.3329,4.325,4.296,4.2149,4.0965,4.0965,4.0367,3.9649,4.2282,4.2372,4.1145,4.2731,4.3329,4.3329,4.3329,4.3329,4.3329,4.3329,4.4018,4.4825,4.4287,4.4377,4.4825,4.5514,4.6471,4.7309,4.7309,4.7309,4.7309,4.7309,4.7309,4.7549,4.8476,4.8686,4.9045,5.0361,5.0631,5.075,5.1139,5.1229,5.1229,5.1229,5.1229,5.1229,5.1229,5.1323,5.1323,5.1229,5.1293,5.1323,5.1229,5.1439,5.1708,5.2072,5.273,5.3071,5.3248,5.4348,5.4857,5.4545,5.5715,5.5899,5.4956,5.5213,5.5452,5.5563,5.6416,5.7369,5.8549,5.8774,5.9641,6.062,6.0046,5.9979,6.0199,5.9328,5.9053,5.9358,6.127,6.2641,6.3649,6.5615,6.6534,6.6925,4.7281,4.7054,4.6892,4.6892,4.6892,4.6892,4.6892,4.6892,4.6892,4.6892,4.9014,5.0478,5.0478,5.0704,4.9742,4.7119,4.4887,4.3566,4.3329,4.3329,4.3329,4.3329,4.3329,4.3449,4.3688,4.3449,4.3329,4.3329,4.3329,4.3329,4.3329,4.3329,4.3329,4.325,4.2555,4.2637,4.3329,4.3329,4.1953,3.9978,4.2372,4.3329,4.3409,4.3329,4.3329,4.3329,4.3329,4.3329,4.3359,4.3599,4.5304,4.707,4.5723,4.5125,4.5125,4.6052,4.68,4.7309,4.7369,4.7399,4.7399,4.7459,4.7489,4.7788,4.8985,4.9314,4.9703,5.096,5.1229,5.1229,5.1229,5.1229,5.1229,5.1229,5.1229,5.1229,5.1229,5.1386,5.1509,5.1289,5.1506,5.16,5.1379,5.1947,5.2642,5.3465,5.3975,5.4173,5.3989,5.4974,5.5399,5.5153,5.5967,5.6338,5.6225,5.5992,5.5683,5.5144,5.6224,5.7185,5.7743,5.8712,5.9557,6.0505,6.045,6.0518,6.0459,5.9818,5.9431,5.9245,6.0259,6.1575,6.2912,6.4064,6.5474,6.6682,5.026,4.8447,4.6892,4.6892,4.6892,4.6892,4.6892,4.6892,4.6892,4.6892,4.579,4.5013,4.5013,4.6687,4.7572,4.6925,4.6442,4.5332,4.3409,4.3329,4.3329,4.3329,4.3329,4.4317,4.6411,4.4407,4.3329,4.3329,4.3329,4.3329,4.3329,4.3329,4.3329,4.325,4.309,4.317,4.3329,4.3329,4.3,4.2521,4.309,4.3723,4.4266,4.3566,4.3438,4.3675,4.3409,4.3329,4.3658,4.5723,4.683,4.707,4.5723,4.5963,4.6681,4.6411,4.68,4.7429,4.7938,4.8087,4.8207,4.8716,4.8835,4.8925,4.9194,4.9673,5.0242,5.105,5.1229,5.1229,5.1229,5.1229,5.1229,5.1229,5.1229,5.1229,5.1229,5.1386,5.169,5.1917,5.2197,5.2502,5.2695,5.2875,5.3025,5.3271,5.3754,5.3979,5.3891,5.5411,5.5936,5.5309,5.6987,5.6809,5.4548,5.5957,5.6554,5.6222,5.6632,5.7273,5.8126,5.9339,6.0193,6.0744,6.0539,6.0524,6.0431,5.9598,5.894,5.8654,6.0087,6.0831,6.1367,6.2794,6.4366,6.5784,4.9418,4.7929,4.6892,4.6892,4.6892,4.6892,4.6892,4.5913,4.5184,4.5184,4.511,4.5036,4.5036,4.6127,4.6892,4.6892,4.5841,4.4662,4.3409,4.2162,4.2043,4.3269,4.4556,4.5873,4.7279,4.4706,4.3329,4.3329,4.3329,4.3329,4.3329,4.3329,4.3329,4.3359,4.3988,4.3928,4.3359,4.3808,4.3718,4.3329,4.3329,4.4116,4.5153,4.4043,4.4146,4.4709,4.3648,4.4137,4.5244,4.5364,4.6262,4.7189,4.6471,4.6741,4.7249,4.689,4.704,4.7459,4.8117,4.8297,4.8446,4.9105,4.9494,4.9733,4.9733,5.0002,5.0421,5.1079,5.1229,5.1323,5.1665,5.1386,5.1323,5.1665,5.1386,5.1319,5.1648,5.1897,5.2231,5.2576,5.2888,5.3254,5.3623,5.3683,5.3803,5.4102,5.4428,5.4473,5.443,5.5328,5.5551,5.5161,5.6115,5.5969,5.4521,5.5574,5.6084,5.6012,5.657,5.7104,5.7647,5.9017,5.9875,6.031,6.0413,6.0505,6.0298,5.9781,5.9289,5.8727,5.9342,6.003,6.0652,6.1106,6.2676,6.4834,4.7346,4.6892,4.6892,4.6892,4.6892,4.7054,4.754,4.5197,4.3329,4.3329,4.5405,4.6892,4.6892,4.6892,4.6892,4.6892,4.4662,4.3329,4.3329,4.0876,4.0606,4.321,4.5873,4.7309,4.7309,4.5125,4.4018,4.4018,4.3569,4.3329,4.3329,4.3329,4.3329,4.3389,4.4466,4.4466,4.3718,4.4227,4.4137,4.3658,4.3658,4.4559,4.5839,4.4667,4.4789,4.5475,4.3878,4.5035,4.695,4.4929,4.5703,4.7482,4.7482,4.7396,4.7339,4.7429,4.7489,4.7638,4.8505,4.8715,4.8865,4.9524,5.0094,5.0421,5.0391,5.0421,5.0571,5.1109,5.1229,5.1386,5.2124,5.1757,5.1572,5.2215,5.1757,5.1533,5.2097,5.2407,5.2803,5.3264,5.3669,5.3969,5.4341,5.4371,5.461,5.5149,5.5179,5.504,5.4737,5.499,5.492,5.4647,5.486,5.4988,5.4875,5.5177,5.5307,5.5233,5.6322,5.6847,5.6903,5.8368,5.9328,5.9611,6.0225,6.0354,6.0132,6.002,5.9598,5.9008,5.8615,5.9163,6.0087,5.9622,6.1346,6.4034,4.6957,4.6892,4.6892,4.6892,4.6892,4.7734,5.0228,4.6408,4.3329,4.3329,4.5405,4.6892,4.6892,4.6892,4.6892,4.6892,4.4662,4.3329,4.3329,4.0876,4.0606,4.321,4.5873,4.7309,4.7309,4.695,4.677,4.677,4.4466,4.3329,4.3329,4.3329,4.3329,4.3329,4.3509,4.4137,4.4975,4.3958,4.4107,4.5035,4.5035,4.5372,4.5849,4.5341,4.476,4.4152,4.3548,4.5035,4.7336,4.779,4.8131,4.8355,4.8049,4.7624,4.7429,4.7997,4.8147,4.8505,4.9915,5.0336,5.0487,5.115,5.1391,5.1359,5.1079,5.1079,5.1109,5.1199,5.1229,5.1386,5.2124,5.2215,5.2215,5.2306,5.2215,5.2184,5.2192,5.2407,5.2984,5.3922,5.4581,5.497,5.5059,5.5059,5.5089,5.5179,5.5179,5.4815,5.4083,5.4756,5.4726,5.3994,5.4666,5.4789,5.4439,5.4981,5.5099,5.4685,5.5861,5.6416,5.65,5.8351,5.922,5.9248,5.9865,6.0089,6.0104,5.957,5.898,5.8474,5.8924,5.8687,5.8407,5.9832,6.1617,6.3684,4.6892,4.6892,4.6892,4.6892,4.6892,4.7313,4.8576,4.8222,4.6625,4.3668,4.5405,4.6892,4.6892,4.6892,4.6892,4.6892,4.4662,4.3329,4.3329,4.2252,4.2791,4.5424,4.6681,4.7309,4.7309,4.7309,4.7309,4.7309,4.6112,4.4796,4.3329,4.3329,4.4137,4.5544,4.5035,4.5005,4.5274,4.5095,4.4975,4.4975,4.5214,4.5387,4.5642,4.6226,4.6471,4.6448,4.5793,4.6322,4.7396,4.7709,4.788,4.788,4.7624,4.7992,4.8416,4.8446,4.8626,4.9134,5.0246,5.0608,5.0758,5.1421,5.1572,5.1479,5.1229,5.1229,5.1229,5.1229,5.1479,5.2033,5.2726,5.2905,5.2993,5.3434,5.2815,5.2582,5.3243,5.3139,5.3361,5.461,5.5029,5.5179,5.5179,5.5179,5.5179,5.5179,5.5179,5.4875,5.3919,5.4097,5.3756,5.2886,5.3097,5.3308,5.3428,5.4084,5.4515,5.4597,5.5468,5.6086,5.6451,5.7659,5.839,5.8699,5.8615,5.8783,5.9093,5.8812,5.8531,5.8362,5.8731,5.8411,5.7993,5.9719,6.12,6.3028]},{"header":{"parameterUnit":"m.s-1","parameterCategory":1,"la1":30.6,"la2":28.766,"lo1":-90.7593,"lo2":-88.6598,"dy":0.0162,"dx":0.0183,"nx":116,"ny":114,"refTime":"2023-05-31T12:00:00:Z","depth":0,"parameterNumber":3,"parameterNumberName":"V-component_of_WINDS"},"data":[0.0,0.0,0.0,0.0,0.0,0.0,0.0,0.0,0.0,0.0,0.0,0.0,0.0,0.0,0.0,0.0,0.0,0.0,0.0,0.0,0.0,0.0,0.0,0.0,0.0,0.0,0.0,0.0,0.0,0.0,0.0,0.0,0.0,0.0,0.0,0.0,0.0,0.0,0.0,0.0,0.0,0.0,0.0,0.0,0.0,0.0,0.0,0.0,0.0,0.0,0.0,0.0,0.0,0.0,0.0,0.0,0.0,0.0,0.0,0.0,0.0,0.0,0.0,0.0,0.0,0.0,0.0,0.0,0.0,0.0,0.0,0.0,0.0,0.0,0.0,0.0,0.0,0.0,0.0,0.0,0.0,0.0,0.0,0.0,0.0,0.0,0.0,0.0,0.0,0.0,0.0,0.0,0.0,0.0,0.0,0.0,0.0,0.0,0.0,0.0,0.0,0.0,0.0,0.0,0.0,0.0,0.0,0.0,0.0,0.0,0.0,0.0,0.0,0.0,0.0,0.0,0.0,0.0,0.0,0.0,0.0,0.0,0.0,0.0,0.0,0.0,0.0,0.0,0.0,0.0,0.0,0.0,0.0,0.0,0.0,0.0,0.0,0.0,0.0,0.0,0.0,0.0,0.0,0.0,0.0,0.0,0.0,0.0,0.0,0.0,0.0,0.0,0.0,0.0,0.0,0.0,0.0,0.0,0.0,0.0,0.0,0.0,0.0,0.0,0.0,0.0,0.0,0.0,0.0,0.0,0.0,0.0,0.0,0.0,0.0,0.0,0.0,0.0,0.0,0.0,0.0,0.0,0.0,0.0,0.0,0.0,0.0,0.0,0.0,0.0,0.0,0.0,0.0,0.0,0.0,0.0,0.0,0.0,0.0,0.0,0.0,0.0,0.0,0.0,0.0,0.0,0.0,0.0,0.0,0.0,0.0,0.0,0.0,0.0,0.0,0.0,0.0,0.0,0.0,0.0,0.0,0.0,0.0,0.0,0.0,0.0,0.0,0.0,0.0,0.0,0.0,0.0,0.0,0.0,0.0,0.0,0.0,0.0,0.0,0.0,0.0,0.0,0.0,0.0,0.0,0.0,0.0,0.0,0.0,0.0,0.0,0.0,0.0,0.0,0.0,0.0,0.0,0.0,0.0,0.0,0.0,0.0,0.0,0.0,0.0,0.0,0.0,0.0,0.0,0.0,0.0,0.0,0.0,0.0,0.0,0.0,0.0,0.0,0.0,0.0,0.0,0.0,0.0,0.0,0.0,0.0,0.0,0.0,0.0,0.0,0.0,0.0,0.0,0.0,0.0,0.0,0.0,0.0,0.0,0.0,0.0,0.0,0.0,0.0,0.0,0.0,0.0,0.0,0.0,0.0,0.0,0.0,0.0,0.0,0.0,0.0,0.0,0.0,0.0,0.0,0.0,0.0,0.0,0.0,0.0,0.0,0.0,0.0,0.0,0.0,0.0,0.0,0.0,0.0,0.0,0.0,0.0,0.0,0.0,0.0,0.0,0.0,0.0,0.0,0.0,0.0,0.0,0.0,0.0,0.0,0.0,0.0,0.0,0.0,0.0,0.0,0.0,0.0,0.0,0.0,0.0,0.0,0.0,0.0,0.0,0.0,0.0,0.0,0.0,0.0,0.0,0.0,0.0,0.0,0.0,0.0,0.0,0.0,0.0,0.0,0.0,0.0,0.0,0.0,0.0,0.0,0.0,0.0,0.0,0.0,0.0,0.0,0.0,0.0,0.0,0.0,0.0,0.0,0.0,0.0,0.0,0.0,0.0,0.0,0.0,0.0,0.0,0.0,0.0,0.0,0.0,0.0,0.0,0.0,0.0,0.0,0.0,0.0,0.0,0.0,0.0,0.0,0.0,0.0,0.0,0.0,0.0,0.0,0.0,0.0,0.0,0.0,0.0,0.0,0.0,0.0,0.0,0.0,0.0,0.0,0.0,0.0,0.0,0.0,0.0,0.0,0.0,0.0,0.0,0.0,0.0,0.0,0.0,0.0,0.0,0.0,0.0,0.0,0.0,0.0,0.0,0.0,0.0,0.0,0.0,0.0,0.0,0.0,0.0,0.0,0.0,0.0,0.0,0.0,0.0,0.0,0.0,0.0,0.0,0.0,0.0,0.0,0.0,0.0,0.0,0.0,0.0,0.0,0.0,0.0,0.0,0.0,0.0,0.0,0.0,0.0,0.0,0.0,0.0,0.0,0.0,0.0,0.0,0.0,0.0,0.0,0.0,0.0,0.0,0.0,0.0,0.0,0.0,0.0,0.0,0.0,0.0,0.0,0.0,0.0,0.0,0.0,0.0,0.0,0.0,0.0,0.0,0.0,0.0,0.0,0.0,0.0,0.0,0.0,0.0,0.0,0.0,0.0,0.0,0.0,0.0,0.0,0.0,0.0,0.0,0.0,0.0,0.0,0.0,0.0,0.0,0.0,0.0,0.0,0.0,0.0,0.0,0.0,0.0,0.0,0.0,0.0,0.0,0.0,0.0,0.0,0.0,0.0,0.0,0.0,0.0,0.0,0.0,0.0,0.0,0.0,0.0,0.0,0.0,0.0,0.0,0.0,0.0,0.0,0.0,0.0,0.0,0.0,0.0,0.0,0.0,0.0,0.0,0.0,0.0,0.0,0.0,0.0,0.0,0.0,0.0,0.0,0.0,0.0,0.0,0.0,0.0,0.0,0.0,0.0,0.0,0.0,0.0,0.0,0.0,0.0,0.0,0.0,0.0,0.0,0.0,0.0,0.0,0.0,0.0,0.0,0.0,0.0,0.0,0.0,0.0,0.0,0.0,0.0,0.0,0.0,0.0,0.0,0.0,0.0,0.0,0.0,0.0,0.0,0.0,0.0,0.0,0.0,0.0,0.0,0.0,0.0,0.0,0.0,0.0,0.0,0.0,0.0,0.0,0.0,0.0,0.0,0.0,0.0,0.0,0.0,0.0,0.0,0.0,0.0,0.0,0.0,0.0,0.0,0.0,0.0,0.0,0.0,0.0,0.0,0.0,0.0,0.0,0.0,0.0,0.0,0.0,0.0,0.0,0.0,0.0,0.0,0.0,0.0,0.0,0.0,0.0,0.0,0.0,0.0,0.0,0.0,0.0,0.0,0.0,0.0,0.0,0.0,0.0,0.0,0.0,0.0,0.0,0.0,0.0,0.0,0.0,0.0,0.0,0.0,0.0,0.0,0.0,0.0,0.0,0.0,0.0,0.0,0.0,0.0,0.0,0.0,0.0,0.0,0.0,0.0,0.0,0.0,0.0,0.0,0.0,0.0,0.0,0.0,0.0,0.0,0.0,0.0,0.0,0.0,0.0,0.0,0.0,0.0,0.0,0.0,0.0,0.0,0.0,0.0,0.0,0.0,0.0,0.0,0.0,0.0,0.0,0.0,0.0,0.0,0.0,0.0,0.0,0.0,0.0,0.0,0.0,0.0,0.0,0.0,0.0,0.0,0.0,0.0,0.0,0.0,0.0,0.0,0.0,0.0,0.0,0.0,0.0,0.0,0.0,0.0,0.0,0.0,0.0,0.0,0.0,0.0,0.0,0.0,0.0,0.0,0.0,0.0,0.0,0.0,0.0,0.0,0.0,0.0,0.0,0.0,0.0,0.0,0.0,0.0,0.0,0.0,0.0,0.0,0.0,0.0,0.0,0.0,0.0,0.0,0.0,0.0,0.0,0.0,0.0,0.0,0.0,0.0,0.0,0.0,0.0,0.0,0.0,0.0,0.0,0.0,0.0,0.0,0.0,0.0,0.0,0.0,0.0,0.0,0.0,0.0,0.0,0.0,0.0,0.0,0.0,0.0,0.0,0.0,0.0,0.0,0.0,0.0,0.0,0.0,0.0,0.0,0.0,0.0,0.0,0.0,0.0,0.0,0.0,0.0,0.0,0.0,0.0,0.0,0.0,0.0,0.0,0.0,0.0,0.0,0.0,0.0,0.0,0.0,0.0,0.0,0.0,0.0,0.0,0.0,0.0,0.0,0.0,0.0,0.0,0.0,0.0,0.0,0.0,0.0,0.0,0.0,0.0,0.0,0.0,0.0,0.0,0.0,0.0,0.0,0.0,0.0,0.0,0.0,0.0,0.0,0.0,0.0,0.0,0.0,0.0,0.0,0.0,0.0,0.0,0.0,0.0,0.0,0.0,0.0,0.0,0.0,0.0,0.0,0.0,0.0,0.0,0.0,0.0,0.0,0.0,0.0,0.0,0.0,0.0,0.0,0.0,0.0,0.0,0.0,0.0,0.0,0.0,0.0,0.0,0.0,0.0,0.0,0.0,0.0,0.0,0.0,0.0,0.0,0.0,0.0,0.0,0.0,0.0,0.0,0.0,0.0,0.0,0.0,0.0,0.0,0.0,0.0,0.0,0.0,0.0,0.0,0.0,0.0,0.0,0.0,0.0,0.0,0.0,0.0,0.0,0.0,0.0,0.0,0.0,0.0,0.0,0.0,0.0,0.0,0.0,0.0,0.0,0.0,0.0,0.0,0.0,0.0,0.0,0.0,0.0,0.0,0.0,0.0,0.0,0.0,0.0,0.0,0.0,0.0,0.0,0.0,0.0,0.0,0.0,0.0,0.0,0.0,0.0,0.0,0.0,0.0,0.0,0.0,0.0,0.0,0.0,0.0,0.0,0.0,0.0,0.0,0.0,0.0,0.0,0.0,0.0,0.0,0.0,0.0,0.0,0.0,0.0,0.0,0.0,0.0,0.0,0.0,0.0,0.0,0.0,0.0,0.0,0.0,0.0,0.0,0.0,0.0,0.0,0.0,0.0,0.0,0.0,0.0,0.0,0.0,0.0,0.0,0.0,0.0,0.0,0.0,0.0,0.0,0.0,0.0,0.0,0.0,0.0,0.0,0.0,0.0,0.0,0.0,0.0,0.0,0.0,0.0,0.0,0.0,0.0,0.0,0.0,0.0,0.0,0.0,0.0,0.0,0.0,0.0,0.0,0.0,0.0,0.0,0.0,0.0,0.0,0.0,0.0,0.0,0.0,0.0,0.0,0.0,0.0,0.0,0.0,0.0,0.0,0.0,0.0,0.0,0.0,0.0,0.0,0.0,0.0,0.0,0.0,0.0,0.0,0.0,0.0,0.0,0.0,0.0,0.0,0.0,0.0,0.0,0.0,0.0,0.0,0.0,0.0,0.0,0.0,0.0,0.0,0.0,0.0,0.0,0.0,0.0,0.0,0.0,0.0,0.0,0.0,0.0,0.0,0.0,0.0,0.0,0.0,0.0,0.0,0.0,0.0,0.0,0.0,0.0,0.0,0.0,0.0,0.0,0.0,0.0,0.0,0.0,0.0,0.0,0.0,0.0,0.0,0.0,0.0,0.0,0.0,0.0,0.0,0.0,0.0,0.0,0.0,0.0,0.0,0.0,0.0,0.0,0.0,0.0,0.0,0.0,0.0,0.0,0.0,0.0,0.0,0.0,0.0,0.0,0.0,0.0,0.0,0.0,0.0,0.0,0.0,0.0,0.0,0.0,0.0,0.0,0.0,0.0,0.0,0.0,0.0,0.0,0.0,0.0,0.0,0.0,0.0,0.0,0.0,0.0,0.0,0.0,0.0,0.0,0.0,0.0,0.0,0.0,0.0,0.0,0.0,0.0,0.0,0.0,0.0,0.0,0.0,0.0,0.0,0.0,0.0,0.0,0.0,0.0,0.0,0.0,0.0,0.0,0.0,0.0,0.0,0.0,0.0,0.0,0.0,0.0,0.0,0.0,0.0,0.0,0.0,0.0,0.0,0.0,0.0,0.0,0.0,0.0,0.0,0.0,0.0,0.0,0.0,0.0,0.0,0.0,0.0,0.0,0.0,0.0,0.0,0.0,0.0,0.0,0.0,0.0,0.0,0.0,0.0,0.0,0.0,0.0,0.0,0.0,0.0,0.0,0.0,0.0,0.0,0.0,0.0,0.0,0.0,0.0,0.0,0.0,0.0,0.0,0.0,0.0,0.0,0.0,0.0,0.0,0.0,0.0,0.0,0.0,0.0,0.0,0.0,0.0,0.0,0.0,0.0,0.0,0.0,0.0,0.0,0.0,0.0,0.0,0.0,0.0,0.0,0.0,0.0,0.0,0.0,0.0,0.0,0.0,3.9349,3.92,0.0,0.0,0.0,0.0,0.0,0.0,0.0,0.0,0.0,0.0,0.0,0.0,0.0,0.0,0.0,0.0,0.0,0.0,0.0,0.0,0.0,0.0,0.0,0.0,0.0,0.0,0.0,0.0,0.0,0.0,0.0,0.0,0.0,0.0,0.0,0.0,0.0,0.0,0.0,0.0,0.0,0.0,0.0,0.0,0.0,0.0,0.0,0.0,0.0,0.0,0.0,0.0,0.0,0.0,0.0,0.0,0.0,0.0,0.0,0.0,0.0,0.0,0.0,0.0,0.0,0.0,0.0,0.0,0.0,0.0,0.0,0.0,0.0,0.0,0.0,0.0,0.0,0.0,0.0,0.0,0.0,0.0,0.0,0.0,0.0,0.0,0.0,0.0,0.0,0.0,0.0,0.0,0.0,0.0,0.0,0.0,0.0,0.0,0.0,0.0,0.0,0.0,0.0,0.0,0.0,0.0,0.0,0.0,0.0,0.0,0.0,0.0,0.0,0.0,4.0995,3.9888,0.0,0.0,0.0,0.0,0.0,0.0,0.0,0.0,0.0,0.0,0.0,0.0,0.0,0.0,0.0,0.0,0.0,0.0,0.0,0.0,0.0,0.0,0.0,0.0,0.0,0.0,0.0,0.0,0.0,0.0,0.0,0.0,0.0,0.0,0.0,0.0,0.0,0.0,0.0,0.0,0.0,0.0,0.0,0.0,0.0,0.0,0.0,0.0,0.0,0.0,0.0,0.0,0.0,0.0,0.0,0.0,0.0,0.0,0.0,0.0,0.0,0.0,0.0,0.0,0.0,0.0,0.0,0.0,0.0,0.0,0.0,0.0,0.0,0.0,0.0,0.0,0.0,0.0,0.0,0.0,0.0,0.0,0.0,0.0,0.0,0.0,0.0,0.0,0.0,0.0,0.0,0.0,0.0,0.0,0.0,0.0,0.0,0.0,0.0,0.0,0.0,0.0,0.0,0.0,0.0,0.0,0.0,0.0,4.4616,4.5753,4.683,4.683,4.7336,4.7932,4.3768,4.1683,4.1294,4.1713,0.0,0.0,0.0,0.0,0.0,0.0,0.0,0.0,0.0,0.0,0.0,0.0,0.0,0.0,0.0,0.0,0.0,0.0,0.0,0.0,0.0,0.0,1.8068,1.8068,1.8068,1.8028,0.0,0.0,0.0,0.0,0.0,0.0,0.0,0.0,0.0,0.0,0.0,2.1907,2.1995,2.2339,2.2949,2.3452,2.1016,0.0,0.0,0.0,0.0,0.0,0.0,0.0,0.0,0.0,0.0,0.0,0.0,0.0,0.0,0.0,0.0,0.0,0.0,0.0,0.0,0.0,0.0,0.0,0.0,0.0,0.0,0.0,0.0,0.0,0.0,0.0,0.0,0.0,0.0,0.0,0.0,0.0,0.0,0.0,0.0,0.0,0.0,0.0,3.6447,3.7075,0.0,0.0,0.0,0.0,0.0,0.0,0.0,0.0,0.0,0.0,0.0,0.0,0.0,4.4317,4.5394,4.68,4.7489,4.7519,4.8267,4.8716,4.8865,4.8865,4.9824,5.1334,4.9132,0.0,4.4616,4.4137,0.0,0.0,0.0,0.0,0.0,0.0,0.0,0.0,0.0,0.0,0.0,0.0,0.0,0.0,0.0,0.0,0.0,0.0,0.0,0.0,0.0,1.8559,1.8794,1.8794,1.9433,1.939,1.8287,0.0,0.0,0.0,0.0,0.0,0.0,0.0,0.0,0.0,2.2618,2.3289,2.4027,2.3745,2.4028,2.4759,2.3509,2.2789,2.2502,2.2521,0.0,0.0,0.0,0.0,0.0,0.0,0.0,0.0,0.0,0.0,0.0,0.0,0.0,0.0,0.0,0.0,0.0,0.0,0.0,0.0,0.0,0.0,0.0,0.0,0.0,0.0,0.0,0.0,0.0,0.0,0.0,0.0,0.0,0.0,0.0,0.0,0.0,0.0,0.0,3.7704,3.8781,3.7554,3.9589,4.0516,0.0,0.0,0.0,0.0,0.0,0.0,0.0,0.0,0.0,4.5663,4.695,4.8083,4.9004,5.0365,5.1602,5.2612,5.3304,5.4183,5.5298,5.5298,5.5603,5.6122,5.5348,5.3577,5.1031,4.7426,4.5005,4.3419,0.0,0.0,0.0,0.0,4.5138,4.5446,0.0,0.0,0.0,0.0,0.0,0.0,0.0,0.0,0.0,0.0,0.0,0.0,1.8703,1.9263,1.9712,1.9894,2.0597,2.049,1.9108,1.9189,0.0,0.0,0.0,0.0,0.0,0.0,0.0,2.4113,2.4502,2.5266,2.6382,2.5829,2.5884,2.6427,2.6427,2.5344,2.3628,2.3806,2.342,0.0,0.0,0.0,0.0,0.0,0.0,0.0,0.0,0.0,0.0,0.0,0.0,0.0,0.0,0.0,0.0,0.0,0.0,0.0,0.0,0.0,0.0,0.0,0.0,0.0,0.0,0.0,0.0,0.0,0.0,0.0,0.0,0.0,0.0,0.0,0.0,0.0,0.0,3.9469,4.0337,3.8182,4.0696,4.1773,0.0,0.0,0.0,0.0,0.0,0.0,4.4847,4.6761,4.8531,5.0035,5.1421,5.2546,5.3253,5.4546,5.5925,5.751,5.8001,5.9073,6.065,6.065,6.065,6.0517,6.0126,5.9103,5.7327,5.1636,4.8053,4.6251,4.6154,4.601,4.616,4.7332,4.8383,4.9343,0.0,0.0,0.0,0.0,0.0,0.0,0.0,0.0,0.0,0.0,0.0,1.8703,1.9291,1.995,2.0569,2.1175,2.0737,2.0522,2.068,1.9576,1.9065,1.9324,1.9636,0.0,0.0,0.0,0.0,2.5686,2.6951,2.8094,2.9092,2.9592,2.9544,2.9136,2.9136,2.7988,2.5974,2.4958,2.4654,2.4648,0.0,0.0,0.0,0.0,0.0,0.0,0.0,0.0,0.0,0.0,0.0,0.0,0.0,0.0,0.0,0.0,0.0,0.0,0.0,0.0,0.0,0.0,0.0,0.0,0.0,0.0,0.0,0.0,0.0,0.0,0.0,0.0,0.0,0.0,0.0,0.0,0.0,0.0,0.0,3.9409,4.1654,0.0,0.0,0.0,0.0,4.4018,4.5903,4.7665,4.934,5.097,5.2702,5.4739,5.6537,5.8054,5.9073,5.9983,6.0928,6.1606,6.1699,6.21,6.2778,6.2778,6.299,6.3454,6.231,6.1969,6.1948,5.6776,5.3429,5.1668,5.0999,5.0756,5.0877,5.1577,5.1881,5.2063,0.0,0.0,0.0,0.0,0.0,0.0,0.0,0.0,0.0,1.8461,1.8815,1.9319,1.9978,2.0962,2.1777,2.2395,2.2648,2.2365,2.1423,2.1121,2.0834,2.0505,2.0207,0.0,0.0,0.0,2.5944,2.7968,2.9144,3.0403,3.1801,3.1048,3.074,3.0821,3.1169,3.0527,2.8986,2.7508,2.6356,2.548,2.5253,2.4505,0.0,0.0,0.0,0.0,0.0,0.0,0.0,0.0,0.0,0.0,0.0,0.0,0.0,0.0,0.0,0.0,0.0,0.0,0.0,0.0,0.0,0.0,0.0,0.0,0.0,0.0,0.0,0.0,0.0,0.0,0.0,0.0,0.0,0.0,0.0,0.0,0.0,4.3958,4.6561,0.0,4.5334,4.5992,4.6886,4.7688,4.9614,5.2215,5.5349,5.7304,5.9327,6.1512,6.2683,6.3548,6.4226,6.3718,6.4398,6.6274,6.5374,6.553,6.665,6.665,6.6399,6.596,6.5495,6.5407,6.533,6.2965,5.9513,5.5455,5.4324,5.4077,5.447,5.5653,5.6645,5.7545,0.0,0.0,0.0,0.0,0.0,0.0,0.0,0.0,0.0,1.8152,1.9107,2.0007,2.0625,2.1974,2.3069,2.3688,2.3744,2.3413,2.2554,2.218,2.184,2.1643,2.1445,0.0,0.0,2.6127,2.8364,3.0507,3.1426,3.2695,3.4332,3.2905,3.2439,3.2687,3.2922,3.2541,3.1709,3.0341,2.8756,2.7026,2.6212,2.5593,2.5044,0.0,0.0,0.0,0.0,0.0,0.0,0.0,0.0,0.0,0.0,0.0,0.0,0.0,0.0,0.0,0.0,0.0,0.0,0.0,0.0,0.0,0.0,0.0,0.0,0.0,0.0,0.0,0.0,0.0,0.0,0.0,0.0,0.0,0.0,4.5783,4.8117,4.7698,5.0541,5.1768,4.9793,5.0395,5.1331,5.2392,5.4874,5.7731,6.1271,6.3209,6.5161,6.6918,6.7218,6.7514,6.7697,6.6745,6.6995,6.8671,6.7762,6.7903,6.8703,6.8997,6.8711,6.8159,6.8447,6.8476,6.8377,6.7926,6.5358,6.1665,5.975,5.9242,5.983,6.0729,6.1581,6.2336,0.0,0.0,0.0,0.0,0.0,0.0,0.0,1.7197,1.759,1.759,1.9248,2.0653,2.1288,2.3005,2.4385,2.4924,2.3828,2.335,2.4047,2.2534,2.1928,2.2644,2.3273,0.0,2.5609,2.7451,3.0016,3.3143,3.379,3.4957,3.6611,3.5366,3.4852,3.4929,3.4279,3.3973,3.3869,3.3349,3.1775,2.9442,2.6999,2.6519,2.7077,0.0,0.0,0.0,0.0,0.0,0.0,0.0,0.0,0.0,0.0,0.0,0.0,0.0,0.0,0.0,0.0,0.0,0.0,0.0,0.0,0.0,0.0,0.0,0.0,0.0,0.0,0.0,0.0,0.0,0.0,0.0,0.0,0.0,4.4407,4.7878,5.0391,5.0511,5.3384,5.464,5.2725,5.4873,5.6968,5.8278,6.1481,6.4405,6.6669,6.8473,6.9798,7.0512,7.0195,6.9881,6.9638,6.906,6.8766,6.8766,6.8766,6.8798,6.8875,6.967,7.0091,7.0091,7.0884,7.1289,7.1289,7.1289,7.0953,7.015,6.7131,6.6353,6.6967,6.6667,6.6566,6.6341,0.0,0.0,0.0,0.0,0.0,0.0,0.0,1.6831,1.7084,1.7534,1.9613,2.1288,2.1907,2.3603,2.4783,2.498,2.3828,2.3279,2.3644,2.2534,2.2553,2.4144,2.4887,0.0,2.8168,3.0542,3.2662,3.4469,3.5792,3.673,3.7198,3.6435,3.5899,3.5447,3.5376,3.4986,3.457,3.4407,3.3973,3.3105,3.031,2.849,2.7328,0.0,0.0,0.0,0.0,0.0,0.0,0.0,0.0,0.0,0.0,0.0,0.0,0.0,0.0,0.0,0.0,0.0,0.0,0.0,0.0,0.0,0.0,0.0,0.0,0.0,0.0,0.0,0.0,0.0,0.0,0.0,4.5544,4.7878,4.8506,5.1199,5.4012,5.6376,5.8746,6.0257,6.0464,6.1737,6.3056,6.4439,6.6635,6.9084,7.1755,7.2958,7.4034,7.4897,7.4203,7.3338,7.2143,7.1362,7.0694,7.022,7.1328,7.1849,7.1958,7.2818,7.3135,7.3103,7.2789,7.297,7.3542,7.2846,7.3045,7.3575,7.0297,6.9001,6.8852,6.9367,6.958,6.9451,0.0,0.0,0.0,0.0,0.0,0.0,0.0,1.6354,1.6831,1.7169,1.9585,2.1541,2.2114,2.3631,2.4638,2.4638,2.3787,2.3226,2.3112,2.302,2.358,2.4936,2.6418,2.8236,3.0424,3.275,3.4712,3.6416,3.7097,3.7704,3.8242,3.7382,3.6953,3.688,3.6352,3.6119,3.5946,3.5654,3.5737,3.5791,3.381,3.1909,3.0077,2.8425,2.7538,2.71,2.6012,2.6059,2.646,2.5652,0.0,0.0,0.0,0.0,0.0,0.0,0.0,0.0,0.0,0.0,0.0,0.0,0.0,0.0,0.0,0.0,0.0,0.0,0.0,0.0,0.0,0.0,0.0,0.0,4.9105,5.2157,5.4461,5.5867,5.7693,6.0636,6.2829,6.4357,6.5147,6.6365,6.7548,6.852,7.014,7.2163,7.4375,7.5355,7.6205,7.7179,7.6362,7.5292,7.4042,7.3195,7.2362,7.1642,7.3003,7.3495,7.3605,7.4792,7.5422,7.5389,7.5267,7.5506,7.5871,7.4871,7.4903,7.5368,0.0,0.0,0.0,0.0,7.1754,7.1653,0.0,0.0,0.0,0.0,0.0,0.0,0.0,1.5843,1.6691,1.6691,1.9401,2.1485,2.1945,2.3202,2.3963,2.3906,2.351,2.313,2.2735,2.3768,2.4793,2.5697,2.8148,3.0423,3.2463,3.4416,3.6387,3.8392,3.7883,3.8242,3.9409,3.8279,3.8018,3.8456,3.7423,3.7214,3.7449,3.6989,3.715,3.7582,3.7039,3.5656,3.3815,3.1595,3.1182,3.1516,2.9968,2.908,2.8511,2.7957,0.0,0.0,0.0,0.0,0.0,0.0,0.0,0.0,0.0,0.0,0.0,0.0,0.0,0.0,0.0,0.0,0.0,0.0,0.0,0.0,0.0,0.0,0.0,0.0,5.3025,5.6406,6.0805,6.1216,6.1717,6.3834,6.5966,6.7474,6.7954,6.9441,7.0673,7.1361,7.2732,7.4204,7.5718,7.6594,0.0,0.0,0.0,7.6352,7.5546,7.4775,7.3964,7.2927,7.4188,7.4665,7.471,7.6253,7.7009,7.7009,7.768,7.7976,7.7942,7.6871,7.6272,7.584,7.4106,7.4006,7.4506,7.3509,7.3111,7.3011,0.0,0.0,0.0,0.0,0.0,0.0,0.0,1.5747,1.6592,1.6691,1.9401,2.1175,2.0793,2.2255,2.3097,2.2592,2.2175,2.2291,2.3098,2.441,2.611,2.8272,3.0423,3.2522,3.441,3.6603,3.7933,3.8392,3.8811,3.917,3.9409,3.9145,3.8855,3.853,3.883,3.8396,3.7557,3.7923,3.8171,3.8233,3.8125,3.6818,3.4821,3.3426,3.2501,3.1955,3.1066,3.157,3.2385,3.147,3.194,3.2751,3.1845,3.085,0.0,0.0,0.0,0.0,0.0,0.0,0.0,0.0,0.0,0.0,0.0,0.0,0.0,0.0,0.0,0.0,0.0,0.0,0.0,5.2875,5.6762,6.0434,6.3364,6.5632,6.696,6.7089,6.8194,6.9556,7.1313,7.2457,7.3538,7.4722,7.5926,7.7129,7.812,7.8989,7.9533,7.9769,7.8259,7.7106,7.6266,7.5973,7.5153,7.3948,7.6702,0.0,7.7119,7.8118,7.8656,7.8622,7.8148,7.7976,7.7942,7.6673,7.5873,7.5402,7.4405,7.4504,7.5002,7.3608,7.3111,7.3011,0.0,0.0,0.0,0.0,0.0,0.0,0.0,1.584,1.6753,1.7506,1.9501,2.0934,2.1271,2.2086,2.2507,2.2198,2.1969,2.2468,2.4099,2.5616,2.7365,2.951,3.205,3.4103,3.574,3.7485,3.8571,3.8901,3.926,3.9409,3.9409,3.9409,3.9444,3.9476,3.9501,3.9509,3.9482,3.9782,4.0069,4.0343,4.0327,3.9885,3.9088,3.7538,3.6661,3.6252,3.6058,3.6332,3.6716,3.6034,3.6007,3.617,3.5138,3.3935,3.2828,0.0,0.0,0.0,0.0,0.0,0.0,0.0,0.0,0.0,0.0,0.0,0.0,0.0,0.0,4.5492,4.7546,0.0,5.448,5.7813,6.1176,6.4349,6.7212,6.8907,6.9673,6.9025,7.0204,7.1839,7.3399,7.4458,7.5534,7.6508,7.7245,7.8046,7.8869,7.9321,7.9768,8.0209,7.9321,7.8491,7.7668,7.7599,7.6997,7.5871,7.8006,7.8702,7.8441,7.9229,7.9667,7.9634,7.9261,7.9092,7.9025,7.7682,7.6873,7.6258,7.5529,7.5264,7.5132,7.424,7.3841,7.3907,0.0,0.0,0.0,0.0,0.0,0.0,0.0,0.0,1.692,1.8142,1.9445,2.0569,2.1552,2.1749,2.1935,2.2112,2.2291,2.3272,2.5345,2.717,2.8979,3.0778,3.3657,3.5818,3.7015,3.8302,3.917,3.9619,3.9619,3.9619,3.9619,3.9619,4.0038,4.0786,4.0305,4.0705,4.1778,4.1782,4.2109,4.2681,4.2716,4.3206,4.3653,4.2276,4.1421,4.0969,4.1057,4.0632,4.0037,3.9816,3.9278,3.8507,3.8084,3.713,3.5883,3.4554,3.3936,0.0,0.0,0.0,0.0,0.0,0.0,0.0,0.0,4.0575,4.2879,4.5026,4.7843,5.0804,5.3806,5.6968,5.9894,6.2747,6.5322,6.785,7.0589,7.1603,7.1939,7.1191,7.2512,7.3939,7.5185,7.5991,7.6911,7.7796,7.7796,7.823,7.9113,7.9217,7.9492,8.0412,8.0141,7.9699,7.9102,7.8936,7.8551,7.7829,7.8797,7.9217,7.9217,7.987,8.0209,8.0209,8.0209,8.0107,7.9837,7.8891,7.8074,7.7456,7.6755,7.6192,7.5698,7.5204,7.5006,7.5205,0.0,0.0,0.0,0.0,0.0,0.0,0.0,0.0,0.0,1.7581,1.877,1.9544,1.9684,2.0259,2.0968,2.1917,2.3049,2.4567,2.6667,2.8901,3.1127,3.3372,3.6335,3.8302,3.908,4.0367,4.0786,4.0277,4.0277,4.0277,4.0277,4.0277,4.0935,4.2132,4.2132,4.2456,4.3094,4.3069,4.3458,4.4085,4.4624,4.5224,4.5802,4.6301,4.502,4.291,4.2367,4.1311,4.0371,4.0912,4.0627,4.0171,4.0713,4.0453,3.9705,3.8482,3.6864,3.5568,3.5353,3.5467,3.6037,3.7748,3.9583,4.1683,0.0,4.691,4.8982,5.1194,5.3799,5.6076,5.7542,6.1304,6.4309,6.5097,6.8065,7.0504,7.1154,7.3483,7.5215,7.5436,7.5598,7.6177,7.7193,7.7434,7.7796,7.8657,7.8763,7.9113,7.9972,8.0074,8.0378,8.1156,7.976,7.9308,7.9868,7.9202,7.8869,7.8763,7.9665,8.0074,8.0074,8.0209,8.0209,8.0209,8.0209,7.9702,7.8859,7.9123,7.8678,7.7766,7.7456,7.7357,7.7537,7.6804,7.6708,7.691,0.0,0.0,0.0,0.0,0.0,0.0,0.0,0.0,0.0,0.0,1.9098,2.0007,2.0007,2.0642,2.1483,2.2439,2.3126,2.4681,2.7483,2.9818,3.2258,3.5001,3.8012,3.9499,3.9409,4.0696,4.1055,4.0397,4.0397,4.0606,4.0965,4.0965,4.1683,4.294,4.3329,4.3856,4.4472,4.4887,4.5398,4.6021,4.6308,4.704,4.7842,4.6988,4.5727,4.4347,4.3701,4.2878,0.0,0.0,4.1997,4.2122,4.2324,4.1599,4.0408,3.9412,3.7816,3.6413,3.6756,3.8023,3.9671,4.1647,4.3767,4.6433,4.9835,5.1878,5.3752,5.6373,5.9633,6.2424,6.3909,6.6789,6.9069,6.9772,7.1612,7.3461,7.4299,7.5534,7.6515,7.7204,7.724,7.7499,7.8238,7.8337,7.8657,7.9528,8.0035,8.051,8.0818,8.1257,8.1629,8.1934,8.1319,8.1077,8.1379,8.1077,8.0942,8.0909,8.0816,8.1054,8.146,8.1021,8.0818,8.0818,8.0378,7.9905,7.9364,7.9358,7.9117,7.8712,7.8364,7.8574,7.8889,7.7512,7.7178,7.748,0.0,0.0,0.0,0.0,0.0,0.0,0.0,0.0,0.0,0.0,0.0,1.9626,1.9835,2.0625,2.1481,2.2333,2.3052,2.467,2.7524,2.9911,3.2526,3.5562,3.8579,4.0068,3.9948,4.1235,4.1594,4.0935,4.0935,4.1294,4.1923,4.1923,4.2731,4.4167,4.4466,4.5065,4.5873,4.6381,4.686,4.7282,4.7673,4.8148,4.8566,4.6697,4.5361,4.4407,4.3748,4.2731,0.0,4.1384,4.1444,4.1786,4.2246,4.1636,4.0636,3.9915,3.8725,3.7725,3.8492,4.0606,4.313,4.5586,4.8323,5.1233,5.4857,5.6955,5.897,6.166,6.4825,6.7628,6.9052,7.1009,7.2598,7.2895,7.4034,7.515,7.5813,7.6104,7.6457,7.7008,7.6898,7.7205,7.825,7.8682,7.9327,8.0175,8.0885,8.1291,8.1291,8.2002,8.2509,8.2712,8.2509,8.2509,8.2712,8.2509,8.2408,8.2408,8.1866,8.1866,8.2374,8.1629,8.1393,8.1528,8.0615,8.0209,8.0173,7.9663,7.9492,7.9492,7.9146,7.9355,7.9667,7.8387,7.8119,7.8286,0.0,0.0,0.0,0.0,0.0,0.0,0.0,0.0,0.0,0.0,0.0,0.0,0.0,0.0,2.0291,2.1097,2.2833,2.4704,2.6649,2.9119,3.1842,3.4817,3.7823,4.0038,4.1294,4.2611,4.294,4.2312,4.2312,4.2641,4.3269,4.3269,4.4317,4.6202,4.5544,4.5992,4.7249,4.7279,4.7279,4.7429,4.8716,4.8476,4.7219,4.5873,4.4137,4.2372,4.1713,0.0,3.7674,3.8302,3.8093,3.7943,3.9888,4.0905,4.1265,4.0532,4.0281,4.0264,4.1115,4.3119,4.5868,4.9566,5.2958,5.6333,5.9975,6.2746,6.5204,6.7483,6.9278,7.0695,7.1324,7.3077,7.4044,7.2989,7.4446,7.5304,7.4435,7.4463,7.4695,7.4639,7.3984,7.4525,7.6792,7.828,7.9431,8.0141,8.0885,8.1291,8.1291,8.2002,8.2746,8.3422,8.278,8.2746,8.3456,8.278,8.2408,8.2408,8.2408,8.2408,8.2374,8.1629,8.1697,8.2306,8.0818,8.0615,8.119,8.0173,7.9801,7.9801,7.9492,7.9596,7.9801,7.9734,7.9938,8.0141,0.0,0.0,0.0,0.0,0.0,0.0,0.0,0.0,0.0,0.0,0.0,0.0,0.0,0.0,0.0,0.0,2.2295,2.4036,2.6205,2.8931,3.1541,3.3865,3.7455,3.9619,4.0068,4.1354,4.2132,4.2372,4.1923,4.2491,4.3988,4.3988,4.4825,4.6322,4.6531,4.689,4.7309,4.7309,4.7818,4.8536,4.7668,4.7848,4.8267,4.5155,4.2761,4.0816,0.0,0.0,3.6178,3.6417,3.6626,3.7075,3.8571,3.8931,3.8762,3.894,4.0893,4.3271,4.423,4.8573,5.3436,5.5967,5.919,6.2551,6.5833,6.6786,6.7285,6.8334,6.8885,6.9043,6.8129,6.962,7.0845,7.0514,7.2712,7.4282,7.4161,7.4798,7.4653,7.3177,7.3669,7.409,7.3891,7.6183,7.8551,8.075,8.1596,8.2475,8.3456,8.4234,8.4776,8.5012,8.4776,8.4505,8.4234,8.3998,8.3862,8.3862,8.3355,8.3118,8.3084,8.2374,8.2171,8.2374,8.1359,8.0784,8.0547,8.0005,7.9904,8.0006,7.9801,8.0104,8.0749,8.0276,8.0716,8.1596,0.0,0.0,0.0,0.0,0.0,0.0,0.0,0.0,0.0,0.0,0.0,0.0,0.0,0.0,0.0,0.0,0.0,2.319,2.5238,2.7476,2.9744,3.1988,3.4741,3.6567,3.7285,3.8362,3.923,3.9918,3.9709,4.0636,4.2581,4.2791,4.3629,4.4945,4.5603,4.6022,4.6232,4.6232,4.6591,4.701,4.5514,4.5244,4.5394,4.2132,3.9798,0.0,0.0,0.0,3.4113,3.4352,3.4861,3.5609,3.6656,3.7481,3.8228,3.9061,4.2633,4.661,4.8315,5.3396,5.8796,6.1371,6.4038,6.671,6.9098,6.9349,6.8788,6.8004,6.7849,6.7135,6.5126,6.5708,6.6763,6.7711,6.9382,7.1235,7.2748,7.3163,7.3054,7.268,7.3007,7.3385,7.3519,7.5574,7.7807,7.9938,8.1528,8.2949,8.4167,8.5486,8.6061,8.579,8.579,8.5418,8.464,8.464,8.464,8.4606,8.4133,8.3896,8.3862,8.3152,8.2949,8.3152,8.2137,8.1426,8.0953,8.0512,8.0344,8.0209,8.0006,8.0378,8.0885,8.0648,8.1021,8.1596,0.0,0.0,0.0,0.0,0.0,0.0,0.0,0.0,0.0,0.0,0.0,0.0,0.0,0.0,0.0,0.0,0.0,0.0,2.367,2.487,2.6703,2.9265,3.0073,3.136,3.3305,3.3993,3.4681,3.54,3.6028,3.7315,3.923,3.9888,4.0876,4.2132,4.2761,4.3389,4.4018,4.4018,4.3688,4.312,4.2402,4.1025,3.92,3.7195,0.0,0.0,0.0,3.2079,3.1631,3.2377,3.3155,3.3903,3.4625,3.7001,3.9895,4.1384,4.5556,5.0279,5.3241,5.7496,6.1918,6.5459,6.7309,6.8627,7.0034,7.0377,6.9599,6.6727,6.5998,6.4835,6.2012,6.1399,6.2139,6.4578,6.523,6.6695,7.0526,7.0103,7.0377,7.292,7.2237,7.2641,7.5439,7.6454,7.7299,7.8077,8.0818,8.2813,8.3625,8.5757,8.6636,8.5926,8.5892,8.552,8.4674,8.464,8.464,8.464,8.4573,8.4573,8.4606,8.3828,8.3896,8.4471,8.305,8.2408,8.2306,8.1562,8.0851,8.0209,8.0242,8.0276,8.0378,8.0987,8.0851,8.0445,0.0,0.0,0.0,0.0,0.0,0.0,0.0,0.0,0.0,0.0,0.0,0.0,0.0,0.0,0.0,0.0,0.0,0.0,2.171,2.375,2.5355,2.6357,2.8562,3.0283,3.124,3.1928,3.2856,3.3993,3.4173,3.504,3.6507,3.7165,3.7913,3.8691,3.8841,3.929,3.9888,3.9888,4.0397,4.0995,0.0,3.896,3.914,0.0,0.0,0.0,0.0,3.2585,3.1957,3.3451,3.5729,3.8072,3.926,4.125,4.3741,4.7119,5.1294,5.5602,5.8748,6.3258,6.7411,6.8713,6.983,7.0478,6.9945,6.821,6.5927,6.294,6.0248,5.774,5.4876,5.6582,5.9283,6.1832,6.5419,6.927,7.3156,7.3866,7.4018,7.4136,7.4772,7.5368,7.5648,7.6927,7.8483,8.031,8.2171,8.4031,8.5926,8.711,8.7617,8.7448,8.7448,8.6805,8.5486,8.4911,8.464,8.4606,8.4065,8.4065,8.4606,8.3828,8.3592,8.3727,8.2813,8.2103,8.1562,8.1359,8.0851,8.0242,8.0784,8.1359,8.1731,8.0818,8.1393,8.2611,0.0,0.0,0.0,0.0,0.0,0.0,0.0,0.0,0.0,0.0,0.0,0.0,0.0,0.0,0.0,0.0,0.0,0.0,0.0,2.2348,2.3655,2.4336,2.5766,2.6908,2.7661,2.8204,2.8996,3.0043,3.0145,3.0921,3.2228,3.2963,3.3667,3.4286,3.4876,3.5495,3.6084,3.579,0.0,0.0,0.0,0.0,0.0,0.0,0.0,0.0,3.2252,3.3362,3.5048,3.7304,3.907,4.0842,4.3685,4.6358,4.9094,5.2586,5.6901,6.0981,6.3832,6.7754,7.1237,7.1585,7.1553,7.0791,6.801,6.56,6.2556,5.7698,5.5089,5.2867,5.0097,5.2156,5.5364,5.9051,6.3007,6.7574,7.3036,7.4156,7.4941,7.6233,7.7177,7.7816,7.8179,7.9532,8.1054,8.2644,8.3524,8.4877,8.6805,8.7922,8.8328,8.8023,8.7685,8.6805,8.5283,8.4843,8.464,8.464,8.42,8.42,8.4606,8.42,8.3998,8.3964,8.3219,8.2644,8.2205,8.1562,8.1054,8.0682,8.0784,8.1054,8.1426,8.1224,8.1731,8.2611,0.0,0.0,0.0,0.0,0.0,0.0,0.0,0.0,0.0,0.0,0.0,0.0,0.0,0.0,0.0,0.0,0.0,0.0,0.0,0.0,0.0,0.0,2.2751,2.3074,2.3885,2.4161,2.464,2.5206,2.557,2.6301,0.0,0.0,0.0,0.0,0.0,0.0,0.0,0.0,0.0,0.0,0.0,0.0,0.0,0.0,0.0,0.0,3.0742,3.3993,3.8473,4.1944,4.3097,4.3894,4.8357,5.2073,5.5283,5.8335,6.2173,6.6096,6.8324,7.1306,7.3674,7.3371,7.224,6.9958,6.5084,6.2237,5.8776,5.2323,5.0442,4.933,4.6905,4.8519,5.1802,5.6965,6.0282,6.4879,7.2343,7.3468,7.4944,7.8808,7.933,8.0006,8.1562,8.2881,8.4031,8.5012,8.5114,8.5689,8.6974,8.8328,8.8801,8.8158,8.7347,8.6332,8.508,8.4776,8.4674,8.4776,8.4674,8.464,8.464,8.464,8.464,8.4573,8.3828,8.3422,8.3253,8.2069,8.1393,8.1088,8.0648,8.0479,8.0648,8.1832,8.1968,8.1866,0.0,0.0,0.0,0.0,0.0,0.0,0.0,0.0,0.0,0.0,1.0385,1.0691,0.0,0.0,0.0,0.0,0.0,0.0,0.0,0.0,0.0,0.0,2.2338,2.2615,2.2775,2.2821,2.2925,2.304,2.3673,2.4077,2.4336,2.55,2.6107,0.0,0.0,0.0,0.0,0.0,0.0,0.0,0.0,0.0,0.0,0.0,0.0,0.0,3.1225,3.3499,3.675,4.355,4.795,5.1371,5.4994,5.8154,6.1214,6.5254,6.7386,6.9173,7.1949,7.3501,7.4018,7.2453,7.0193,6.7061,6.2373,5.7589,5.2989,4.9068,4.7012,4.5539,4.4414,4.7683,5.2542,5.8435,6.2583,6.7834,7.5603,7.6828,7.7974,8.0544,8.0885,8.1731,8.3828,8.4268,8.5249,8.7279,8.7414,8.755,8.7786,8.8632,8.9038,8.8903,8.7617,8.7076,8.7414,8.5554,8.4945,8.5587,8.4945,8.464,8.464,8.464,8.464,8.4573,8.3828,8.3152,8.2644,8.2983,8.2035,8.0513,8.1596,8.2035,8.2002,8.1629,8.2171,8.3152,0.0,0.0,0.0,0.0,0.0,0.0,0.0,0.0,0.8799,0.9076,0.9021,0.9359,1.0543,1.1247,0.0,0.0,0.0,0.0,0.0,0.0,0.0,0.0,0.0,0.0,2.2263,2.242,2.2512,2.2512,0.0,2.254,2.2853,2.3616,2.409,2.4367,2.497,2.5577,2.6106,2.5854,2.6104,2.6637,2.6944,2.7388,0.0,0.0,0.0,0.0,0.0,3.3927,3.7353,4.2927,4.8779,5.4454,5.9024,6.2421,6.5318,6.8844,7.0403,7.1504,7.3998,7.5196,7.5182,7.2604,6.9574,6.5504,5.9311,5.429,4.977,4.5418,4.4308,4.4013,4.3333,4.6858,5.1215,5.5246,5.9061,6.4288,7.2216,7.4196,7.6306,8.0544,8.2202,8.3592,8.508,8.5926,8.6974,8.8463,8.8564,8.8564,8.8564,8.8903,8.8903,8.8531,8.7854,8.7448,8.7448,8.596,8.5418,8.579,8.4979,8.464,8.464,8.464,8.4843,8.5148,8.3998,8.3761,8.4065,8.2847,8.1968,8.1359,8.1291,8.1494,8.1832,8.1866,8.2543,8.3558,0.0,0.0,0.0,0.0,0.0,0.0,0.0,0.8002,0.7981,0.8369,0.8132,0.8547,0.9976,1.0597,1.114,0.0,0.0,0.0,0.0,0.0,0.0,0.0,0.0,0.0,0.0,0.0,0.0,2.1974,2.1403,0.0,0.0,0.0,0.0,0.0,2.3817,2.4337,2.465,2.4279,2.4363,0.0,0.0,2.5781,0.0,0.0,0.0,0.0,0.0,3.3959,3.7782,4.1674,4.7316,5.3624,5.9137,6.3768,6.7618,6.9853,7.1569,7.3156,7.5164,7.6232,7.6007,7.2764,6.8997,6.4152,5.6622,5.1734,4.7434,4.2643,4.2613,4.3291,4.2911,4.5866,4.9264,5.1958,5.4945,5.9968,6.8531,7.1128,7.4439,8.0508,8.325,8.5012,8.5926,8.7211,8.8294,8.9038,8.9072,8.9072,8.9072,8.9072,8.8835,8.826,8.8091,8.7786,8.738,8.6467,8.6027,8.6027,8.5249,8.4776,8.464,8.4809,8.5114,8.5486,8.4437,8.4471,8.5114,8.2746,8.1934,8.2069,8.1054,8.1021,8.1629,8.2374,8.3118,8.3828,0.0,0.0,0.0,0.0,0.0,0.0,0.0,0.799,0.8245,0.8077,0.8151,0.837,0.865,0.8828,0.9281,0.0,0.0,0.0,0.0,0.0,0.0,0.0,0.0,0.0,0.0,0.0,0.0,2.0422,2.0194,0.0,0.0,0.0,0.0,0.0,0.0,2.3695,2.3754,2.3695,0.0,0.0,0.0,0.0,0.0,0.0,0.0,0.0,0.0,3.2282,3.628,4.0588,4.3932,4.7221,5.2681,6.0328,6.723,6.7489,7.0371,7.3804,7.5326,7.6232,7.5878,7.1935,6.743,6.2225,5.5349,4.9743,4.5203,4.2355,4.2314,4.2663,4.2571,4.4356,4.7342,5.1717,5.4116,5.8914,6.9119,7.1851,7.5272,8.1457,8.3693,8.5215,8.667,8.7516,8.8294,8.9038,8.9072,8.9072,8.9072,8.9072,8.9038,8.897,8.8328,8.8294,8.8869,8.7516,8.6805,8.6805,8.6061,8.5317,8.464,8.5351,8.5317,8.4776,8.5317,8.4877,8.3693,8.3422,8.2543,8.1426,8.2002,8.2238,8.2408,8.3118,8.3862,8.4539,0.0,0.0,0.0,0.0,0.0,0.0,0.0,0.7456,0.7792,0.8189,0.8289,0.8381,0.8518,0.8576,0.8893,0.0,0.0,0.0,0.0,0.0,0.0,0.0,0.0,0.0,0.0,0.0,1.9734,1.9837,1.9708,0.0,0.0,0.0,0.0,0.0,0.0,2.3365,2.3577,2.3305,0.0,0.0,0.0,0.0,0.0,0.0,0.0,0.0,0.0,0.0,3.3859,3.6559,3.999,4.331,4.4526,5.0738,5.8719,6.3768,6.7392,7.0397,7.3402,7.4879,7.4619,7.0694,6.5415,5.9815,5.4145,4.849,4.371,4.1472,4.1564,4.1986,4.1986,4.2898,4.4511,4.7099,4.7942,5.1316,6.0028,6.3407,6.8235,7.7245,8.0847,8.393,8.7245,8.8226,8.8767,8.9072,8.9072,8.9072,8.9072,8.9072,8.9072,8.9072,8.8801,8.8801,8.9072,8.8091,8.7347,8.6907,8.6602,8.6061,8.5351,8.6095,8.6298,8.5993,8.5858,8.5418,8.4776,8.3389,8.2746,8.2577,8.1968,8.2272,8.3084,8.3389,8.3964,8.464,0.0,0.0,0.0,0.0,0.0,0.7449,0.7062,0.7235,0.7626,0.8175,0.8334,0.8443,0.8584,0.852,0.868,0.9249,0.0,0.0,0.0,0.0,0.0,0.0,0.0,0.0,0.0,0.0,1.8927,1.9162,1.9028,1.9191,0.0,0.0,2.1011,2.155,0.0,0.0,0.0,0.0,0.0,0.0,0.0,0.0,0.0,0.0,0.0,0.0,0.0,0.0,0.0,0.0,0.0,3.9474,3.8775,4.2966,4.974,5.7891,6.3121,6.7066,7.0544,7.2684,7.3147,6.9516,6.3929,5.8151,5.3253,4.7671,4.3075,4.1009,4.1093,4.1586,4.1515,4.2077,4.2802,4.3852,4.4281,4.7181,5.4735,5.8303,6.3715,7.3175,7.7447,8.1325,8.5587,8.7888,8.9072,8.9072,8.9072,8.9072,8.9072,8.9072,8.9072,8.9072,8.9072,8.9072,8.9072,8.8564,8.7955,8.7245,8.7245,8.6738,8.5824,8.6569,8.667,8.623,8.5926,8.552,8.4979,8.3389,8.2915,8.3084,8.2272,8.2577,8.3524,8.3761,8.4167,8.464,0.0,0.0,0.0,0.0,0.0,0.0,0.0,0.7531,0.803,0.7936,0.8301,0.8584,0.8584,0.8499,0.8414,0.843,0.0,0.0,0.0,0.0,0.0,0.0,0.0,0.0,0.0,0.0,1.7234,1.8139,1.7975,1.7975,1.8162,1.9025,1.971,2.0229,0.0,0.0,0.0,0.0,0.0,0.0,0.0,0.0,0.0,0.0,0.0,0.0,0.0,0.0,0.0,0.0,0.0,0.0,0.0,3.8788,4.1873,4.9437,5.77,6.489,6.6786,6.9711,7.1432,6.8579,6.3214,5.7527,5.2815,4.7496,4.3075,4.1148,4.1233,4.1515,4.124,4.2193,4.3045,4.3319,4.5005,4.884,5.6194,5.9639,6.3877,7.0642,7.4012,7.7232,8.0987,8.6027,8.9072,8.9072,8.9072,8.9072,8.9072,8.9072,8.9072,8.9072,8.9072,8.9072,8.9072,8.9072,8.87,8.7989,8.7989,8.7211,8.5824,8.6569,8.6095,8.4708,8.5452,8.4911,8.3524,8.349,8.305,8.2475,8.3186,8.349,8.3592,8.4336,8.4606,8.464,0.0,0.0,0.0,0.0,0.0,0.0,0.0,0.7203,0.7716,0.7923,0.8357,0.8588,0.8598,0.8476,0.8288,0.7961,0.0,0.0,0.0,0.0,0.0,0.0,0.0,0.0,0.0,0.0,1.6503,1.72,1.7346,1.76,1.7975,1.8723,1.9159,1.9344,2.0321,2.0848,0.0,0.0,0.0,0.0,0.0,0.0,2.2586,0.0,0.0,0.0,0.0,0.0,0.0,0.0,0.0,0.0,0.0,0.0,0.0,4.2798,4.9458,5.6201,5.8558,6.0876,6.1941,5.9593,5.5589,5.1498,4.8653,4.5018,4.2048,4.13,4.0892,4.0944,4.179,4.1693,4.2183,4.4529,4.5297,4.7322,5.2239,5.7412,6.321,7.0174,7.9187,8.5317,8.6501,8.8125,8.8959,8.8733,8.8959,8.8959,8.8733,8.8486,8.8564,8.9072,8.8598,8.8564,8.9072,8.8091,8.7719,8.7989,8.7482,8.7008,8.6569,8.6805,8.6366,8.5418,8.5689,8.4911,8.349,8.349,8.3355,8.3186,8.3422,8.3828,8.4302,8.4539,8.464,8.464,0.0,0.0,0.0,0.0,0.0,0.0,0.0,0.6928,0.7376,0.7601,0.8091,0.8391,0.8424,0.8327,0.8087,0.7739,0.0,0.0,0.0,0.0,0.0,0.0,0.0,0.0,0.0,1.5059,1.57,1.6332,1.6649,1.7048,1.7423,1.8136,1.8532,1.8828,1.9664,2.0121,0.0,0.0,0.0,0.0,0.0,0.0,2.2087,0.0,0.0,0.0,0.0,0.0,0.0,0.0,0.0,0.0,0.0,0.0,0.0,0.0,4.2548,4.7905,5.2175,5.473,5.5968,5.4321,5.1269,4.8087,4.6314,4.3577,4.1352,4.0893,4.0497,4.0395,4.1218,4.114,4.1746,4.3668,4.489,4.6864,5.072,5.6104,6.2668,7.0798,8.0493,8.667,8.6941,8.826,8.8959,8.8847,8.8959,8.8959,8.8847,8.8284,8.8192,8.8666,8.7955,8.782,8.826,8.738,8.7144,8.7583,8.7144,8.6771,8.6467,8.6196,8.5621,8.4911,8.4911,8.4234,0.0,8.3693,8.3761,8.3524,8.3795,8.42,8.464,8.464,8.4809,8.5012,0.0,0.0,0.0,0.0,0.0,0.0,0.0,0.0,0.0,0.6989,0.7615,0.8062,0.8047,0.7972,0.7848,0.7599,0.0,0.0,0.0,0.0,0.0,0.0,0.0,0.0,0.0,1.435,1.4805,1.5545,1.594,1.6316,1.6644,1.7297,1.7919,1.8462,1.919,1.9508,0.0,0.0,0.0,0.0,0.0,0.0,0.0,0.0,0.0,0.0,0.0,0.0,0.0,0.0,0.0,0.0,0.0,0.0,0.0,0.0,0.0,0.0,0.0,5.0669,5.2424,5.172,4.9188,4.6559,4.5214,4.2982,0.0,4.0193,4.0041,3.997,4.0009,4.0932,4.1731,4.182,4.4297,4.7577,5.14,5.6356,6.3185,7.268,7.9195,8.3118,8.3693,8.6974,8.9072,8.9072,8.9038,8.9004,8.9004,8.826,8.7854,8.7854,8.7144,8.6805,8.6907,8.6805,8.6805,8.6907,8.6738,8.6332,8.5689,8.4843,8.4099,8.349,8.349,8.3118,8.2611,8.4031,8.4167,8.3558,8.4336,8.464,8.464,8.464,8.508,8.5621,0.0,0.0,0.0,0.0,0.0,0.0,0.0,0.0,0.0,0.0,0.7233,0.7602,0.7513,0.7301,0.6985,0.0,0.0,0.0,0.0,0.0,0.0,0.0,0.0,0.0,0.0,1.3631,1.4291,1.4942,1.554,1.6136,1.6536,1.7447,1.7708,1.7531,1.8422,1.8786,1.8746,0.0,0.0,0.0,0.0,0.0,0.0,0.0,0.0,0.0,2.4709,2.6013,0.0,0.0,0.0,0.0,0.0,0.0,0.0,0.0,3.6297,3.7653,3.9727,0.0,4.4092,4.3607,4.2879,4.2017,0.0,4.0679,4.0345,4.0535,4.013,4.0402,4.2379,4.2016,4.2526,4.5807,4.7425,4.9413,5.27,6.2587,7.1971,7.8497,8.4102,8.7144,8.6196,8.7922,8.8959,8.8733,8.8453,8.8149,8.7891,8.6898,8.6298,8.6298,8.5554,8.5723,8.6907,8.5757,8.5757,8.6907,8.5148,8.4539,8.4911,8.3558,8.3152,8.349,8.349,8.3389,8.3321,8.4234,8.4167,8.3558,8.4336,8.464,8.464,8.464,8.4742,8.4945,0.0,0.0,0.0,0.0,0.0,0.0,0.0,0.0,0.0,0.0,0.0,0.0,0.0,0.0,0.0,0.0,0.0,0.0,0.0,0.0,0.0,0.0,0.0,0.0,1.2258,1.2964,1.3571,1.4052,1.5136,1.588,1.6317,1.7139,1.7636,1.791,1.8134,1.8304,1.8509,1.824,1.8442,0.0,1.9044,0.0,0.0,0.0,0.0,0.0,2.3866,2.5307,0.0,2.76,2.8325,2.9247,0.0,0.0,0.0,0.0,3.4935,3.6103,3.6182,3.7853,3.955,3.9414,3.9387,3.9358,3.9324,3.9162,3.9281,3.9931,3.9576,3.9771,4.1836,4.173,4.2359,4.5333,4.7532,5.1154,5.7807,6.6773,7.4747,8.0393,8.4985,8.7516,8.7414,8.8125,8.8486,8.834,8.7811,8.7371,8.7261,8.629,8.579,8.579,8.5046,8.5012,8.5858,8.5046,8.5046,8.5858,8.4606,8.4065,8.4133,8.3287,8.2844,8.2807,8.3144,8.3375,8.3605,8.4258,8.4561,8.4797,8.4635,8.4843,8.5148,8.5148,8.5384,8.5723,0.0,0.0,0.0,0.0,0.0,0.0,0.0,0.0,0.0,0.0,0.0,0.0,0.0,0.0,0.0,0.0,0.0,0.0,0.0,0.0,0.0,0.0,0.0,1.0769,1.1841,1.2413,1.2903,1.3268,1.4646,1.5623,1.6072,1.6818,1.764,1.8563,1.8025,1.7955,1.814,1.7745,1.7901,1.8375,1.8375,0.0,0.0,0.0,0.0,0.0,0.0,0.0,0.0,2.7472,2.8168,2.8746,2.973,0.0,0.0,0.0,0.0,0.0,3.4966,3.6115,3.7405,3.7637,3.7709,3.7947,3.8472,3.8248,3.8202,3.9119,3.8988,3.918,4.0546,4.14,4.2359,4.3848,4.762,5.3978,6.4095,7.0006,7.5157,8.0501,8.3934,8.6366,8.738,8.7685,8.782,8.782,8.7144,8.6738,8.6738,8.6027,8.5621,8.5621,8.4979,8.4573,8.4437,8.4573,8.464,8.464,8.4403,8.3964,8.3321,8.3084,8.2675,8.2023,8.2662,8.3221,8.3741,8.4102,8.4985,8.6095,8.504,8.5114,8.5757,8.5655,8.6095,8.6771,0.0,0.0,0.0,0.0,0.0,0.0,0.0,0.0,0.0,0.0,0.0,0.0,0.0,0.0,0.0,0.0,0.0,0.0,0.0,0.0,0.0,0.0,0.9029,1.0118,1.1156,1.1981,1.2613,1.3042,1.4217,1.5256,1.6034,1.7263,1.7903,1.8022,1.7845,1.7402,1.6615,1.6899,1.7304,1.7833,1.7735,0.0,0.0,0.0,0.0,0.0,0.0,0.0,0.0,2.7498,2.8102,2.8729,2.9232,0.0,0.0,0.0,0.0,0.0,3.5039,3.6109,3.6775,3.6842,3.7261,3.7644,3.7796,3.8127,3.8456,3.8604,3.9417,4.0606,4.2289,4.3296,4.471,4.7272,5.3577,6.0771,6.8339,7.3947,7.8207,8.0734,8.4405,8.6332,8.5249,8.6332,8.7076,8.7076,8.6399,8.596,8.596,8.5215,8.4809,8.4809,8.4674,8.4302,8.3659,8.4302,8.464,8.4606,8.3355,8.2678,8.2543,8.1291,8.1222,8.2023,8.2124,8.2718,8.3775,8.4102,8.4682,8.5355,8.4838,8.5114,8.5723,8.5046,8.5283,8.6129,0.0,0.0,0.0,0.0,0.0,0.0,0.0,0.0,0.0,0.0,0.0,0.0,0.0,0.0,0.0,0.0,0.0,0.0,0.0,0.0,0.0,0.7689,0.887,0.9999,1.0968,1.1593,1.2259,1.3042,1.4448,1.5595,1.6514,1.8273,1.8553,1.7475,1.7735,1.7161,1.5991,1.6175,1.6511,1.6985,0.0,0.0,0.0,0.0,0.0,0.0,0.0,0.0,0.0,0.0,2.8356,2.8692,2.9214,0.0,0.0,0.0,0.0,0.0,3.3517,3.4444,3.5388,3.6493,3.7642,3.8512,3.8175,3.8601,3.9305,4.0377,4.0749,4.1614,4.3788,4.55,4.8343,5.4202,5.938,6.4984,7.1461,7.4963,7.8047,8.1375,8.3751,8.5114,8.5249,8.5892,8.6298,8.6298,8.5587,8.5148,8.5148,8.4809,8.464,8.464,8.4234,8.3862,8.349,8.3456,8.3422,8.3422,8.3152,8.2577,8.1799,8.1727,8.172,8.1811,8.2402,8.3153,8.3932,8.4377,8.5034,8.5605,8.5337,8.5452,8.579,8.5824,8.6332,8.7144,0.0,0.0,0.0,0.0,0.0,0.0,0.0,0.0,0.0,0.0,0.0,0.0,0.0,0.0,0.0,0.0,0.0,0.0,0.0,0.0,0.6938,0.7665,0.885,0.994,1.0968,1.1344,1.2132,1.3268,1.4582,1.5918,1.7263,1.8971,1.8866,1.7142,1.7447,1.6825,1.5551,1.5771,1.6011,1.6241,0.0,0.0,0.0,0.0,0.0,0.0,0.0,0.0,0.0,0.0,0.0,0.0,0.0,0.0,0.0,3.0528,3.1364,3.2262,3.2872,3.3783,3.4971,3.6726,3.8084,3.9144,3.9601,4.0124,4.0937,4.29,4.3078,4.3471,4.5747,4.8443,5.2761,6.0142,6.4484,6.8901,7.4526,7.6673,7.8891,8.2472,8.3253,8.4031,8.5384,8.5351,8.5317,8.5486,8.4945,8.464,8.464,8.464,8.464,8.464,8.3896,8.3422,8.3253,8.2678,8.2408,8.2408,8.2813,8.2374,8.1325,8.1993,8.1979,8.1565,8.2409,8.3108,8.3745,8.431,8.4969,8.5683,8.5464,8.552,8.5587,8.6366,8.711,8.7854,0.0,0.0,0.0,0.0,0.0,0.0,0.0,0.0,0.0,0.0,0.0,0.0,0.0,0.0,0.0,0.0,0.0,0.0,0.0,0.0,0.718,0.787,0.8857,0.9894,1.0968,1.1483,1.2461,1.3807,1.4241,1.5716,1.814,1.8589,1.8259,1.7262,1.6801,1.6065,1.5228,1.604,1.6083,1.5836,1.7187,0.0,0.0,0.0,0.0,0.0,0.0,0.0,0.0,0.0,0.0,0.0,0.0,0.0,2.978,3.088,3.1711,3.2663,3.4841,3.5927,3.6716,3.8034,3.8084,3.8721,4.231,4.3137,4.3705,4.5668,4.6488,4.7246,4.843,5.2725,5.7628,6.2112,6.8115,7.3618,7.7741,8.0983,8.3283,8.4336,8.3896,8.3828,8.464,8.4065,8.3964,8.464,8.464,8.464,8.464,8.464,8.464,8.464,8.3896,8.3186,8.2509,8.2441,8.2408,8.2408,8.1765,8.1393,8.1257,8.0376,8.0536,8.1531,8.1309,8.1846,8.2983,8.3287,8.4055,8.4879,8.4472,8.4494,8.4809,8.5587,8.6332,8.7076,0.0,0.0,0.0,0.0,0.0,0.0,0.0,0.0,0.0,0.0,0.0,0.0,0.0,0.0,0.0,0.0,0.0,0.0,0.0,0.0,0.7356,0.8017,0.9388,1.0671,1.1764,1.1585,1.2414,1.4224,1.5631,1.7096,1.8609,1.8407,1.776,1.686,1.6351,1.5586,1.4744,1.5074,1.5401,1.5851,1.703,1.8049,0.0,0.0,0.0,0.0,0.0,0.0,0.0,0.0,2.8536,2.8655,2.9034,2.9821,3.0771,3.1612,3.2264,3.2996,3.4272,3.5894,3.7615,3.888,4.022,4.1868,4.4123,4.5579,4.6991,4.8951,5.0206,5.1503,5.3098,5.6702,6.0988,6.5607,7.0584,7.5344,7.9584,8.1671,8.3084,8.3828,8.3659,8.3422,8.3253,8.2983,8.2949,8.3219,8.3659,8.393,8.393,8.393,8.393,8.393,8.2746,8.2002,8.1731,8.1257,8.1021,8.1021,8.119,8.0952,8.0411,8.0304,8.0627,8.1242,8.1491,8.2067,8.295,8.3686,8.401,8.3988,8.4598,8.4797,8.4843,8.6535,8.7042,8.7076,0.0,0.0,0.0,0.0,0.0,0.0,0.0,0.0,0.0,0.0,0.0,0.0,0.0,0.0,0.0,0.0,0.0,0.0,0.0,0.6627,0.7467,0.8211,0.9656,1.0966,1.2151,1.1995,1.294,1.4885,1.685,1.8189,1.8892,1.8008,1.7266,1.6799,1.5856,1.5166,1.4743,1.4902,1.531,1.5958,1.7063,1.807,0.0,0.0,0.0,0.0,0.0,0.0,0.0,0.0,2.8648,2.898,2.9577,3.0608,3.1694,3.2291,3.2888,3.3512,3.4299,3.5912,3.7765,3.9224,4.1541,4.4141,4.6934,4.8745,5.0571,5.3174,5.4449,5.5551,5.6937,5.9925,6.3623,6.7742,7.2348,7.6651,8.0034,8.161,8.2472,8.2874,8.2844,8.2712,8.2441,8.2205,8.2171,8.2408,8.2881,8.3253,8.349,8.3287,8.3253,8.349,8.2069,8.1291,8.1291,8.0547,8.0209,8.0209,8.0478,8.0342,7.9699,7.9914,8.0434,8.1025,8.1194,8.1877,8.2916,8.3374,8.3565,8.3587,8.453,8.4865,8.4809,8.6366,8.6941,8.7042,0.0,0.0,0.0,0.0,0.0,0.0,0.0,0.0,0.0,0.0,0.0,0.0,0.0,0.0,0.0,0.0,0.0,0.0,0.5897,0.6644,0.7558,0.8539,0.9522,1.0554,1.1794,1.2858,1.4259,1.6,1.76,1.8595,1.8871,1.7328,1.684,1.7244,1.534,1.4803,1.5235,1.57,1.5931,1.6029,1.7455,1.8046,1.8275,0.0,0.0,0.0,0.0,0.0,0.0,0.0,2.8701,2.9577,3.0228,3.1232,3.2318,3.2888,3.3485,3.414,3.5384,3.6163,3.7153,3.9031,4.1459,4.4961,5.0926,5.2725,5.4311,5.8291,5.9229,5.9368,5.9368,6.2279,6.5502,6.8188,7.335,7.752,7.8925,8.1096,8.2199,8.1671,8.142,8.1562,8.2306,8.1731,8.1596,8.234,8.2408,8.2712,8.3422,8.278,8.2746,8.3456,8.2035,8.1257,8.1257,8.0547,8.0209,8.0209,7.9528,7.9321,7.9251,7.9131,7.9672,8.0697,8.0332,8.1269,8.285,8.2121,8.2555,8.3775,8.4102,8.4426,8.464,8.464,8.5621,8.6907,0.0,0.0,0.0,0.0,0.0,0.0,0.0,0.0,0.0,0.0,0.0,0.0,0.0,0.0,0.0,0.0,0.0,0.0,0.6124,0.6862,0.7779,0.8786,0.9823,1.1057,1.2458,1.4136,1.5519,1.668,1.7468,1.8155,1.8711,1.7606,1.7324,1.7719,1.6538,1.6217,1.6657,1.6135,1.6471,1.7405,1.7793,1.862,1.9745,0.0,0.0,0.0,0.0,0.0,0.0,0.0,0.0,0.0,3.0551,3.2128,3.3376,3.3132,3.3783,3.4621,3.4953,3.6536,3.851,4.0329,4.3897,4.806,5.2606,5.3384,5.475,6.032,6.1994,6.2623,6.3089,6.4858,6.6946,6.9446,7.2755,7.5826,7.8461,7.9769,8.0549,8.0795,8.0804,8.0778,8.0885,8.0648,8.0615,8.0851,8.1325,8.1697,8.1934,8.1731,8.1731,8.1934,8.1021,8.0513,8.0513,8.031,7.9972,7.9528,7.9008,7.8797,7.9041,7.9023,7.9418,8.0109,8.0221,8.1044,8.251,8.2538,8.3021,8.3841,8.4454,8.4648,8.4809,8.6399,8.6636,8.6332,0.0,0.0,0.0,0.0,0.0,0.0,0.0,0.0,0.0,0.0,0.0,0.0,0.0,0.0,0.0,0.0,0.0,0.0,0.0,0.0,0.7512,0.8657,0.95,1.0948,1.3009,1.4223,1.5345,1.6426,1.7124,1.7793,1.8414,1.7637,1.7564,1.7985,1.7226,1.7144,1.7534,1.6979,1.7301,1.8312,1.8312,1.8899,2.003,0.0,0.0,0.0,0.0,0.0,0.0,0.0,0.0,0.0,3.0976,3.2388,3.3387,3.3309,3.3765,3.4519,3.5311,3.7206,3.9489,4.1661,4.5658,5.0244,5.4865,5.7051,5.95,6.4672,6.5575,6.5744,6.6721,6.7597,6.8882,7.0824,7.336,7.5742,7.7735,7.8596,7.9248,7.9708,7.9919,8.0066,8.0242,8.0209,8.0209,8.0209,8.0615,8.0987,8.1257,8.1021,8.0987,8.1257,8.0581,8.0209,8.0209,7.9972,7.9665,7.9321,7.8477,7.8263,7.8403,7.8474,7.8841,7.9266,7.9753,8.0438,8.1176,8.1996,8.2677,8.3297,8.4143,8.4506,8.4561,8.6163,8.6298,8.596,0.0,0.0,0.0,0.0,0.0,0.0,0.0,0.0,0.0,0.0,0.0,0.0,0.0,0.0,0.0,0.0,0.0,0.0,0.0,0.0,0.7077,0.8293,0.8974,1.0592,1.3278,1.3537,1.4194,1.5529,1.6577,1.7391,1.8006,1.7573,1.7648,1.8173,1.7719,1.7719,1.8173,1.8089,1.8355,1.8807,1.8763,1.9047,1.955,2.0568,0.0,0.0,0.0,0.0,0.0,0.0,0.0,0.0,3.1288,3.2192,3.2751,3.3312,3.3587,3.414,3.6077,3.8098,4.0353,4.2996,4.7377,5.2476,5.7817,6.2534,6.6663,6.9818,6.9351,6.8861,7.0072,7.0524,7.1116,7.2379,7.4659,7.6409,7.6604,7.7588,7.8271,7.8378,7.8869,7.9425,8.0107,8.0209,8.0209,8.0209,8.0209,8.0479,8.1156,8.0547,8.0513,8.1156,8.0547,8.0209,8.0209,7.9632,7.9321,7.9217,7.8155,7.761,7.7532,7.769,7.7934,7.8307,7.9364,7.9491,7.9298,8.0682,8.1579,8.2166,8.3196,8.3792,8.4116,8.4398,8.4911,8.552,0.0,0.0,0.0,0.0,0.0,0.0,0.0,0.0,0.0,0.0,0.0,0.0,0.0,0.0,0.0,0.0,0.0,0.0,0.0,0.0,0.7029,0.8128,0.9636,1.1212,1.2924,1.3316,1.4019,1.5056,1.5739,1.6759,1.798,1.792,1.8488,1.9619,1.9167,1.921,1.9576,1.8881,1.9011,1.9748,1.9419,1.955,2.0074,2.1083,2.1545,0.0,0.0,0.0,0.0,0.0,0.0,0.0,3.0833,3.2182,3.3285,3.2818,3.3779,3.5176,3.6115,3.8294,4.1224,4.4763,5.1635,5.8522,6.2457,6.5897,6.8229,6.7937,7.0343,7.2326,7.1993,7.2498,7.2994,7.3285,7.3847,7.4399,7.4969,7.5774,7.6682,7.751,7.8219,7.9113,8.0107,8.0209,8.0209,8.0209,8.0209,8.0276,8.0412,8.0276,8.0276,8.0412,8.0276,8.0209,8.0209,7.9632,7.9113,7.8691,7.7938,7.7422,7.7041,7.7495,7.7934,7.8339,7.917,7.9299,7.89,8.001,8.0818,8.1367,8.1859,8.2388,8.2844,8.3524,8.349,8.3389,0.0,0.0,0.0,0.0,0.0,0.0,0.0,0.0,0.0,0.0,0.0,0.0,0.0,0.0,0.0,0.0,0.0,0.0,0.0,0.0,0.0,0.8305,0.9434,1.0639,1.1945,1.2547,1.3367,1.4273,1.4995,1.6152,0.0,0.0,1.8786,1.9726,1.9704,1.9835,2.0053,1.9594,1.9681,2.0053,1.9813,1.9857,2.0162,2.097,2.1385,2.1831,2.3345,0.0,0.0,0.0,0.0,0.0,0.0,0.0,3.29,3.2715,3.3648,3.4968,3.6775,3.9239,4.2613,4.8208,5.4805,6.0648,6.3142,6.6574,6.9102,6.8788,7.1067,7.3059,7.3026,7.3318,7.3577,7.3577,7.3508,7.3531,7.3884,7.4269,7.483,7.5723,7.7025,7.8264,7.9161,7.9871,8.0209,8.0209,8.0209,8.0209,8.0209,8.0209,8.0209,8.0209,8.0209,8.0074,7.9768,7.9217,7.8584,7.8046,7.7499,7.712,7.6815,7.7172,7.7447,7.7593,7.795,7.8111,7.8042,7.8986,7.9727,8.0418,8.1075,8.1873,8.2739,8.2878,8.2949,8.305,0.0,0.0,0.0,0.0,0.0,0.0,0.0,0.0,0.0,0.0,0.0,0.0,0.0,0.0,0.0,0.0,0.0,0.0,0.0,0.0,0.0,0.0,0.9099,0.9811,1.0956,1.1705,1.2535,1.3528,1.44,0.0,0.0,0.0,0.0,1.955,1.9836,1.9944,1.9944,1.9944,1.9944,1.9944,2.0162,2.0271,2.0336,2.0904,2.1432,2.1989,2.3163,2.4047,2.5039,2.7738,0.0,0.0,0.0,0.0,3.2273,3.2775,3.3466,3.4548,3.7205,4.0367,4.4661,5.1593,5.6966,6.1002,6.2417,6.6001,6.927,6.9885,7.144,7.2832,7.3318,7.348,7.3545,7.3166,7.2971,7.2698,7.2584,7.2471,7.2779,7.3495,7.5364,7.6987,7.7882,7.9095,7.9837,7.9837,8.004,8.0141,8.0006,8.0141,8.0141,8.0006,8.0006,7.9634,7.8953,7.8531,7.7891,7.7249,7.673,7.6491,7.6621,7.6621,7.6686,7.6783,7.6783,7.6896,7.7153,7.7851,7.8638,7.9438,8.0393,8.1424,8.2566,8.2168,8.2408,8.2847,0.0,0.0,0.0,0.0,0.0,0.0,0.0,0.0,0.0,0.0,0.0,0.0,0.0,0.0,0.0,0.0,0.0,0.0,0.0,0.0,0.0,0.8676,0.9328,1.008,1.101,1.1403,1.2097,1.3103,0.0,0.0,0.0,0.0,0.0,1.9987,0.0,1.9375,1.9375,1.9375,1.9375,1.9483,2.0443,2.0773,2.086,2.1778,2.2364,0.0,0.0,2.4945,2.6327,2.7564,2.8969,0.0,0.0,0.0,3.2417,3.2704,3.3635,3.4966,3.6412,4.1518,4.7581,5.2884,5.7356,6.0975,6.245,6.57,6.8363,6.846,7.1116,7.3285,7.2735,7.3156,7.3134,7.1694,7.0932,7.0252,6.9471,6.9358,6.9888,7.1274,7.2789,7.4351,7.6241,7.7715,7.8455,7.8314,7.9464,7.9938,7.9295,7.987,7.9904,7.9295,7.9261,7.8623,7.7446,7.7566,7.6934,7.5775,7.5234,7.5229,7.5876,7.5876,7.62,7.6783,7.6783,7.6783,7.6896,7.7218,7.7883,7.8643,7.9063,7.9794,8.0547,8.0547,8.0547,8.0716,0.0,0.0,0.0,0.0,0.0,0.0,0.0,0.0,0.0,0.0,0.0,0.0,0.0,0.0,0.0,0.0,0.0,0.0,0.0,0.0,0.0,0.8455,0.9388,1.0091,1.067,1.1582,1.2447,1.3339,0.0,0.0,0.0,1.9251,2.0065,0.0,0.0,0.0,0.0,1.9701,1.9573,1.9417,2.0441,2.0708,2.0555,0.0,0.0,0.0,0.0,0.0,2.5773,2.7774,2.8898,2.9689,3.0831,0.0,0.0,0.0,3.3112,3.4924,3.8501,4.2909,4.7491,5.2063,5.5782,5.8875,6.1154,6.4063,6.6645,6.7304,6.9029,7.0642,7.1016,7.1689,7.1822,7.0469,6.939,6.85,6.8073,6.7703,6.7878,6.8988,7.0748,7.2624,7.4467,7.6073,7.7346,7.8052,7.8622,7.8991,7.9126,7.9025,7.8822,7.8483,7.8483,7.7917,7.6737,7.6727,7.6202,7.505,7.4723,7.4554,7.4317,7.4701,7.562,7.6783,7.6783,7.6783,7.6783,7.6896,7.7532,7.8477,7.8584,7.9589,8.0818,8.0818,8.0818,8.0851,0.0,0.0,0.0,0.0,0.0,0.0,0.0,0.0,0.0,0.0,0.0,0.0,0.0,0.0,0.0,0.0,0.0,0.0,0.0,0.0,0.0,0.8269,0.9342,1.0068,1.0399,1.1526,1.2473,0.0,0.0,0.0,1.8883,2.0309,2.1267,0.0,2.1181,2.0625,0.0,0.0,0.0,0.0,2.035,2.0575,0.0,0.0,0.0,0.0,0.0,0.0,2.5516,2.8007,2.8821,2.9145,3.1003,3.179,0.0,0.0,0.0,3.4953,3.9765,4.3138,4.6122,5.0296,5.3497,5.6372,5.9033,6.1695,6.4062,6.5345,6.6248,6.7293,6.8499,6.9556,7.0077,6.9215,6.7873,6.6833,6.6782,6.6284,6.619,6.7056,6.8933,7.0946,7.2696,7.4403,7.6007,7.7346,7.7681,7.8046,7.8517,7.8179,7.7908,7.7705,7.7607,7.6977,7.5761,7.545,7.5022,7.4322,7.416,7.3831,7.3355,7.3798,7.4875,7.6524,7.6459,7.6556,7.6783,7.6783,7.7422,7.8263,7.8477,7.9447,8.0782,8.0987,8.1021,8.1021,0.0,0.0,0.0,0.0,0.0,0.0,0.0,0.0,0.0,0.0,0.0,0.0,0.0,0.0,0.6538,0.6744,0.0,0.0,0.0,0.0,0.0,0.828,0.9294,0.0,1.0399,1.0714,0.0,0.0,0.0,0.0,1.9304,2.0307,2.1581,2.2892,2.1453,2.0765,2.0652,0.0,0.0,0.0,0.0,0.0,0.0,0.0,0.0,0.0,0.0,2.5324,2.6407,2.8221,2.8892,2.9314,3.1076,3.1373,3.1198,0.0,0.0,0.0,3.8384,4.1045,4.3842,4.7615,5.0931,5.3929,5.6155,5.8372,6.038,6.1558,6.3036,6.4203,6.4623,6.6474,6.7928,6.758,6.6422,6.5467,6.5231,6.4759,6.4808,6.5623,6.7111,6.9005,7.112,7.2667,7.4001,7.497,7.6475,7.7178,7.7063,7.7638,7.7671,7.6961,7.6405,7.5539,7.4237,7.3208,7.3069,7.3609,7.2929,7.2962,7.3533,7.3323,7.4139,7.57,7.5515,7.5919,7.6783,7.6783,7.7088,7.7719,7.8263,7.8936,7.9492,8.004,8.0242,8.0141,0.0,0.0,0.0,0.0,0.0,0.0,0.0,0.0,0.0,0.0,0.0,0.0,0.0,0.6473,0.6557,0.6773,0.6791,0.0,0.0,0.0,0.0,0.7925,0.9334,1.0053,0.9797,1.0714,0.0,0.0,0.0,1.6701,1.899,2.0791,2.2136,2.2979,2.2107,2.1538,2.1186,2.0885,0.0,0.0,0.0,0.0,0.0,0.0,0.0,2.4166,2.523,2.5829,2.6406,2.8222,2.8895,2.917,3.0738,3.1149,3.1123,3.1763,3.3321,3.539,3.7944,4.0123,4.2485,4.5685,4.8293,5.0672,5.2785,5.5556,5.7901,5.8715,5.9972,6.1015,6.1558,6.3862,6.5647,6.5884,6.4714,6.393,6.3737,6.4152,6.4531,6.4938,6.6322,6.7996,6.9798,7.0757,7.1817,7.3142,7.4405,7.5234,7.5631,7.6193,7.6193,7.5631,7.5402,7.4772,7.3595,7.29,7.2638,7.2897,7.2638,7.2183,7.1737,7.2055,7.2543,7.2995,7.3319,7.4325,7.5919,7.6556,7.6751,7.6878,7.8014,7.8797,7.9388,8.0512,8.0377,7.9663,0.0,0.0,0.0,0.0,0.0,0.0,0.0,0.0,0.0,0.0,0.0,0.0,0.0,0.0,0.6641,0.6782,0.6791,0.6904,0.7239,0.7747,0.7957,0.7736,0.91,0.979,0.9643,0.0,0.0,0.0,0.0,0.0,0.0,2.0895,2.2158,2.2979,2.2673,2.2302,0.0,0.0,0.0,2.1346,0.0,0.0,2.2565,0.0,2.4585,2.485,2.6481,2.6968,2.709,2.887,2.9274,2.9376,0.0,0.0,0.0,0.0,3.3413,3.5116,3.6962,3.8894,4.0997,4.3687,4.5435,4.7228,5.0082,5.2321,5.4176,5.5688,5.6798,5.7868,5.8907,6.0693,6.2455,6.3824,6.3139,6.251,6.272,6.3528,6.4151,6.4327,6.594,6.7401,6.8525,6.9086,6.9908,7.1058,7.2248,7.3235,7.3936,7.4489,7.4392,7.3674,7.3674,7.3175,7.2287,7.1884,7.1692,7.1692,7.1593,7.1139,7.0326,7.0993,7.1316,7.1598,7.2118,7.3385,7.4952,7.5919,7.6149,7.6053,7.7796,7.8717,7.9089,8.0468,8.0364,7.9695,0.0,0.0,0.0,0.0,0.0,0.0,0.0,0.0,0.0,0.0,0.0,0.0,0.0,0.0,0.0,0.681,0.681,0.681,0.681,0.747,0.7817,0.7817,0.0,0.0,0.0,0.0,0.0,0.0,0.0,0.0,0.0,0.0,2.1602,2.3001,2.3001,2.3001,2.2957,0.0,2.1867,2.2252,0.0,2.1718,2.3104,2.4811,2.5651,2.6163,2.8251,2.8673,2.854,2.998,3.0116,2.9899,0.0,0.0,0.0,0.0,0.0,0.0,0.0,0.0,0.0,4.1697,4.2438,4.3797,4.8059,4.8626,4.9134,5.2336,5.3593,5.473,5.6645,5.7034,5.8112,6.1403,6.1433,6.1283,6.1942,6.2948,6.3579,6.3548,6.565,6.7165,6.7165,6.7748,6.8336,6.8895,7.0072,7.109,7.1819,7.2404,7.2244,7.1189,7.1189,7.0884,7.0403,7.0172,7.009,7.0122,6.9866,6.9724,6.9703,7.0093,7.0828,7.179,7.2152,7.2891,7.3905,7.4834,7.5306,7.5391,7.7577,7.8366,7.8322,7.9787,8.0219,8.0063,0.0,0.0,0.0,0.0,0.0,0.0,0.0,0.0,0.0,0.0,0.0,0.0,0.0,0.0,0.7295,0.7295,0.7295,0.7295,0.7295,0.7741,0.8059,0.8312,0.8981,0.0,0.0,0.0,0.0,0.0,0.0,0.0,0.0,0.0,0.0,0.0,2.3001,2.3001,2.2979,2.27,0.0,2.3329,2.3047,2.3846,2.535,2.5751,2.6911,2.8375,2.8946,2.9576,3.0342,3.0902,3.0904,3.0599,3.0851,0.0,0.0,0.0,0.0,0.0,3.5024,0.0,0.0,0.0,0.0,0.0,4.322,4.5274,4.7249,4.8656,5.0601,5.2665,5.464,5.5388,5.6316,5.8171,5.9129,5.9907,6.0535,6.1825,6.2792,6.2924,6.4412,6.5764,6.6322,6.6582,6.6777,6.6875,6.8109,6.8891,6.9088,7.0206,7.093,7.1156,7.0782,7.0507,7.0403,6.9692,6.9613,7.009,6.9364,6.9193,6.9478,6.9607,6.9976,7.0547,7.0561,7.1111,7.1916,7.363,7.3874,7.3477,7.5592,7.6733,7.7229,7.8625,7.934,7.9708,0.0,0.0,0.0,0.0,0.0,0.0,0.0,0.0,0.0,0.0,0.0,0.0,0.0,0.0,0.0,0.735,0.7378,0.7397,0.7397,0.7733,0.8158,0.8657,0.912,0.958,0.0,0.0,0.0,0.0,0.0,0.0,0.0,0.0,0.0,0.0,0.0,0.0,0.0,0.0,0.0,2.3482,2.4393,2.537,2.6364,2.6978,2.8106,2.9499,3.0231,3.095,3.1678,3.2092,3.1963,3.1707,3.1578,0.0,0.0,0.0,0.0,0.0,0.0,0.0,0.0,3.838,0.0,0.0,4.2127,4.3688,4.5095,4.6591,4.8327,5.0122,5.1828,5.2905,5.4042,5.5628,5.6555,5.7483,5.868,5.991,6.0709,6.0825,6.2198,6.344,6.4256,6.422,6.451,6.5126,6.603,6.684,6.7487,6.8373,6.896,6.909,6.9116,6.8812,6.8081,6.8044,6.8029,6.8106,6.7764,6.7928,6.8395,6.8668,6.9148,6.9602,6.9871,7.032,7.1018,7.217,7.2517,7.2642,7.4501,7.5846,7.6768,7.7912,7.8707,7.9602,0.0,0.0,0.0,0.0,0.0,0.0,0.0,0.0,0.0,0.0,0.0,0.0,0.0,0.0,0.0,0.0,0.7273,0.7312,0.7385,0.7752,0.8292,0.8994,0.9287,0.9742,1.0475,0.0,0.0,0.0,0.0,0.0,0.0,0.0,0.0,0.0,0.0,0.0,0.0,0.0,0.0,2.3616,2.5415,2.6253,2.6674,2.844,2.9444,3.0146,3.1851,3.2616,3.2722,3.3146,3.3198,3.3014,3.2804,3.2778,3.2935,3.3742,3.438,0.0,0.0,0.0,0.0,0.0,3.8687,0.0,4.2962,4.303,4.303,4.5394,4.6531,4.7489,4.8805,5.0122,5.1588,5.3384,5.3832,5.47,5.6705,5.7698,5.8206,5.8307,5.9463,6.0662,6.1503,6.1519,6.2027,6.3387,6.3966,6.4835,6.619,6.6712,6.6579,6.5835,6.648,6.6213,6.4742,6.5741,6.5837,6.5238,6.5618,6.6161,6.6909,6.7567,6.8226,6.8914,6.9602,7.0231,7.0799,7.0889,7.1405,7.2391,7.378,7.511,7.6366,7.7125,7.8321,7.9786,0.0,0.0,0.0,0.0,0.0,0.0,0.0,0.0,0.0,0.0,0.0,0.0,0.0,0.0,0.0,0.0,0.7796,0.7923,0.8383,0.8503,0.8974,0.9922,1.0005,1.0551,1.1608,1.1819,0.0,0.0,0.0,0.0,0.0,0.0,0.0,0.0,0.0,0.0,0.0,0.0,2.4967,2.6202,2.5877,2.6714,2.8227,2.9658,3.1052,3.2197,3.282,3.3584,3.4278,3.3723,3.3485,3.3406,3.2855,3.3093,3.3641,3.4254,3.4862,0.0,0.0,0.0,0.0,3.7959,3.8678,0.0,4.0189,4.1414,4.2521,4.303,4.4496,4.6112,4.7429,4.8775,4.9763,5.0182,5.1558,5.3473,5.5987,5.6552,5.6858,5.7534,5.8316,5.9116,6.0004,6.0501,6.0689,6.0449,6.163,6.2426,6.2599,6.4366,6.4869,6.4232,6.4789,6.4821,6.3922,6.3455,6.3684,6.4565,6.4473,6.5024,6.6221,6.6879,6.7537,6.8196,6.8884,6.9572,7.0201,7.0709,7.1018,7.1277,7.2109,7.3258,7.453,7.5276,7.6892,7.8835,0.0,0.0,0.0,0.0,0.0,0.0,0.0,0.0,0.0,0.0,0.0,0.0,0.0,0.0,0.0,0.0,0.0,0.0,0.0,0.9486,1.0187,1.0472,1.0985,1.1633,1.2452,1.2732,1.3462,0.0,0.0,0.0,0.0,0.0,0.0,0.0,0.0,0.0,0.0,0.0,2.5599,2.71,2.7382,2.8499,3.0202,3.1138,3.2228,3.3383,3.3727,3.4202,3.4538,3.4166,3.4005,3.4009,3.4045,3.4286,3.4738,3.5641,3.6114,3.6431,3.6738,3.7106,3.7491,3.7796,3.8696,0.0,0.0,4.1414,4.2462,4.2791,4.3629,4.4616,4.5633,4.6621,4.7608,4.8626,4.9613,5.084,5.2486,5.3862,5.487,5.5236,5.594,5.6755,5.7881,5.8232,5.8531,5.8999,6.0,6.0795,6.109,6.2079,6.2613,6.2549,6.3236,6.3163,6.2062,6.2319,6.2634,6.3252,6.3459,6.4395,6.6011,6.634,6.7029,6.8016,6.8704,6.9363,7.0021,7.0649,7.0889,7.1018,7.1631,7.2819,7.4063,7.4718,7.6115,7.7829,0.0,0.0,0.0,0.0,0.0,0.0,0.0,0.0,0.0,0.0,0.0,0.0,0.0,0.0,0.0,0.0,0.0,0.0,0.0,1.0393,1.1316,1.118,1.1983,1.2673,1.3124,1.3638,1.4317,0.0,0.0,0.0,0.0,0.0,0.0,0.0,0.0,0.0,0.0,0.0,2.6094,2.7589,2.8966,3.0337,3.1707,3.2484,3.3327,3.402,3.4687,3.4713,3.4424,3.4528,3.4502,3.4481,3.5141,3.5467,3.579,3.6978,3.7366,3.7443,3.7443,3.7835,3.8196,3.8156,3.9098,4.0241,0.0,0.0,0.0,4.2981,4.316,4.3399,4.4018,4.4676,4.5603,4.71,4.7668,4.8057,4.8446,5.0541,5.2187,5.2576,5.3204,5.4217,5.5658,5.5671,5.6173,5.7516,5.8468,5.914,5.9501,6.0104,6.047,6.0794,6.1609,6.1286,6.0106,6.1203,6.1789,6.1702,6.2391,6.3647,6.5443,6.5712,6.646,6.7627,6.8465,6.9183,6.9842,7.047,7.0799,7.0889,7.1533,7.2601,7.3878,7.4408,7.5584,7.6856,0.9673,0.9176,0.0,0.0,0.0,0.0,0.0,0.0,0.0,0.0,0.0,0.0,0.0,0.0,0.0,0.0,0.0,0.9165,1.0387,1.0634,0.0,1.2599,1.2746,1.3241,1.4126,1.4201,1.4893,1.6168,0.0,0.0,0.0,0.0,0.0,0.0,2.1797,0.0,0.0,0.0,2.7028,2.89,2.9783,3.0649,3.1573,3.3357,3.4047,3.434,3.5791,3.5488,3.4476,3.5025,3.4842,3.4481,3.5141,3.5763,3.6322,3.7056,3.7672,3.8127,3.8127,3.8865,3.9459,3.887,4.038,4.1786,4.0561,0.0,4.2823,4.2238,0.0,4.309,4.3339,0.0,0.0,4.3958,4.5394,4.6352,4.5813,4.704,4.8626,5.0361,5.1139,5.2037,5.3458,5.3571,5.3901,5.459,5.5925,5.6488,5.5812,5.8156,5.9161,5.855,5.9182,5.9375,5.9207,5.9357,5.9777,6.0326,6.1014,6.2061,6.3438,6.4605,6.5533,6.6311,6.7537,6.8465,6.9153,6.9812,7.041,7.0919,7.1018,7.1819,7.3045,7.3169,7.4375,7.613,0.9704,0.9352,0.0,0.0,0.0,0.0,0.0,0.0,0.0,0.0,0.0,0.0,0.0,0.8883,0.0,0.0,1.2687,1.27,1.1189,1.2749,0.0,1.3229,1.4035,1.4698,1.5079,1.5079,1.5481,1.6234,1.6379,0.0,0.0,0.0,0.0,0.0,2.2149,0.0,2.6116,2.6789,2.8212,3.0085,3.1628,3.2275,3.2559,3.4322,3.53,3.5833,3.6334,3.5862,3.4946,3.5208,3.5594,3.6022,3.59,3.6623,3.7479,3.7758,3.7976,3.8202,3.8202,3.8894,3.9589,3.9445,4.1015,4.2308,4.1436,4.2367,4.3234,4.2554,0.0,0.0,0.0,0.0,0.0,0.0,4.4616,4.5065,4.4766,4.5544,4.6741,4.8356,4.9105,5.0182,5.1887,5.2396,5.2905,5.3563,5.4225,5.4737,5.5149,5.6624,5.7721,5.8112,5.877,5.9099,5.9099,5.9099,5.9428,6.0086,6.0386,6.1403,6.3109,6.3647,6.4665,6.6071,6.6999,6.7777,6.8495,6.9542,7.0141,7.041,7.0769,7.1533,7.2391,7.317,7.397,7.4738,0.9806,0.0,0.0,0.0,0.0,0.0,0.0,0.0,0.0,0.0,0.8807,0.928,0.9971,0.9412,1.0129,1.2887,1.5643,1.5997,1.3068,1.4974,1.5575,1.4117,1.5111,1.5713,1.5825,1.5825,1.5999,1.6349,1.6429,0.0,0.0,0.0,0.0,0.0,0.0,2.4959,2.7113,2.7811,2.922,3.1212,3.2751,3.3675,3.4286,3.546,3.6212,3.6665,3.6851,3.6165,3.5077,3.5489,3.604,3.6683,3.6598,3.7181,3.8012,3.8167,3.8347,3.8463,3.8463,3.9226,4.0041,3.9941,4.146,4.2836,4.2208,4.3012,4.3696,4.3019,4.3035,0.0,0.0,0.0,4.3399,4.3715,0.0,4.3967,4.3805,4.4355,4.5244,4.6591,4.7668,4.8775,5.0032,5.09,5.1588,5.2067,5.2426,5.3144,5.4311,5.5359,5.6496,5.7812,5.8501,5.9027,5.9315,5.9315,5.9525,6.0006,6.0006,6.0886,6.254,6.272,6.3887,6.5772,6.643,6.7208,6.8046,6.9034,6.9542,6.9752,7.0201,7.0727,7.1547,7.2829,7.3416,7.3692,1.0193,0.9672,0.0,0.0,0.0,0.0,0.0,0.8429,0.9271,1.0868,1.0395,1.0009,1.0038,1.0009,1.0333,1.126,1.59,1.8087,1.6613,1.6617,1.6397,1.5697,1.5666,1.584,1.6174,1.619,1.6365,1.6714,1.696,1.7204,0.0,0.0,0.0,0.0,2.4059,2.6209,2.771,2.8549,3.0239,3.217,3.2653,3.4313,3.6607,3.6767,3.6476,3.6218,3.7306,3.6361,3.4585,3.5782,3.587,3.5683,3.6929,3.7317,3.7471,3.8052,3.8667,3.916,3.916,4.0217,4.1163,4.0549,4.2056,4.3402,4.245,4.3328,4.4089,4.3445,4.3495,4.3537,4.3099,4.317,4.309,0.0,4.296,0.0,0.0,4.296,4.3898,4.5214,4.71,4.8057,4.7489,4.8596,4.9374,4.9374,5.0571,5.1588,5.2247,5.4162,5.5807,5.7094,5.7782,5.8654,5.9895,5.9895,5.9925,5.9925,5.9925,6.0361,6.1194,6.1852,6.3199,6.5114,6.5742,6.6759,6.7956,6.8016,6.8435,6.9034,6.9064,6.9453,7.0209,7.1547,7.2391,7.3014,0.0,0.0,0.0,0.0,0.0,0.9189,0.8577,0.8845,0.9412,1.0263,1.021,1.0038,1.0038,1.3468,1.6313,1.7538,1.9184,1.9225,1.6889,1.7032,1.6953,1.6397,1.6826,1.7016,1.6921,1.7127,1.7302,1.7413,1.7846,1.8262,0.0,0.0,0.0,0.0,0.0,2.698,2.8264,2.9727,3.1216,3.2646,3.3807,3.5672,3.7621,3.7007,3.6688,3.6665,3.7545,3.6824,3.5728,3.6579,3.729,3.7805,3.7416,3.791,3.8553,3.8243,3.8667,3.9189,3.9189,4.0197,4.1179,4.1134,4.2135,4.3098,4.2538,4.3303,4.386,4.2948,4.3231,4.3567,4.3129,4.282,0.0,0.0,0.0,0.0,0.0,4.285,4.3658,4.4556,4.5244,4.5753,4.5963,4.7189,4.8147,4.8566,4.9823,5.105,5.2127,5.3683,5.5329,5.7034,5.7752,5.8624,5.9895,5.9895,6.0136,6.0451,6.0106,6.0516,6.1629,6.2062,6.3355,6.5268,6.5936,6.6755,6.7546,6.7844,6.8106,6.8375,6.8824,6.9393,7.0119,7.0905,7.1648,7.2509,1.1722,0.0,0.0,0.0,1.0766,1.0421,0.9886,1.107,1.1904,1.1543,1.3297,1.4641,1.4641,1.8061,2.048,2.0893,2.0925,2.0162,1.8335,1.8049,1.7683,1.7127,1.7286,1.7413,1.7461,1.7747,1.7978,1.8065,1.8599,1.9141,0.0,0.0,0.0,0.0,0.0,2.7877,2.9081,3.0392,3.1811,3.3198,3.4687,3.633,3.7827,3.7119,3.7169,3.7494,3.7614,3.7035,3.6334,3.701,3.777,3.8337,3.7776,3.8189,3.8812,3.8609,3.9015,3.9567,3.9799,4.0641,4.1453,4.1616,4.2291,4.296,4.2636,4.3309,4.3689,4.2615,4.2869,4.3123,4.245,4.2087,0.0,0.0,0.0,0.0,0.0,4.285,4.3479,4.3898,4.4167,4.4676,4.5574,4.6232,4.698,4.7878,4.8925,5.0122,5.1439,5.3234,5.4999,5.6705,5.8083,5.941,6.0577,6.0788,6.0997,6.1444,6.0573,6.0821,6.1997,6.1997,6.3285,6.5472,6.581,6.6406,6.7352,6.7516,6.7627,6.7657,6.8106,6.8824,6.9789,7.035,7.1262,7.2539,1.2633,1.2176,1.1706,1.1776,1.2078,1.2225,1.1922,1.4874,1.65,1.4791,1.9517,2.3022,2.3022,2.3022,2.2482,2.1147,2.0956,2.0925,2.0925,1.9606,1.8557,1.7954,1.7223,1.7111,1.7699,1.8089,1.8427,1.8692,1.9368,1.9911,2.0437,0.0,0.0,0.0,2.7335,0.0,3.0063,3.0773,3.2137,3.3877,3.5169,3.6377,3.7268,3.7317,3.7735,3.8346,3.7719,3.7,3.6452,3.7134,3.7366,3.7443,3.8052,3.8231,3.8376,3.9015,3.9654,4.0292,4.0931,4.1599,4.2092,4.2092,4.2528,4.2963,4.2963,4.3456,4.3661,4.2539,4.2424,4.2252,4.1199,4.1141,4.0858,0.0,0.0,0.0,4.2252,4.285,4.325,4.331,4.3817,4.4766,4.6052,4.5633,4.5813,4.71,4.7908,4.8895,5.0182,5.2725,5.476,5.6077,5.8654,6.0516,6.1656,6.227,6.2612,6.2612,6.1444,6.1298,6.2155,6.1629,6.2918,6.5515,6.5422,6.6009,6.726,6.7004,6.6969,6.6999,6.6999,6.7807,6.9093,6.9812,7.1278,7.2924,1.3948,1.3014,1.2265,1.2763,1.311,1.3385,1.3291,1.5217,1.7655,2.0376,2.201,2.3022,2.3022,2.3022,2.2863,2.2513,2.1528,2.0925,2.0925,1.9606,1.9209,2.0067,1.8939,1.789,1.7016,1.9191,2.0321,2.0159,2.1349,2.2186,2.2648,0.0,0.0,0.0,0.0,2.9394,3.0088,3.1494,3.3055,3.46,3.5411,3.6224,3.7118,3.7303,3.7451,3.7634,3.8055,3.7749,3.7134,3.7749,3.7976,3.7976,3.8127,3.8551,3.8986,3.916,3.9973,4.0873,4.1047,4.1599,4.2092,4.2092,4.2208,4.2324,4.2324,4.2789,4.2965,4.2077,4.2222,4.2337,4.1424,4.0887,4.0404,0.0,0.0,0.0,4.2252,4.285,4.3269,4.3337,4.3456,4.3718,4.4077,4.4825,4.5424,4.5783,4.7788,4.9374,5.0182,5.2276,5.4072,5.5388,5.7958,5.957,6.0301,6.1805,6.2612,6.2612,6.1834,6.1936,6.2744,6.2853,6.3513,6.4746,6.5167,6.5818,6.6528,6.6312,6.655,6.6999,6.6999,6.7807,6.9183,7.0799,7.2026,7.2984,1.4951,1.3968,1.3026,1.2839,1.4531,1.556,1.4281,1.5683,1.7728,1.9933,2.1878,2.3022,2.3022,2.3022,2.3022,2.3022,2.2291,2.183,2.183,2.0527,2.0098,2.0893,2.0162,1.9082,1.7683,1.9296,2.1051,2.2979,2.2938,2.313,2.3541,0.0,0.0,0.0,0.0,2.9932,3.0907,3.2616,3.3829,3.4579,3.5412,3.6089,0.0,3.6805,3.6888,3.7059,3.7402,3.726,3.6872,3.726,3.7414,3.7414,3.7414,3.7792,3.836,3.8615,3.9653,4.0756,4.1015,4.1526,4.2092,4.2092,4.2092,4.2092,4.2092,4.2074,4.1965,4.134,4.1284,4.1139,4.0516,4.0142,3.9881,3.9881,4.0492,4.1162,4.1782,4.2659,4.3129,4.2748,4.262,4.2467,4.214,4.349,4.4679,4.5243,4.7199,4.8834,4.9793,5.1947,5.3653,5.473,5.811,6.0014,6.0359,6.2205,6.3096,6.3096,6.1981,6.1905,6.3023,6.2914,6.3653,6.4936,6.4861,6.5452,6.6253,6.5771,6.5981,6.667,6.7837,6.8764,6.9692,7.1936,7.2834,7.3013,1.5666,1.5242,1.4434,1.343,1.6455,1.8268,1.5974,1.6803,1.7477,1.7007,2.0512,2.3022,2.3022,2.3022,2.3022,2.3022,2.3022,2.3055,2.3292,2.1803,2.0925,2.0925,2.0925,2.0257,1.8859,1.892,2.1212,2.5906,2.4231,0.0,0.0,0.0,0.0,0.0,0.0,0.0,3.1914,3.37,3.4366,3.434,3.5332,3.5898,3.6218,3.6031,3.6191,3.6429,3.6243,3.6215,3.6322,3.6405,3.6377,3.6322,3.6405,3.6792,3.7344,3.7841,3.8866,4.0039,4.0717,4.1279,4.1807,4.2063,4.1951,4.1811,4.198,4.1367,4.083,4.0602,4.0055,3.953,3.9292,3.9292,3.9292,3.9292,4.0012,4.071,4.1339,4.2614,4.3159,4.232,4.2038,0.0,4.0856,4.2137,4.3513,4.488,4.6283,4.7639,4.9044,5.1678,5.3384,5.4042,5.8533,6.0805,6.0805,6.2778,6.3763,6.3824,6.2025,6.1859,6.3041,6.2609,6.3469,6.5235,6.4493,6.4889,6.6107,6.5349,6.5533,6.652,6.9004,7.0021,7.041,7.2864,7.3462,7.3133,1.6301,1.7314,1.8102,1.852,1.9634,2.0711,2.1396,2.0358,1.9193,1.8482,2.1115,2.3022,2.3022,2.3022,2.3022,2.3022,2.3022,2.3595,2.5151,2.2469,2.0925,2.0925,2.0925,2.0257,1.8859,1.9654,2.1943,2.5906,2.5549,2.5211,0.0,0.0,0.0,0.0,0.0,0.0,3.1914,3.37,3.4446,3.4499,3.5385,3.5629,3.5656,3.5871,3.5629,3.5168,3.5467,3.5843,3.6377,3.6902,3.6736,3.6405,3.693,3.7151,3.7261,3.7372,3.7978,3.8755,3.9982,3.995,4.0082,4.1749,4.1274,4.0572,4.1056,4.0659,4.0083,3.9881,3.9706,3.953,3.9292,3.9292,3.9292,3.9292,4.0376,4.1367,4.2024,4.3289,4.3908,4.3343,4.3277,4.2907,4.182,4.1783,4.2249,4.3165,4.5256,4.6988,4.8345,5.0947,5.2665,5.3324,5.7837,6.0107,6.0077,6.2533,6.3899,6.3863,6.2961,6.2708,6.3063,6.3063,6.3183,6.3508,6.3394,6.403,6.5261,6.5024,6.6071,6.7777,6.9363,7.029,7.0919,7.2505,7.3343,7.3821,1.87,1.8271,1.8081,1.9145,1.9606,2.0559,2.2688,2.2148,2.1385,2.1036,2.218,2.3022,2.3022,2.3022,2.3792,2.5551,2.5771,2.6098,2.7007,2.3168,2.0925,2.0925,2.0925,2.0607,1.9924,2.157,2.3387,2.5126,2.5654,2.5822,0.0,0.0,0.0,2.9133,0.0,3.1829,3.2484,3.4126,3.474,3.4659,3.544,3.5629,3.5548,3.5548,3.5331,3.4921,3.4895,3.5059,3.5386,3.5626,3.5519,3.5413,3.5626,3.5921,3.6079,3.6189,3.6845,3.7781,3.8811,3.9112,3.9629,4.1175,4.0847,4.0264,4.0859,4.0229,3.9441,3.9618,3.9353,3.9114,3.9292,3.9292,3.9292,3.9292,4.046,4.151,4.2196,4.3215,4.3617,4.2817,4.2471,4.1653,3.9947,4.004,4.1178,4.3535,4.5425,4.7131,4.865,5.0922,5.2516,5.3144,5.7346,5.9349,5.8987,6.1225,6.2556,6.2996,6.2333,6.2318,6.3079,6.3079,6.3258,6.3528,6.285,6.3445,6.4815,6.5288,6.612,6.7159,6.9179,7.0177,7.0755,7.2522,7.3004,7.3069,2.0559,1.9193,1.8081,1.8843,1.9225,2.0035,2.1846,2.2641,2.3022,2.3022,2.3022,2.3344,2.3999,2.4111,2.5221,2.8067,2.8301,2.8144,2.7773,2.4115,2.1928,2.1928,2.1216,2.1318,2.2215,2.4152,2.4923,2.455,2.5486,2.5906,2.5906,2.751,2.8883,3.0031,3.1953,3.2829,3.307,3.4492,3.4977,3.4895,3.5467,3.571,3.5629,3.5249,3.5086,3.5086,3.4564,3.4397,3.4397,3.4397,3.4397,3.4424,3.447,3.4647,3.4762,3.5018,3.5673,3.6556,3.7453,3.817,3.896,4.0359,4.0174,3.9816,4.0237,3.9508,3.8792,3.9102,3.8944,3.8872,3.9203,3.9292,3.9292,3.9292,4.046,4.1567,4.2281,4.3166,4.3427,4.2558,4.1828,4.0656,3.8817,3.891,4.0425,4.3811,4.5144,4.6616,4.8413,5.0594,5.2217,5.3144,5.6645,5.8441,5.8321,6.0176,6.1523,6.2301,6.1792,6.2061,6.3079,6.2963,6.3086,6.3533,6.2588,6.303,6.46,6.5955,6.642,6.6529,6.8956,6.9986,7.0254,7.1836,7.2099,7.1913,1.9844,2.0925,2.1052,1.9701,2.0527,2.0877,1.9431,2.1385,2.3022,2.3022,2.3022,2.4223,2.7403,2.7853,2.796,2.8281,2.8301,2.7637,2.6074,2.5527,2.5235,2.5235,2.2434,2.2702,2.6668,2.6886,2.6206,2.455,2.5486,2.5906,2.599,2.8419,3.0173,3.1279,3.2117,3.2705,3.3326,3.4603,3.5168,3.5386,3.5629,3.571,3.5629,3.5249,3.5086,3.5086,3.4564,3.4397,3.4397,3.4397,3.4397,3.4502,3.4769,3.4529,3.4166,3.425,3.4276,3.4685,3.6082,3.6497,3.6982,3.8866,3.8699,3.8198,3.8342,3.8229,3.8017,3.7883,3.8559,3.9203,3.9292,3.9292,3.9292,3.9292,4.046,4.1568,4.2439,4.3661,4.4356,4.3789,4.3176,4.2257,4.1,4.0478,4.0709,4.2098,4.3101,4.4309,4.5685,4.8664,5.1259,5.3114,5.5299,5.7274,5.9009,6.0416,6.1732,6.2989,6.2929,6.2959,6.3079,6.2468,6.2263,6.2234,6.2136,6.2978,6.4692,6.7234,6.7875,6.7477,6.9178,6.9881,6.9844,6.9448,7.0106,7.1023,2.1544,2.1147,2.0734,2.1497,2.0003,1.9288,2.1068,2.2291,2.3792,2.5881,2.6209,2.6754,2.8174,2.8301,2.8301,2.8301,2.8301,2.7559,2.584,2.5742,2.6014,2.6592,2.5392,2.5567,2.7262,2.7262,2.6647,2.5295,2.5738,2.6496,2.7677,2.9076,3.1026,3.3225,3.3213,3.3514,3.4199,3.487,3.5168,3.5249,3.5386,3.5386,3.5331,3.5003,3.4921,3.4891,3.4984,3.4627,3.4282,3.5068,3.5103,3.4865,3.502,3.4664,3.4314,3.4673,3.4314,3.4166,3.5808,3.598,3.628,3.8503,3.8249,3.7632,3.8431,3.8262,3.7913,3.8193,3.8774,3.9203,3.8962,3.9141,3.9338,3.9419,4.0138,4.1174,4.2214,4.2747,4.287,4.256,4.2091,4.1267,3.9943,3.9612,3.953,3.957,4.2093,4.4521,4.6518,4.9292,5.1558,5.3144,5.5478,5.7094,5.7902,5.9249,6.0565,6.1912,6.1912,6.2072,6.2468,6.2234,6.1613,6.0952,6.1964,6.2918,6.4154,6.6616,6.7611,6.7786,6.8823,6.904,6.8707,6.8541,6.8903,6.9258,2.2212,2.1401,2.1084,2.2736,2.0559,1.9861,2.3955,2.4556,2.5441,2.796,2.8621,2.8708,2.8301,2.8301,2.8301,2.8301,2.8301,2.7878,2.7063,2.6506,2.6496,2.7262,2.638,2.5877,2.5877,2.686,2.7083,2.6736,2.6736,2.7435,2.8817,3.067,3.2696,3.4812,3.4481,3.4538,3.4977,3.5059,3.5168,3.5249,3.5249,3.5168,3.5003,3.4839,3.4839,3.4835,3.5077,3.4835,3.4502,3.55,3.5565,3.5168,3.5003,3.4861,3.4743,3.4826,3.451,3.4487,3.5732,3.5969,3.6329,3.8016,3.7785,3.7444,3.8096,3.7899,3.7782,3.833,3.8782,3.8962,3.8692,3.8872,3.9069,3.9043,3.9779,4.0613,4.1272,4.145,4.1489,4.1176,4.0811,4.0182,3.8995,3.8868,3.8693,3.8291,4.1504,4.4377,4.6415,4.9098,5.1399,5.3144,5.5359,5.6601,5.6855,5.8334,5.9538,6.0511,6.0946,6.1371,6.185,6.185,6.1371,6.0508,6.2188,6.3391,6.4318,6.6416,6.7655,6.8032,6.8538,6.8515,6.789,6.7452,6.7368,6.7552,2.0941,2.2037,2.299,2.3006,2.2974,2.4156,2.7726,2.8281,2.8281,2.8281,2.9258,2.9574,2.8408,2.8301,2.8301,2.8301,2.8301,2.8814,2.9848,2.8255,2.7262,2.7262,2.4313,2.2653,2.2653,2.5684,2.7809,2.8724,2.8724,2.8724,2.8932,3.3513,3.5683,3.571,3.571,3.571,3.5629,3.5249,3.5331,3.5629,3.5249,3.5003,3.4921,3.4921,3.4839,3.4835,3.4907,3.4978,3.5165,3.5526,3.5482,3.5304,3.4647,3.4847,3.5319,3.4459,3.4805,3.5417,3.5709,3.6471,3.7096,3.7033,3.7342,3.7404,3.6805,3.6882,3.7294,3.8031,3.8395,3.8602,3.8602,3.8602,3.8421,3.7913,3.9301,4.0133,3.927,4.0214,4.0777,4.0135,4.0016,3.9719,3.8969,3.8868,3.8868,3.8868,4.1104,4.3133,4.4581,4.7453,5.0324,5.3114,5.4521,5.55,5.622,5.8089,5.9207,5.9219,6.0529,6.1058,6.1106,6.1106,6.1091,6.1136,6.2913,6.4305,6.5689,6.7648,6.8466,6.8459,6.8672,6.8363,6.7406,6.541,6.5545,6.6276,2.2164,2.1941,2.1894,2.2847,2.5,2.6971,2.8174,2.894,2.9469,2.9469,2.9784,2.9889,2.9469,2.9469,2.9469,2.9469,2.9469,2.9574,2.9994,2.8276,2.638,2.4214,2.5197,2.5489,2.4786,2.636,2.7809,2.8746,3.0734,3.2302,3.3538,3.5006,3.571,3.571,3.571,3.571,3.571,3.5548,3.5386,3.5223,3.4812,3.4564,3.4564,3.4564,3.4481,3.4392,3.471,3.4809,3.4726,3.5725,3.5678,3.5331,3.5429,3.5273,3.5167,3.5383,3.5377,3.5519,3.6173,3.6259,3.6384,3.717,3.7027,3.6729,3.6934,3.7165,3.7413,3.769,3.7939,3.7939,3.7664,3.8148,3.8568,3.8489,3.8909,3.9348,3.9492,3.9194,3.9077,3.927,3.9246,3.9297,3.9396,3.9094,3.9019,3.9396,4.013,4.21,4.5619,4.8718,5.1473,5.3832,5.5159,5.6018,5.622,5.7328,5.8282,5.919,5.9626,6.0061,6.0531,6.0043,6.0013,6.0539,6.189,6.3504,6.5275,6.6795,6.7654,6.7968,6.8033,6.7541,6.682,6.5581,6.5302,6.526,2.2736,2.2307,2.2403,2.4607,2.7187,2.892,2.892,3.0146,3.0781,3.0098,2.9994,2.9994,2.9994,2.9994,2.9994,2.9994,2.9994,2.9994,2.9994,2.8918,2.716,2.443,2.5099,2.5974,2.6819,2.6744,2.7694,2.9555,3.2239,3.4314,3.571,3.571,3.571,3.571,3.571,3.571,3.571,3.5386,3.5059,3.4812,3.4481,3.4397,3.4397,3.4397,3.4314,3.414,3.4907,3.4978,3.4974,3.6196,3.598,3.5276,3.5808,3.5476,3.4893,3.5403,3.5571,3.5737,3.616,3.6187,3.6161,3.7088,3.6944,3.6488,3.6752,3.7288,3.7629,3.7629,3.779,3.779,3.7416,3.7727,3.8069,3.8216,3.828,3.8497,3.8732,3.8111,3.7914,3.8467,3.8743,3.917,3.9923,3.9697,3.9622,3.9973,4.0389,4.2285,4.5926,4.8424,5.0817,5.3532,5.5142,5.5938,5.5954,5.6781,5.7598,5.8143,5.8631,5.9308,6.0166,6.0042,6.0005,6.0214,6.1572,6.315,6.4718,6.5773,6.6941,6.809,6.7953,6.7569,6.7071,6.6131,6.5373,6.4586,2.307,2.3344,2.4445,2.7853,2.9359,3.018,3.018,3.1629,3.2064,3.0243,2.9994,2.9994,2.9994,2.9994,2.9994,2.9994,2.9994,2.9994,2.9994,2.9994,2.9228,2.7531,2.4566,2.4688,2.8466,2.6894,2.7704,3.1069,3.3164,3.4647,3.5629,3.5629,3.571,3.571,3.571,3.5629,3.5548,3.4729,3.4397,3.4397,3.4397,3.4397,3.4397,3.4397,3.4282,3.4302,3.522,3.5482,3.5602,3.6688,3.6144,3.5139,3.5892,3.5453,3.4726,3.4726,3.531,3.5923,3.5897,3.6106,3.6442,3.698,3.6922,3.664,3.6502,3.7166,3.7807,3.7833,3.7833,3.7807,3.7833,3.7424,3.7177,3.7308,3.7622,3.7763,3.7333,3.7211,3.7387,3.7939,3.8517,3.9295,4.04,4.0526,4.0526,4.0576,4.1584,4.3127,4.5424,4.6641,4.8893,5.241,5.4429,5.5377,5.5338,5.6534,5.6939,5.6423,5.7688,5.8924,6.0076,6.0734,6.0822,6.0515,6.1852,6.3073,6.432,6.4887,6.6557,6.8577,6.8033,6.7896,6.7759,6.6986,6.555,6.3873,2.6206,2.7079,2.7618,2.9343,3.0936,3.2085,3.2085,3.2457,3.2064,3.0243,2.9994,2.9994,2.9994,2.9994,2.9994,2.9994,2.9994,2.9994,2.9994,2.9994,2.9808,2.9373,2.7299,2.6264,2.6436,2.8193,3.0237,3.2612,3.2064,3.2735,3.4729,3.5386,3.571,3.571,3.571,3.5304,3.4729,3.4481,3.4397,3.4397,3.4397,3.4397,3.4397,3.3979,3.4425,3.5234,3.5015,3.5432,3.6225,3.5873,3.5521,3.5276,3.522,3.4956,3.4726,3.4726,3.5587,3.643,3.5999,3.6294,3.665,3.6777,3.664,3.6553,3.6885,3.6855,3.6874,3.7278,3.7026,3.6874,3.7303,3.7566,3.7891,3.8416,3.813,3.7916,3.7837,3.7437,3.7387,3.7939,3.8517,3.9295,4.04,4.0526,4.0701,4.1103,4.1361,4.22,4.3913,4.5315,4.8254,5.3106,5.423,5.4934,5.5338,5.5765,5.604,5.6423,5.7688,5.8699,5.9458,6.0033,6.085,6.1632,6.2522,6.3545,6.4595,6.4822,6.5553,6.6417,6.6138,6.6081,6.6138,6.651,6.555,6.3938,2.7632,2.8708,2.95,3.0983,3.1381,3.1754,3.2602,3.3182,3.2844,3.0957,3.0308,2.9994,2.9994,2.9994,2.9994,2.9994,2.9994,2.9994,2.9994,2.9994,2.9994,2.9994,2.9526,2.8578,2.7125,2.8702,3.0554,3.2438,3.2413,3.3018,3.423,3.4977,3.5059,3.4481,3.4481,3.423,3.381,3.423,3.4397,3.4397,3.4397,3.4397,3.4366,3.4487,3.4616,3.4855,3.501,3.5402,3.5707,3.5521,3.533,3.5182,3.4757,3.4842,3.5002,3.45,3.5219,3.6092,3.5789,3.5941,3.6218,3.6471,3.6653,3.681,3.7111,3.7362,3.7588,3.7889,3.7713,3.7588,3.7889,3.7934,3.8057,3.8466,3.7934,3.7577,3.7588,3.7362,3.7387,3.7939,3.8969,3.9948,4.0802,4.1128,4.1379,4.1681,4.1706,4.2265,4.33,4.5048,4.7729,5.1576,5.2986,5.4091,5.5026,5.5584,5.6226,5.6873,5.7856,5.8924,6.0076,6.0413,6.0969,6.1719,6.2089,6.2683,6.361,6.3656,6.4375,6.5218,6.4909,6.5021,6.5333,6.5131,6.4012,6.2579,2.7676,2.9056,3.0574,3.2416,3.1553,3.1141,3.2726,3.3749,3.3703,3.2285,3.0998,3.0203,2.9994,3.0099,3.0391,3.0888,3.0991,3.0991,3.0991,3.0495,3.0078,2.9786,3.0686,3.0428,2.879,2.9209,3.0193,3.1801,3.3215,3.392,3.392,3.4424,3.4173,3.3326,3.3154,3.3068,3.3154,3.4063,3.4397,3.4397,3.4397,3.4397,3.4418,3.5063,3.4873,3.4288,3.5194,3.5205,3.4918,3.5493,3.5485,3.5096,3.4621,3.4944,3.5353,3.4424,3.4876,3.5655,3.5554,3.568,3.5931,3.6483,3.696,3.7337,3.7412,3.8115,3.8768,3.8843,3.8793,3.8768,3.8843,3.8467,3.8165,3.8241,3.7713,3.7312,3.7312,3.7312,3.7487,3.7939,3.9496,4.0727,4.1279,4.1831,4.2183,4.2258,4.2283,4.2587,4.3347,4.5096,4.6999,4.8872,5.1377,5.3388,5.485,5.5889,5.6732,5.7407,5.7997,5.9177,6.0807,6.0919,6.1016,6.1244,6.1326,6.1656,6.2179,6.2261,6.3168,6.4459,6.4066,6.4239,6.4527,6.3425,6.1885,6.0405,2.6367,2.8228,3.0574,3.2416,3.3268,3.3853,3.4155,3.3523,3.3191,3.4009,3.2423,3.1013,3.0099,3.0806,3.2398,3.5162,3.5355,3.5355,3.5355,3.2901,3.0586,2.9081,2.911,2.9052,2.8861,3.1181,3.255,3.2896,3.3154,3.324,3.324,3.3326,3.3666,3.4147,3.3411,3.3068,3.3154,3.4063,3.4397,3.4397,3.4397,3.4397,3.4424,3.4523,3.4839,3.5146,3.5094,3.5349,3.5694,3.561,3.541,3.5115,3.4768,3.5042,3.5504,3.5328,3.573,3.6132,3.568,3.6232,3.7061,3.7613,3.7814,3.8015,3.8492,3.8366,3.8291,3.8768,3.8492,3.8291,3.8793,3.8793,3.8894,3.9346,3.8567,3.7889,3.7889,3.7889,3.7914,3.799,3.9496,4.0727,4.1279,4.1831,4.2359,4.2811,4.2861,4.2947,4.3058,4.4094,4.5031,4.5904,5.0381,5.381,5.6114,5.6339,5.6732,5.7407,5.7997,5.8727,5.9514,6.0048,6.0538,6.1137,6.1641,6.1921,6.2061,6.2592,6.2978,6.3195,6.3139,6.2335,6.1493,6.2682,6.1264,5.9084,2.6754,2.7652,2.9104,3.0946,3.3065,3.4534,3.4534,3.4086,3.3861,3.4423,3.3748,3.2965,3.2446,3.1927,3.3356,3.7742,3.8165,3.8165,3.8165,3.3082,3.0144,3.0297,2.9314,2.9577,3.1092,3.2438,3.3068,3.3068,3.3068,3.3154,3.324,3.3411,3.3641,3.3979,3.3556,3.3326,3.3154,3.3496,3.3979,3.4397,3.4397,3.4397,3.4397,3.4397,3.4569,3.4839,3.4795,3.4835,3.4874,3.4536,3.4693,3.5007,3.4451,3.5052,3.5931,3.5629,3.6132,3.6759,3.6508,3.701,3.7688,3.7939,3.8241,3.8542,3.8818,3.8894,3.8994,3.9245,3.9094,3.8994,3.927,3.932,3.9295,3.927,3.8818,3.8366,3.804,3.8266,3.8467,3.8467,3.9948,4.1053,4.1304,4.2108,4.271,4.2961,4.2986,4.2986,4.2986,4.3848,4.441,4.4729,4.9491,5.3271,5.5917,5.6592,5.7097,5.7407,5.8334,5.9121,5.9711,5.9992,6.0497,6.1116,6.1762,6.1818,6.1565,6.2183,6.224,6.1828,6.1608,6.1024,6.0539,6.0953,6.0258,5.9255,2.7262,2.7452,2.8208,3.0076,3.2341,3.401,3.4447,3.4534,3.4534,3.4534,3.4534,3.436,3.3901,3.2525,3.3538,3.844,3.9396,3.9362,3.8502,3.3238,3.0559,3.1586,3.0209,3.0583,3.3093,3.3068,3.3068,3.3068,3.3345,3.3406,3.3326,3.3649,3.3709,3.3556,3.3556,3.3386,3.3068,3.3068,3.3496,3.4063,3.4063,3.423,3.4397,3.4397,3.4314,3.4224,3.4392,3.4212,3.3946,3.3776,3.4324,3.4869,3.4589,3.5328,3.6307,3.6006,3.6709,3.7563,3.7563,3.7889,3.8241,3.8366,3.8743,3.9069,3.9069,3.9396,3.9697,3.9697,3.9697,3.9697,3.9697,3.9697,3.9546,3.912,3.8944,3.8718,3.8266,3.8693,3.9069,3.9069,4.0526,4.153,4.153,4.2409,4.2986,4.2986,4.2986,4.2986,4.2874,4.3492,4.3959,4.4409,4.8919,5.2559,5.5116,5.6641,5.7463,5.7603,5.8699,5.9458,5.9907,5.9907,6.0188,6.0694,6.1481,6.1369,6.0722,6.1519,6.1435,6.069,6.0309,6.0048,5.9697,5.9359,5.9083,5.9116,2.7262,2.7998,2.9263,3.12,3.1636,3.2437,3.425,3.4534,3.4534,3.4534,3.4534,3.3835,3.2044,3.1717,3.2969,3.6393,3.8492,3.8291,3.5069,3.4361,3.3355,3.1695,3.1498,3.1928,3.3119,3.3068,3.3068,3.3068,3.4098,3.4073,3.3179,3.3859,3.3809,3.3154,3.3154,3.3154,3.3068,3.3068,3.3154,3.3154,3.3154,3.3666,3.4397,3.4397,3.4147,3.381,3.3972,3.3861,3.3734,3.4603,3.4692,3.4539,3.5755,3.6257,3.6458,3.6935,3.7864,3.8743,3.8743,3.8768,3.8919,3.9446,3.9597,3.9647,3.9647,3.9672,3.9697,3.9697,3.9697,3.9697,3.9697,3.9697,3.9672,3.9647,3.9195,3.8843,3.8818,3.927,3.9647,3.9647,4.1103,4.2082,4.2082,4.2635,4.2986,4.2986,4.2986,4.2874,4.2513,4.24,4.3069,4.4935,4.8574,5.1782,5.4139,5.6372,5.7659,5.825,5.8896,5.9233,5.9289,5.9289,5.9317,5.943,6.0638,6.0469,5.9486,6.0896,6.0765,5.9662,5.9745,5.9236,5.8296,5.8629,5.8079,5.7397,2.7489,2.9031,3.0756,3.1498,3.1629,3.2285,3.4229,3.4534,3.4534,3.4534,3.4534,3.425,3.3508,3.342,3.3829,3.5083,3.4855,3.4585,3.4558,3.4534,3.3661,3.1717,3.1629,3.2757,3.5127,3.5127,3.5127,3.5127,3.5529,3.5278,3.4424,3.3771,3.3345,3.3068,3.3068,3.3068,3.3068,3.3068,3.3068,3.3068,3.3068,3.3666,3.4314,3.381,3.3496,3.3326,3.3411,3.3776,3.4259,3.4679,3.4942,3.5102,3.5554,3.5981,3.6533,3.7437,3.8266,3.8944,3.9295,3.9371,3.9421,3.9647,3.9697,3.9697,3.9697,3.9697,3.9798,4.0124,4.0199,4.03,4.0651,4.0701,4.0701,4.0701,4.0551,4.04,4.04,4.0576,4.0701,4.0701,4.1555,4.2158,4.2158,4.266,4.2986,4.2986,4.2986,4.2874,4.2513,4.172,4.1789,4.3086,4.6524,4.9784,5.2913,5.5909,5.7519,5.7744,5.8727,5.943,5.9795,5.9795,5.9992,6.0413,6.0891,6.0482,5.9444,6.0041,5.969,5.8668,5.8107,5.7747,5.7519,5.732,5.717,5.7198,2.8852,3.0213,3.1629,3.1629,3.1629,3.2066,3.342,3.3617,3.3835,3.4447,3.4534,3.4534,3.4534,3.4534,3.4272,3.3661,3.2394,3.2197,3.353,3.4567,3.4042,3.1673,3.26,3.419,3.6358,3.6358,3.6358,3.6358,3.6358,3.6107,3.5579,3.4349,3.3872,3.4073,3.3395,3.3068,3.3068,3.3068,3.3068,3.3068,3.3068,3.3496,3.3894,3.3326,3.3068,3.3119,3.347,3.4073,3.4641,3.4866,3.5303,3.578,3.5655,3.6182,3.7036,3.7789,3.8542,3.922,3.9597,3.9697,3.9697,3.9697,3.9697,3.9747,3.9923,3.9948,4.0099,4.0651,4.0777,4.0877,4.1279,4.1329,4.1329,4.1329,4.1329,4.1329,4.1329,4.148,4.1605,4.1605,4.2082,4.2409,4.2409,4.276,4.2986,4.2874,4.2874,4.2625,4.1948,4.0918,4.0715,4.1354,4.4265,4.7359,5.0777,5.5094,5.7257,5.7285,5.8615,5.9542,6.0132,6.0132,6.0497,6.1088,6.1088,6.0466,5.9623,5.9495,5.8879,5.7926,5.6818,5.6608,5.679,5.6194,5.6179,5.6452,3.1424,3.1629,3.1629,3.1629,3.1629,3.1629,3.1629,3.1629,3.2328,3.4272,3.4534,3.4534,3.4534,3.4534,3.3748,3.1782,3.1629,3.1629,3.1629,3.4581,3.4969,3.1834,3.4678,3.6358,3.6358,3.6358,3.6358,3.6358,3.6358,3.6358,3.6332,3.5604,3.5655,3.6257,3.4073,3.3093,3.3068,3.3068,3.3068,3.3068,3.3093,3.3093,3.3068,3.3093,3.3093,3.3244,3.4349,3.4726,3.4801,3.5152,3.5755,3.6358,3.6358,3.7111,3.8015,3.8015,3.8818,3.9697,3.9697,3.9697,3.9697,3.9697,3.9697,3.9848,4.04,4.0526,4.0676,4.1229,4.1354,4.1354,4.1354,4.1354,4.1354,4.1354,4.1354,4.1354,4.1354,4.1831,4.2158,4.2158,4.266,4.2986,4.2986,4.2986,4.2874,4.2513,4.2513,4.1948,4.0803,4.013,3.9916,4.0043,4.228,4.473,4.7682,5.3809,5.6865,5.6921,5.8491,5.9542,6.0132,6.0132,6.0497,6.1116,6.1116,6.0466,5.9623,5.9211,5.8494,5.754,5.6547,5.6054,5.6044,5.5209,5.5041,5.5041,3.1527,3.1629,3.1629,3.1629,3.1629,3.1629,3.1629,3.1629,3.2328,3.4272,3.4534,3.4534,3.4534,3.4534,3.3748,3.1782,3.1629,3.2521,3.4775,3.5858,3.5953,3.4969,3.5858,3.6358,3.6358,3.6358,3.6358,3.6358,3.6358,3.6358,3.6358,3.6132,3.6157,3.6332,3.568,3.4525,3.3068,3.3068,3.3068,3.3219,3.4751,3.4449,3.3244,3.4801,3.5378,3.5429,3.5755,3.5881,3.5881,3.6006,3.6182,3.6358,3.6358,3.696,3.7688,3.7939,3.8818,3.9697,3.9697,3.9697,3.9697,3.9697,3.9697,3.9848,4.04,4.0526,4.0777,4.1731,4.1907,4.2032,4.2409,4.2484,4.2484,4.2484,4.2484,4.2484,4.2484,4.2635,4.2735,4.2735,4.2886,4.2986,4.2986,4.2986,4.2986,4.2874,4.2287,4.1606,4.1033,4.0575,4.0101,3.9538,4.2447,4.479,4.6205,5.103,5.4567,5.6893,5.7824,5.9123,6.0807,6.0807,6.1397,6.2324,6.1221,6.0459,5.9792,5.8576,5.7852,5.7255,5.5695,5.5529,5.5853,5.4472,5.4157,5.45,3.1629,3.1629,3.1629,3.1629,3.1629,3.1629,3.1629,3.1629,3.2044,3.3224,3.4054,3.4534,3.4534,3.4534,3.3748,3.1782,3.2801,3.4288,3.6263,3.6358,3.6358,3.6358,3.6358,3.6358,3.6358,3.6358,3.6358,3.6358,3.6358,3.6358,3.6358,3.6358,3.6358,3.6452,3.6854,3.5999,3.4374,3.4374,3.3872,3.3269,3.5479,3.5554,3.4525,3.5855,3.6358,3.6358,3.6358,3.6358,3.6358,3.6358,3.6935,3.7613,3.7161,3.7236,3.7613,3.8191,3.8994,3.9697,3.9697,3.9697,3.9697,3.9697,3.9697,3.9898,4.0676,4.0852,4.1153,4.2258,4.2484,4.2585,4.2911,4.2986,4.2986,4.2986,4.2986,4.2986,4.2986,4.2874,4.2874,4.2986,4.2849,4.2874,4.2986,4.3162,4.3388,4.3501,4.27,4.2026,4.1229,4.1141,4.0592,3.9629,4.1794,4.3673,4.5101,4.8421,5.1937,5.5806,5.716,5.8634,6.0102,6.0863,6.1491,6.2229,6.137,6.0504,5.9676,5.8557,5.7778,5.7071,5.5654,5.5177,5.5329,5.3849,5.3399,5.3473,3.1891,3.1738,3.1629,3.1629,3.1629,3.1629,3.1629,3.1629,3.1629,3.1629,3.3372,3.4692,3.4692,3.4361,3.3551,3.1782,3.4288,3.6073,3.6358,3.6358,3.6358,3.6358,3.6358,3.6458,3.6659,3.6458,3.6358,3.6358,3.6358,3.6358,3.6358,3.6358,3.6358,3.6452,3.732,3.7227,3.6358,3.6358,3.5203,3.3545,3.5554,3.6358,3.6263,3.6358,3.6358,3.6358,3.6358,3.6358,3.6383,3.6584,3.8015,3.9496,3.8366,3.7864,3.7864,3.8642,3.927,3.9697,3.9747,3.9772,3.9772,3.9823,3.9848,4.0099,4.1103,4.1379,4.1706,4.276,4.2986,4.2986,4.2986,4.2986,4.2986,4.2986,4.2986,4.2986,4.2986,4.2737,4.265,4.3037,4.2837,4.2725,4.3112,4.3589,4.3976,4.4269,4.3708,4.2899,4.1803,4.1803,4.1368,4.0255,4.0663,4.207,4.4523,4.6362,4.9482,5.3954,5.647,5.7938,5.8759,6.027,6.1137,6.1302,6.1247,6.0518,5.9413,5.8783,5.7895,5.6963,5.5947,5.52,5.4689,5.3518,5.2784,5.2332,3.3901,3.2678,3.1629,3.1629,3.1629,3.1629,3.1629,3.1629,3.1629,3.1629,3.4193,3.5966,3.5966,3.3765,3.2088,3.1651,3.2218,3.3697,3.6263,3.6358,3.6358,3.6358,3.6358,3.7186,3.8944,3.7262,3.6358,3.6358,3.6358,3.6358,3.6358,3.6358,3.6358,3.6452,3.664,3.6546,3.6358,3.6358,3.6081,3.568,3.6157,3.5883,3.5211,3.6073,3.6288,3.6003,3.6263,3.6358,3.6634,3.8366,3.9295,3.9496,3.8366,3.8567,3.917,3.8944,3.927,3.9798,4.0224,4.035,4.045,4.0877,4.0978,4.1053,4.1279,4.1681,4.2158,4.2836,4.2986,4.2986,4.2986,4.2986,4.2986,4.2986,4.2986,4.2986,4.2986,4.2737,4.28,4.3564,4.3412,4.3472,4.4217,4.4367,4.4493,4.4502,4.3919,4.3517,4.3252,4.271,4.215,4.1489,4.1784,4.3003,4.5166,4.6954,4.9379,5.2658,5.5169,5.7024,5.838,5.9598,6.0456,6.101,6.0276,5.9737,5.9385,5.8058,5.7167,5.6394,5.5787,5.5498,5.5255,5.4586,5.4009,5.3271,3.3333,3.2328,3.1629,3.1629,3.1629,3.1629,3.1629,3.2901,3.3895,3.3895,3.3993,3.4091,3.4091,3.26,3.1629,3.1629,3.3001,3.4581,3.6263,3.5378,3.5278,3.6307,3.7387,3.8492,3.9672,3.7513,3.6358,3.6358,3.6358,3.6358,3.6358,3.6358,3.6358,3.6383,3.691,3.686,3.6383,3.6759,3.6684,3.6358,3.6358,3.6205,3.5916,3.5985,3.623,3.6529,3.6463,3.7036,3.7965,3.8065,3.8818,3.9597,3.8994,3.922,3.9647,3.9346,3.9471,3.9823,4.0375,4.0526,4.0651,4.1204,4.153,4.1731,4.1731,4.1957,4.2308,4.2861,4.2986,4.2874,4.24,4.2737,4.2874,4.24,4.2737,4.3062,4.3338,4.3162,4.3248,4.4116,4.3986,4.4095,4.4995,4.5045,4.5146,4.5397,4.5067,4.4705,4.4077,4.4207,4.399,4.3096,4.3842,4.4719,4.5748,4.7886,4.9619,5.1101,5.4391,5.6362,5.7146,5.876,5.9614,5.9786,5.9627,5.9199,5.874,5.7982,5.7255,5.6712,5.6068,5.5734,5.5578,5.502,5.4484,5.3445,3.1935,3.1629,3.1629,3.1629,3.1629,3.1738,3.2066,3.4525,3.6358,3.6358,3.3598,3.1629,3.1629,3.1629,3.1629,3.1629,3.4581,3.6358,3.6358,3.4299,3.4073,3.6257,3.8492,3.9697,3.9697,3.7864,3.6935,3.6935,3.6558,3.6358,3.6358,3.6358,3.6358,3.6408,3.7312,3.7312,3.6684,3.7111,3.7036,3.6634,3.6634,3.6895,3.712,3.6333,3.6431,3.6825,3.6493,3.7789,3.9396,3.7367,3.7842,3.949,3.949,3.9594,3.9722,3.9798,3.9848,3.9973,4.052,4.0696,4.0821,4.1372,4.1848,4.2308,4.2283,4.2308,4.2434,4.2886,4.2986,4.2737,4.1834,4.2287,4.2513,4.172,4.2287,4.305,4.3714,4.3587,4.3721,4.4694,4.4636,4.4886,4.5598,4.5623,4.5824,4.6276,4.6301,4.598,4.5122,4.5735,4.588,4.5047,4.583,4.6345,4.6661,4.8816,5.0018,5.039,5.3916,5.562,5.5675,5.7861,5.8557,5.8325,5.8926,5.8794,5.8069,5.796,5.7553,5.6984,5.6604,5.6144,5.5787,5.5599,5.4753,5.3493,3.1673,3.1629,3.1629,3.1629,3.1629,3.2197,3.3879,3.5449,3.6358,3.6358,3.3598,3.1629,3.1629,3.1629,3.1629,3.1629,3.4581,3.6358,3.6358,3.4299,3.4073,3.6257,3.8492,3.9697,3.9697,3.9396,3.9245,3.9245,3.7312,3.6358,3.6358,3.6358,3.6358,3.6358,3.6508,3.7036,3.7739,3.6885,3.701,3.7789,3.7789,3.7568,3.7294,3.7543,3.6897,3.5914,3.6218,3.7789,3.9544,3.8185,3.7944,3.8291,3.8736,3.9258,3.9798,4.0275,4.04,4.052,4.133,4.1494,4.1618,4.2165,4.2364,4.2526,4.2861,4.2861,4.2886,4.2961,4.2986,4.2737,4.1834,4.172,4.172,4.1606,4.172,4.2258,4.3601,4.3587,4.3871,4.5246,4.5799,4.6125,4.62,4.62,4.6225,4.6301,4.6301,4.661,4.7221,4.656,4.6534,4.7144,4.6484,4.7002,4.8588,4.9505,5.071,5.235,5.3944,5.4719,5.48,5.6595,5.7439,5.7466,5.8064,5.8282,5.8042,5.7526,5.6956,5.6468,5.6902,5.6922,5.665,5.7027,5.5969,5.4391,3.1629,3.1629,3.1629,3.1629,3.1629,3.1913,3.2765,3.4238,3.5615,3.6318,3.3598,3.1629,3.1629,3.1629,3.1629,3.1629,3.4581,3.6358,3.6358,3.5454,3.5906,3.8115,3.917,3.9697,3.9697,3.9697,3.9697,3.9697,3.8693,3.7588,3.6358,3.6358,3.7036,3.8216,3.7789,3.7764,3.799,3.7839,3.7739,3.7739,3.7939,3.7916,3.7792,3.8617,3.8138,3.7112,3.7917,3.8868,3.9594,3.9154,3.8945,3.8945,3.9258,3.9915,4.0626,4.0651,4.0802,4.1046,4.1604,4.1718,4.1842,4.2389,4.2513,4.2625,4.2986,4.2986,4.2986,4.2986,4.2625,4.1948,4.1009,4.0779,4.0663,4.0083,4.0894,4.2013,4.3308,4.3805,4.4577,4.5824,4.6175,4.6301,4.6301,4.6301,4.6301,4.6301,4.6301,4.6661,4.7703,4.7442,4.7769,4.8673,4.8442,4.8848,5.0041,5.0655,5.1508,5.2723,5.3565,5.4162,5.4514,5.5681,5.6387,5.6685,5.6604,5.6766,5.7065,5.6794,5.6522,5.6359,5.7213,5.7651,5.774,5.692,5.6079,5.5031]}]]